[[{"header":{"parameterUnit":"m.s-1","parameterCategory":1,"la1":30.6,"la2":28.766,"lo1":-90.7593,"lo2":-88.6598,"dx":0.0162,"dy":0.0183,"nx":116,"ny":114,"refTime":"2022-11-16T18:00:00:Z","depth":0,"parameterNumber":2,"parameterNumberName":"U-component_of_WINDS"},"data":[0.0,0.0,0.0,0.0,0.0,0.0,0.0,0.0,0.0,0.0,0.0,0.0,0.0,0.0,0.0,0.0,0.0,0.0,0.0,0.0,0.0,0.0,0.0,0.0,0.0,0.0,0.0,0.0,0.0,0.0,0.0,0.0,0.0,0.0,0.0,0.0,0.0,0.0,0.0,0.0,0.0,0.0,0.0,0.0,0.0,0.0,0.0,0.0,0.0,0.0,0.0,0.0,0.0,0.0,0.0,0.0,0.0,0.0,0.0,0.0,0.0,0.0,0.0,0.0,0.0,0.0,0.0,0.0,0.0,0.0,0.0,0.0,0.0,0.0,0.0,0.0,0.0,0.0,0.0,0.0,0.0,0.0,0.0,0.0,0.0,0.0,0.0,0.0,0.0,0.0,0.0,0.0,0.0,0.0,0.0,0.0,0.0,0.0,0.0,0.0,0.0,0.0,0.0,0.0,0.0,0.0,0.0,0.0,0.0,0.0,0.0,0.0,0.0,0.0,0.0,0.0,0.0,0.0,0.0,0.0,0.0,0.0,0.0,0.0,0.0,0.0,0.0,0.0,0.0,0.0,0.0,0.0,0.0,0.0,0.0,0.0,0.0,0.0,0.0,0.0,0.0,0.0,0.0,0.0,0.0,0.0,0.0,0.0,0.0,0.0,0.0,0.0,0.0,0.0,0.0,0.0,0.0,0.0,0.0,0.0,0.0,0.0,0.0,0.0,0.0,0.0,0.0,0.0,0.0,0.0,0.0,0.0,0.0,0.0,0.0,0.0,0.0,0.0,0.0,0.0,0.0,0.0,0.0,0.0,0.0,0.0,0.0,0.0,0.0,0.0,0.0,0.0,0.0,0.0,0.0,0.0,0.0,0.0,0.0,0.0,0.0,0.0,0.0,0.0,0.0,0.0,0.0,0.0,0.0,0.0,0.0,0.0,0.0,0.0,0.0,0.0,0.0,0.0,0.0,0.0,0.0,0.0,0.0,0.0,0.0,0.0,0.0,0.0,0.0,0.0,0.0,0.0,0.0,0.0,0.0,0.0,0.0,0.0,0.0,0.0,0.0,0.0,0.0,0.0,0.0,0.0,0.0,0.0,0.0,0.0,0.0,0.0,0.0,0.0,0.0,0.0,0.0,0.0,0.0,0.0,0.0,0.0,0.0,0.0,0.0,0.0,0.0,0.0,0.0,0.0,0.0,0.0,0.0,0.0,0.0,0.0,0.0,0.0,0.0,0.0,0.0,0.0,0.0,0.0,0.0,0.0,0.0,0.0,0.0,0.0,0.0,0.0,0.0,0.0,0.0,0.0,0.0,0.0,0.0,0.0,0.0,0.0,0.0,0.0,0.0,0.0,0.0,0.0,0.0,0.0,0.0,0.0,0.0,0.0,0.0,0.0,0.0,0.0,0.0,0.0,0.0,0.0,0.0,0.0,0.0,0.0,0.0,0.0,0.0,0.0,0.0,0.0,0.0,0.0,0.0,0.0,0.0,0.0,0.0,0.0,0.0,0.0,0.0,0.0,0.0,0.0,0.0,0.0,0.0,0.0,0.0,0.0,0.0,0.0,0.0,0.0,0.0,0.0,0.0,0.0,0.0,0.0,0.0,0.0,0.0,0.0,0.0,0.0,0.0,0.0,0.0,0.0,0.0,0.0,0.0,0.0,0.0,0.0,0.0,0.0,0.0,0.0,0.0,0.0,0.0,0.0,0.0,0.0,0.0,0.0,0.0,0.0,0.0,0.0,0.0,0.0,0.0,0.0,0.0,0.0,0.0,0.0,0.0,0.0,0.0,0.0,0.0,0.0,0.0,0.0,0.0,0.0,0.0,0.0,0.0,0.0,0.0,0.0,0.0,0.0,0.0,0.0,0.0,0.0,0.0,0.0,0.0,0.0,0.0,0.0,0.0,0.0,0.0,0.0,0.0,0.0,0.0,0.0,0.0,0.0,0.0,0.0,0.0,0.0,0.0,0.0,0.0,0.0,0.0,0.0,0.0,0.0,0.0,0.0,0.0,0.0,0.0,0.0,0.0,0.0,0.0,0.0,0.0,0.0,0.0,0.0,0.0,0.0,0.0,0.0,0.0,0.0,0.0,0.0,0.0,0.0,0.0,0.0,0.0,0.0,0.0,0.0,0.0,0.0,0.0,0.0,0.0,0.0,0.0,0.0,0.0,0.0,0.0,0.0,0.0,0.0,0.0,0.0,0.0,0.0,0.0,0.0,0.0,0.0,0.0,0.0,0.0,0.0,0.0,0.0,0.0,0.0,0.0,0.0,0.0,0.0,0.0,0.0,0.0,0.0,0.0,0.0,0.0,0.0,0.0,0.0,0.0,0.0,0.0,0.0,0.0,0.0,0.0,0.0,0.0,0.0,0.0,0.0,0.0,0.0,0.0,0.0,0.0,0.0,0.0,0.0,0.0,0.0,0.0,0.0,0.0,0.0,0.0,0.0,0.0,0.0,0.0,0.0,0.0,0.0,0.0,0.0,0.0,0.0,0.0,0.0,0.0,0.0,0.0,0.0,0.0,0.0,0.0,0.0,0.0,0.0,0.0,0.0,0.0,0.0,0.0,0.0,0.0,0.0,0.0,0.0,0.0,0.0,0.0,0.0,0.0,0.0,0.0,0.0,0.0,0.0,0.0,0.0,0.0,0.0,0.0,0.0,0.0,0.0,0.0,0.0,0.0,0.0,0.0,0.0,0.0,0.0,0.0,0.0,0.0,0.0,0.0,0.0,0.0,0.0,0.0,0.0,0.0,0.0,0.0,0.0,0.0,0.0,0.0,0.0,0.0,0.0,0.0,0.0,0.0,0.0,0.0,0.0,0.0,0.0,0.0,0.0,0.0,0.0,0.0,0.0,0.0,0.0,0.0,0.0,0.0,0.0,0.0,0.0,0.0,0.0,0.0,0.0,0.0,0.0,0.0,0.0,0.0,0.0,0.0,0.0,0.0,0.0,0.0,0.0,0.0,0.0,0.0,0.0,0.0,0.0,0.0,0.0,0.0,0.0,0.0,0.0,0.0,0.0,0.0,0.0,0.0,0.0,0.0,0.0,0.0,0.0,0.0,0.0,0.0,0.0,0.0,0.0,0.0,0.0,0.0,0.0,0.0,0.0,0.0,0.0,0.0,0.0,0.0,0.0,0.0,0.0,0.0,0.0,0.0,0.0,0.0,0.0,0.0,0.0,0.0,0.0,0.0,0.0,0.0,0.0,0.0,0.0,0.0,0.0,0.0,0.0,0.0,0.0,0.0,0.0,0.0,0.0,0.0,0.0,0.0,0.0,0.0,0.0,0.0,0.0,0.0,0.0,0.0,0.0,0.0,0.0,0.0,0.0,0.0,0.0,0.0,0.0,0.0,0.0,0.0,0.0,0.0,0.0,0.0,0.0,0.0,0.0,0.0,0.0,0.0,0.0,0.0,0.0,0.0,0.0,0.0,0.0,0.0,0.0,0.0,0.0,0.0,0.0,0.0,0.0,0.0,0.0,0.0,0.0,0.0,0.0,0.0,0.0,0.0,0.0,0.0,0.0,0.0,0.0,0.0,0.0,0.0,0.0,0.0,0.0,0.0,0.0,0.0,0.0,0.0,0.0,0.0,0.0,0.0,0.0,0.0,0.0,0.0,0.0,0.0,0.0,0.0,0.0,0.0,0.0,0.0,0.0,0.0,0.0,0.0,0.0,0.0,0.0,0.0,0.0,0.0,0.0,0.0,0.0,0.0,0.0,0.0,0.0,0.0,0.0,0.0,0.0,0.0,0.0,0.0,0.0,0.0,0.0,0.0,0.0,0.0,0.0,0.0,0.0,0.0,0.0,0.0,0.0,0.0,0.0,0.0,0.0,0.0,0.0,0.0,0.0,0.0,0.0,0.0,0.0,0.0,0.0,0.0,0.0,0.0,0.0,0.0,0.0,0.0,0.0,0.0,0.0,0.0,0.0,0.0,0.0,0.0,0.0,0.0,0.0,0.0,0.0,0.0,0.0,0.0,0.0,0.0,0.0,0.0,0.0,0.0,0.0,0.0,0.0,0.0,0.0,0.0,0.0,0.0,0.0,0.0,0.0,0.0,0.0,0.0,0.0,0.0,0.0,0.0,0.0,0.0,0.0,0.0,0.0,0.0,0.0,0.0,0.0,0.0,0.0,0.0,0.0,0.0,0.0,0.0,0.0,0.0,0.0,0.0,0.0,0.0,0.0,0.0,0.0,0.0,0.0,0.0,0.0,0.0,0.0,0.0,0.0,0.0,0.0,0.0,0.0,0.0,0.0,0.0,0.0,0.0,0.0,0.0,0.0,0.0,0.0,0.0,0.0,0.0,0.0,0.0,0.0,0.0,0.0,0.0,0.0,0.0,0.0,0.0,0.0,0.0,0.0,0.0,0.0,0.0,0.0,0.0,0.0,0.0,0.0,0.0,0.0,0.0,0.0,0.0,0.0,0.0,0.0,0.0,0.0,0.0,0.0,0.0,0.0,0.0,0.0,0.0,0.0,0.0,0.0,0.0,0.0,0.0,0.0,0.0,0.0,0.0,0.0,0.0,0.0,0.0,0.0,0.0,0.0,0.0,0.0,0.0,0.0,0.0,0.0,0.0,0.0,0.0,0.0,0.0,0.0,0.0,0.0,0.0,0.0,0.0,0.0,0.0,0.0,0.0,0.0,0.0,0.0,0.0,0.0,0.0,0.0,0.0,0.0,0.0,0.0,0.0,0.0,0.0,0.0,0.0,0.0,0.0,0.0,0.0,0.0,0.0,0.0,0.0,0.0,0.0,0.0,0.0,0.0,0.0,0.0,0.0,0.0,0.0,0.0,0.0,0.0,0.0,0.0,0.0,0.0,0.0,0.0,0.0,0.0,0.0,0.0,0.0,0.0,0.0,0.0,0.0,0.0,0.0,0.0,0.0,0.0,0.0,0.0,0.0,0.0,0.0,0.0,0.0,0.0,0.0,0.0,0.0,0.0,0.0,0.0,0.0,0.0,0.0,0.0,0.0,0.0,0.0,0.0,0.0,0.0,0.0,0.0,0.0,0.0,0.0,0.0,0.0,0.0,0.0,0.0,0.0,0.0,0.0,0.0,0.0,0.0,0.0,0.0,0.0,0.0,0.0,0.0,0.0,0.0,0.0,0.0,0.0,0.0,0.0,0.0,0.0,0.0,0.0,0.0,0.0,0.0,0.0,0.0,0.0,0.0,0.0,0.0,0.0,0.0,0.0,0.0,0.0,0.0,0.0,0.0,0.0,0.0,0.0,0.0,0.0,0.0,0.0,0.0,0.0,0.0,0.0,0.0,0.0,0.0,0.0,0.0,0.0,0.0,0.0,0.0,0.0,0.0,0.0,0.0,0.0,0.0,0.0,0.0,0.0,0.0,0.0,0.0,0.0,0.0,0.0,0.0,0.0,0.0,0.0,0.0,0.0,0.0,0.0,0.0,0.0,0.0,0.0,0.0,0.0,0.0,0.0,0.0,0.0,0.0,0.0,0.0,0.0,0.0,0.0,0.0,0.0,0.0,0.0,0.0,0.0,0.0,0.0,0.0,0.0,0.0,0.0,0.0,0.0,0.0,0.0,0.0,0.0,0.0,0.0,0.0,0.0,0.0,0.0,0.0,0.0,0.0,0.0,0.0,0.0,0.0,0.0,0.0,0.0,0.0,0.0,0.0,0.0,0.0,0.0,0.0,0.0,0.0,0.0,0.0,0.0,0.0,0.0,0.0,0.0,0.0,0.0,0.0,0.0,0.0,0.0,0.0,0.0,0.0,0.0,0.0,0.0,0.0,0.0,0.0,0.0,0.0,0.0,0.0,0.0,0.0,0.0,0.0,0.0,0.0,0.0,0.0,0.0,0.0,0.0,0.0,0.0,0.0,0.0,0.0,0.0,0.0,0.0,0.0,0.0,0.0,0.0,0.0,0.0,0.0,0.0,0.0,0.0,0.0,0.0,0.0,0.0,0.0,0.0,0.0,0.0,0.0,0.0,0.0,0.0,0.0,0.0,0.0,0.0,0.0,0.0,0.0,0.0,0.0,0.0,0.0,0.0,0.0,0.0,0.0,0.0,0.0,0.0,0.0,0.0,0.0,0.0,0.0,0.0,0.0,0.0,0.0,0.0,0.0,3.7,3.6226,0.0,0.0,0.0,0.0,0.0,0.0,0.0,0.0,0.0,0.0,0.0,0.0,0.0,0.0,0.0,0.0,0.0,0.0,0.0,0.0,0.0,0.0,0.0,2.2148,2.2488,2.3082,2.2993,0.0,0.0,0.0,0.0,0.0,0.0,0.0,0.0,0.0,2.456,2.5577,2.5786,2.6338,2.7077,2.6337,2.5905,2.5694,0.0,0.0,0.0,0.0,0.0,0.0,0.0,0.0,0.0,0.0,0.0,0.0,0.0,0.0,0.0,0.0,0.0,0.0,0.0,0.0,0.0,0.0,0.0,0.0,0.0,0.0,0.0,0.0,0.0,0.0,0.0,0.0,0.0,0.0,0.0,0.0,0.0,0.0,0.0,0.0,0.0,0.0,0.0,0.0,0.0,0.0,0.0,0.0,0.0,0.0,0.0,0.0,0.0,0.0,0.0,0.0,0.0,0.0,0.0,0.0,0.0,0.0,0.0,0.0,0.0,0.0,0.0,0.0,0.0,0.0,3.7226,3.6944,0.0,0.0,0.0,0.0,0.0,0.0,0.0,0.0,0.0,0.0,0.0,0.0,0.0,0.0,0.0,0.0,0.0,0.0,0.0,0.0,0.0,2.2326,2.3799,2.3872,2.3987,2.4421,2.3987,2.3691,2.3691,2.3344,0.0,0.0,0.0,0.0,2.4232,2.5302,2.5965,2.6126,2.652,2.6788,2.6888,2.6991,2.6784,2.6302,2.6091,0.0,0.0,0.0,0.0,0.0,0.0,0.0,0.0,0.0,0.0,0.0,0.0,0.0,0.0,0.0,0.0,0.0,0.0,0.0,0.0,0.0,0.0,0.0,0.0,0.0,0.0,0.0,0.0,0.0,0.0,0.0,0.0,0.0,0.0,0.0,0.0,0.0,0.0,0.0,0.0,0.0,0.0,0.0,0.0,0.0,0.0,0.0,0.0,0.0,0.0,0.0,0.0,0.0,0.0,0.0,0.0,0.0,0.0,0.0,0.0,0.0,0.0,0.0,3.7134,3.723,3.7484,3.7378,3.7223,3.7044,3.672,3.7022,3.764,3.6799,0.0,0.0,0.0,0.0,0.0,0.0,0.0,0.0,0.0,0.0,0.0,0.0,0.0,0.0,0.0,0.0,0.0,0.0,0.0,2.3619,2.3747,2.3824,2.3862,2.3811,2.3999,2.4126,2.4126,2.428,0.0,0.0,0.0,2.3996,2.4284,2.446,2.4969,2.5863,2.5953,2.5898,2.5634,2.5652,2.5623,2.5576,2.6447,2.6502,2.5996,0.0,0.0,0.0,0.0,0.0,0.0,0.0,0.0,0.0,0.0,0.0,0.0,0.0,0.0,0.0,0.0,0.0,0.0,0.0,0.0,0.0,0.0,0.0,0.0,0.0,0.0,0.0,0.0,0.0,0.0,0.0,0.0,0.0,0.0,0.0,0.0,0.0,0.0,0.0,0.0,0.0,3.122,3.1412,0.0,0.0,0.0,0.0,0.0,0.0,0.0,0.0,0.0,0.0,0.0,0.0,0.0,3.6627,3.675,3.591,3.6623,3.8783,3.843,3.8976,4.0245,3.9614,3.888,3.8063,3.7058,0.0,3.6654,3.7443,0.0,0.0,0.0,0.0,0.0,0.0,0.0,0.0,0.0,0.0,0.0,0.0,0.0,0.0,0.0,0.0,0.0,0.0,0.0,0.0,0.0,2.4817,2.4698,2.4768,2.4643,2.46,2.471,2.4827,0.0,0.0,2.5,2.536,2.5978,2.6075,2.6227,2.6525,2.6136,2.59,2.5844,2.5844,2.5844,2.5866,2.6332,2.6411,2.621,2.6683,0.0,0.0,0.0,0.0,0.0,0.0,0.0,0.0,0.0,0.0,0.0,0.0,0.0,0.0,0.0,0.0,0.0,0.0,0.0,0.0,0.0,0.0,0.0,0.0,0.0,0.0,0.0,0.0,0.0,0.0,0.0,0.0,0.0,0.0,0.0,0.0,0.0,0.0,0.0,3.1675,3.166,3.2634,3.2455,3.2599,0.0,0.0,0.0,0.0,0.0,0.0,0.0,0.0,0.0,3.6283,3.6353,3.6496,3.6682,3.6054,3.634,3.7577,3.7406,3.7547,3.7924,3.7591,3.7228,3.6796,3.6326,3.6105,3.6143,3.6465,3.67,3.6788,0.0,0.0,0.0,0.0,3.6996,3.7295,0.0,0.0,0.0,0.0,0.0,0.0,0.0,0.0,0.0,0.0,0.0,0.0,2.591,2.559,2.5357,2.5496,2.5135,2.5088,2.547,2.5482,2.5658,2.6133,2.6399,2.6833,2.7483,2.7418,2.7216,2.6862,2.6342,2.6147,2.6213,2.628,2.6346,2.6324,2.6429,2.6402,2.6285,2.6723,2.6939,2.6961,0.0,0.0,0.0,0.0,0.0,0.0,0.0,0.0,0.0,0.0,0.0,0.0,0.0,0.0,0.0,0.0,0.0,0.0,0.0,0.0,0.0,0.0,0.0,0.0,0.0,0.0,0.0,0.0,0.0,0.0,0.0,0.0,0.0,0.0,0.0,0.0,0.0,3.2867,3.2367,3.3712,3.329,3.3183,0.0,0.0,0.0,0.0,0.0,0.0,3.6393,3.6545,3.6608,3.659,3.6228,3.6207,3.6549,3.6187,3.6331,3.6889,3.6889,3.6747,3.6491,3.6491,3.6372,3.6132,3.617,3.6243,3.6312,3.5808,3.6224,3.7033,3.5669,3.5676,3.6483,3.6395,3.6607,3.698,0.0,0.0,0.0,0.0,0.0,0.0,0.0,0.0,0.0,0.0,0.0,2.5722,2.562,2.5494,2.5349,2.5227,2.5212,2.5597,2.6574,2.6516,2.6876,2.7809,2.778,2.7795,2.7953,2.7403,2.6833,2.6246,2.6281,2.6305,2.6301,2.6569,2.6659,2.668,2.7062,2.6866,2.6222,2.6567,2.669,2.662,2.6675,0.0,0.0,0.0,0.0,0.0,0.0,0.0,0.0,0.0,0.0,0.0,0.0,0.0,0.0,0.0,0.0,0.0,0.0,0.0,0.0,0.0,0.0,0.0,0.0,0.0,0.0,0.0,0.0,0.0,0.0,0.0,0.0,0.0,0.0,0.0,0.0,0.0,0.0,3.4039,3.2879,0.0,0.0,0.0,0.0,3.6652,3.6775,3.6593,3.6135,3.612,3.6077,3.5943,3.5917,3.6081,3.6408,3.638,3.698,3.8201,3.8201,3.835,3.8648,3.8648,3.8171,3.7314,3.7443,3.7505,3.7422,3.6333,3.5533,3.502,3.5735,3.5834,3.5648,3.6459,3.7051,3.7482,0.0,0.0,0.0,2.0118,2.051,2.1226,2.2508,2.3261,2.399,2.4819,2.5377,2.5574,2.5308,2.5167,2.5098,2.5131,2.4887,2.4968,2.5512,2.6089,2.666,2.7147,2.7727,2.8165,2.8377,2.7673,2.7284,2.722,2.6605,2.6458,2.6749,2.686,2.6883,2.6883,2.7054,2.7035,2.6908,2.7166,2.7085,2.6793,2.6815,2.6815,0.0,0.0,0.0,0.0,0.0,0.0,0.0,0.0,0.0,0.0,0.0,0.0,0.0,0.0,0.0,0.0,0.0,0.0,0.0,0.0,0.0,0.0,0.0,0.0,0.0,0.0,0.0,0.0,0.0,0.0,0.0,0.0,0.0,0.0,0.0,0.0,0.0,3.4513,3.4386,0.0,3.458,3.5233,3.5777,3.6137,3.6218,3.6165,3.5997,3.6167,3.6247,3.6218,3.6208,3.6392,3.6698,3.6698,3.7184,3.8036,3.8036,3.806,3.8042,3.8042,3.7747,3.7295,3.7651,3.7719,3.7601,3.7783,3.7428,3.6822,3.7126,3.7171,3.7087,3.7407,3.7619,3.777,0.0,0.0,0.0,2.0042,2.0527,2.134,2.2591,2.3245,2.3933,2.4851,2.5126,2.517,2.5054,2.4884,2.4797,2.4896,2.4661,2.4764,2.5392,2.629,2.7033,2.7535,2.8259,2.8557,2.8447,2.7995,2.7773,2.7721,2.7251,2.7174,2.7491,2.7824,2.7846,2.7627,2.7869,2.7839,2.769,2.78,2.7583,2.7129,2.7128,2.7225,2.7392,0.0,0.0,0.0,0.0,0.0,0.0,0.0,0.0,0.0,0.0,0.0,0.0,0.0,0.0,0.0,0.0,0.0,0.0,0.0,0.0,0.0,0.0,0.0,0.0,0.0,0.0,0.0,0.0,0.0,0.0,0.0,0.0,0.0,0.0,3.5303,3.4593,3.4993,3.5268,3.5191,3.4659,3.5571,3.609,3.5845,3.6127,3.6233,3.6086,3.6449,3.6602,3.6575,3.6575,3.6789,3.7214,3.7388,3.7758,3.8303,3.8481,3.8513,3.8388,3.8388,3.8514,3.8752,3.8782,3.8978,3.929,3.9573,3.9445,3.8978,3.8336,3.7985,3.789,3.789,3.7997,3.8146,0.0,0.0,1.9811,1.9836,2.055,2.1336,2.2118,2.2886,2.3742,2.4722,2.4667,2.4576,2.4844,2.4656,2.4507,2.4507,2.4507,2.5076,2.6392,2.7182,2.8125,2.9252,2.942,2.905,2.8129,2.835,2.821,2.7641,2.8158,2.8416,2.8441,2.9437,2.9511,2.8838,2.9579,2.9346,2.8418,2.8416,2.8134,2.7649,2.7608,2.7671,2.7857,0.0,0.0,0.0,0.0,0.0,0.0,0.0,0.0,0.0,0.0,0.0,0.0,0.0,0.0,0.0,0.0,0.0,0.0,0.0,0.0,0.0,0.0,0.0,0.0,0.0,0.0,0.0,0.0,0.0,0.0,0.0,0.0,0.0,3.6089,3.5793,3.5513,3.5503,3.5352,3.5118,3.4867,3.5802,3.627,3.5963,3.6641,3.6922,3.6444,3.6889,3.7117,3.6993,3.7024,3.7327,3.7991,3.8418,3.8814,3.9128,3.9643,3.9921,3.9921,3.9921,4.0616,4.1704,4.0955,4.1317,4.2411,4.1665,4.1338,4.1129,3.9221,3.8282,3.7996,3.7996,3.8242,3.869,2.049,2.01,1.9962,2.0507,2.0882,2.1465,2.2608,2.312,2.3524,2.3906,2.4282,2.4394,2.4125,2.4353,2.4631,2.4962,2.5003,2.5274,2.5878,2.7165,2.8348,2.9392,2.9199,2.8846,2.8411,2.8402,2.8344,2.8184,2.8668,2.8905,2.8907,2.9579,2.9675,2.9324,2.972,2.9534,2.8906,2.8903,2.8817,2.8631,2.7896,2.7986,2.8531,0.0,0.0,0.0,0.0,0.0,0.0,0.0,0.0,0.0,0.0,0.0,0.0,0.0,0.0,0.0,0.0,0.0,0.0,0.0,0.0,0.0,0.0,0.0,0.0,0.0,0.0,0.0,0.0,0.0,0.0,0.0,3.5442,3.5865,3.6107,3.569,3.5457,3.5763,3.5976,3.6048,3.5957,3.6512,3.6732,3.6291,3.7003,3.7283,3.6801,3.8185,3.8969,3.8944,3.9494,3.9887,4.0065,3.9733,3.9697,3.9982,4.0118,4.0332,4.0547,4.0547,4.0616,4.0762,4.1248,4.147,4.1565,4.2405,4.256,4.2111,4.0966,4.0465,4.0346,4.0346,4.0435,4.0696,2.1094,2.0753,2.0641,2.1075,2.1396,2.1834,2.2595,2.3034,2.3354,2.3533,2.3946,2.4155,2.3995,2.4446,2.49,2.519,2.5377,2.5717,2.6218,2.7443,2.845,2.9187,2.8911,2.8732,2.8694,2.8692,2.8799,2.8977,2.9397,2.9635,2.9758,3.0709,3.0785,3.0159,3.0852,3.0619,2.9735,2.9735,2.9601,2.9341,2.8748,2.883,2.9262,2.9308,2.9398,2.9494,2.9494,2.8967,2.8327,2.8565,0.0,0.0,0.0,0.0,0.0,0.0,0.0,0.0,0.0,0.0,0.0,0.0,0.0,0.0,0.0,0.0,0.0,0.0,0.0,0.0,0.0,0.0,0.0,0.0,3.5638,3.6156,3.6282,3.6045,3.5909,3.6093,3.6593,3.6758,3.6444,3.7228,3.7502,3.6936,3.8127,3.8581,3.7968,3.9302,4.0216,4.058,4.0518,4.0801,4.1496,4.0983,4.0873,4.1132,4.1573,4.1874,4.2063,4.2063,4.2208,4.249,4.2783,4.302,4.3255,4.3739,4.3811,4.347,0.0,0.0,0.0,0.0,4.192,4.2018,2.1708,2.1532,2.1532,2.1583,2.197,2.2332,2.2383,2.2794,2.3204,2.3453,2.3682,2.3929,2.4237,2.483,2.5232,2.5273,2.5737,2.6365,2.7115,2.8032,2.861,2.8766,2.8701,2.8796,2.9038,2.9183,2.9475,2.9894,3.0247,3.0555,3.0785,3.2219,3.2297,3.122,3.2365,3.2079,3.0696,3.0668,3.0397,2.9981,2.995,2.9943,2.9942,3.0067,3.0238,3.0407,3.0407,3.0361,3.034,3.0217,0.0,0.0,0.0,0.0,0.0,0.0,0.0,0.0,0.0,0.0,0.0,0.0,0.0,0.0,0.0,0.0,0.0,0.0,0.0,0.0,0.0,0.0,0.0,0.0,3.5745,3.637,3.6707,3.6813,3.6801,3.6572,3.7219,3.7428,3.6713,3.7973,3.8565,3.7904,3.9569,4.0258,3.9486,4.0347,0.0,0.0,0.0,4.1145,4.2567,4.2309,4.2276,4.2554,4.3493,4.3907,4.3907,4.3907,4.4475,4.5385,4.481,4.5093,4.5966,4.5332,4.5075,4.4953,4.3887,4.3303,4.3038,4.3204,4.3216,4.3128,2.2257,2.1794,2.1633,2.2071,2.2232,2.2458,2.2869,2.3045,2.3204,2.3453,2.3682,2.4045,2.4695,2.504,2.5356,2.573,2.6485,2.7325,2.8151,2.9341,2.9568,2.8611,2.924,2.9545,2.9331,2.9924,3.0296,3.0431,3.0887,3.1332,3.1814,3.2574,3.2653,3.2252,3.2698,3.2277,3.1248,3.1192,3.11,3.102,3.094,3.0568,3.0051,3.0109,3.0457,3.0968,3.0968,3.0815,3.0686,3.1074,3.0941,3.0624,3.051,3.0691,0.0,0.0,0.0,0.0,0.0,0.0,0.0,0.0,0.0,0.0,0.0,0.0,0.0,0.0,0.0,0.0,0.0,0.0,0.0,3.5494,3.6355,3.717,3.754,3.8178,3.8304,3.7486,3.799,3.835,3.8209,3.9406,3.998,3.9477,4.0177,4.0383,3.9819,4.1476,4.2518,4.2675,4.3504,4.408,4.4369,4.4082,4.3924,4.3989,4.4468,0.0,4.4691,4.4691,4.4807,4.5027,4.531,4.5492,4.5581,4.5955,4.61,4.5996,4.4987,4.4561,4.4626,4.5646,4.5666,4.5281,2.2744,2.2581,2.2484,2.2673,2.2783,2.2898,2.307,2.3361,2.3722,2.4192,2.4682,2.5073,2.5271,2.5856,2.6099,2.5828,2.6802,2.7912,2.9037,2.9364,2.9383,2.9098,2.9548,2.9954,3.0306,3.0554,3.0883,3.1307,3.1555,3.2097,3.2869,3.3546,3.3788,3.366,3.4037,3.349,3.2282,3.2278,3.193,3.1453,3.1414,3.1115,3.0619,3.0338,3.06,3.1084,3.0945,3.0957,3.1081,3.1353,3.1297,3.106,3.0823,3.0893,3.1005,0.0,0.0,0.0,0.0,0.0,0.0,0.0,0.0,0.0,0.0,0.0,0.0,0.0,0.0,3.5054,3.5058,0.0,3.6636,3.6858,3.7566,3.8267,3.8723,3.927,3.9328,3.8585,3.8997,3.9312,3.9263,4.0222,4.0765,4.0608,4.1375,4.1797,4.1604,4.2896,4.3931,4.4597,4.4809,4.5199,4.5833,4.532,4.5047,4.5047,4.5446,4.563,4.563,4.563,4.5587,4.5595,4.6116,4.6233,4.6099,4.6984,4.7345,4.7345,4.7379,4.6679,4.5729,4.6362,4.6555,4.6553,2.3095,2.3285,2.336,2.3125,2.3241,2.3356,2.3412,2.3831,2.4391,2.5092,2.5725,2.6058,2.5822,2.6519,2.68,2.6253,2.7237,2.8377,2.9534,2.9188,2.9159,2.9686,2.9833,3.0321,3.1193,3.1081,3.1359,3.199,3.2154,3.272,3.3676,3.4432,3.4762,3.4762,3.515,3.4525,3.3205,3.3242,3.2712,3.1834,3.1818,3.1681,3.1421,3.0874,3.0853,3.1078,3.0969,3.1166,3.1526,3.1609,3.1719,3.1719,3.1346,3.1215,3.1213,3.1226,3.1746,0.0,0.0,0.0,0.0,0.0,0.0,0.0,0.0,3.3851,3.403,3.4388,3.4928,3.5485,3.592,3.6531,3.725,3.8133,3.8794,3.934,3.9648,4.0203,4.0344,3.9857,4.0183,4.0418,4.0298,4.1171,4.1788,4.1885,4.2875,4.3493,4.3611,4.4285,4.5093,4.6167,4.5545,4.5689,4.6696,4.6207,4.595,4.5974,4.6384,4.6607,4.663,4.6725,4.6727,4.6636,4.726,4.7403,4.7257,4.8262,4.8671,4.8734,4.9696,4.8953,4.7322,4.7255,4.7549,4.8067,2.3095,2.336,2.348,2.3165,2.3135,2.3467,2.4451,2.4656,2.4977,2.571,2.5888,2.5996,2.6119,2.6233,2.6767,2.79,2.8362,2.8773,2.9234,2.9852,3.0042,2.9711,3.0329,3.0841,3.1193,3.1407,3.1666,3.199,3.2487,3.3109,3.3877,3.4401,3.4625,3.4625,3.467,3.4127,3.3227,3.3386,3.3166,3.2667,3.2536,3.2469,3.2389,3.1846,3.1419,3.1147,3.1539,3.1788,3.1995,3.2408,3.283,3.317,3.3107,3.3107,3.3101,3.3165,3.2991,3.2729,3.2818,3.2967,3.3219,3.3528,3.3595,3.3714,0.0,3.4751,3.5134,3.4952,3.604,3.696,3.674,3.7562,3.8263,3.8148,3.937,4.0088,3.9449,4.0906,4.1872,4.133,4.1514,4.1706,4.167,4.3092,4.4026,4.404,4.4444,4.471,4.4724,4.5258,4.5616,4.5747,4.6072,4.6308,4.6441,4.6713,4.686,4.686,4.7208,4.7364,4.7388,4.7878,4.807,4.8113,4.9005,4.9199,4.8902,4.979,4.9997,4.9793,5.0359,5.0679,5.0721,5.0335,5.0489,5.0925,2.3095,2.3315,2.3435,2.33,2.3495,2.375,2.3951,2.4486,2.5049,2.5609,2.6115,2.6376,2.6276,2.6009,2.6712,2.8854,2.8806,2.9307,3.0845,3.0581,3.0315,3.0111,3.054,3.0931,3.1193,3.145,3.171,3.199,3.2546,3.3164,3.3918,3.4361,3.4768,3.5059,3.5059,3.4598,3.379,3.3878,3.3416,3.2681,3.2614,3.2405,3.2102,3.1906,3.159,3.1341,3.1806,3.219,0.0,3.2991,3.3289,3.3459,3.3405,3.3427,3.345,3.3394,3.3329,3.341,3.4063,3.4002,3.381,3.4095,3.4405,3.4611,3.4397,3.513,3.579,3.5759,3.6632,3.7443,3.7582,3.8323,3.9075,3.9587,4.0292,4.0814,4.0818,4.1881,4.2591,4.2336,4.3418,4.3986,4.3419,4.3775,4.4439,4.5366,4.5413,4.5498,4.5747,4.6215,4.6457,4.6457,4.6846,4.7208,4.7518,4.7652,4.7921,4.8208,4.8343,4.8411,4.8435,4.8652,4.8884,4.917,5.0079,5.0367,5.0279,5.1331,5.1639,5.1631,5.2425,5.2643,5.2408,5.1408,5.149,5.2185,2.3095,2.33,2.345,2.345,2.3835,2.4093,2.3923,2.4498,2.5139,2.5523,2.6134,2.6365,2.5926,2.5929,2.6841,2.9094,2.889,2.9573,3.1715,3.0743,3.0161,3.038,3.0594,3.0827,3.1086,3.127,3.1476,3.168,3.2341,3.2902,3.344,3.4139,3.4681,3.5035,3.5035,3.4637,3.3956,3.4005,3.3513,3.27,3.272,3.2511,3.2154,3.1946,3.182,3.1795,3.2033,3.2341,3.2693,3.3178,3.342,3.3485,3.3464,3.3489,3.3481,3.3405,3.3511,3.3825,3.4581,3.454,3.4328,3.4454,3.5054,3.5506,3.5156,3.596,3.6827,3.6823,3.7587,3.8283,3.8515,3.9097,3.9815,4.0528,4.0992,4.136,4.1567,4.2523,4.3212,4.3235,4.4698,4.5603,4.5404,4.5065,4.5322,4.6409,4.6333,4.6465,4.692,4.7212,4.7418,4.7561,4.7796,4.8122,4.8507,4.8507,4.8734,4.9119,4.9221,4.9328,4.9473,4.9925,5.0146,5.0348,5.1388,5.1689,5.1536,5.2784,5.3228,5.322,5.4094,5.4253,5.3883,5.2869,5.2817,5.3338,2.3095,2.3375,2.3599,2.3599,2.3985,2.4505,2.5059,2.518,2.5346,2.573,2.5819,2.5579,2.4913,2.6049,2.7301,2.8348,2.8645,2.9421,3.0936,2.9914,2.9566,3.038,3.0417,3.0521,3.0801,3.0827,3.0827,3.0827,3.1769,3.2216,3.2286,3.3529,3.4121,3.4142,3.4142,3.3834,3.3347,3.3542,3.3338,3.2906,3.3092,3.3169,3.307,3.2273,3.2319,3.2695,3.2249,3.2123,3.2189,3.2727,3.3172,3.3514,3.357,3.3537,3.3497,3.3581,3.3693,3.3812,3.3915,3.4208,3.4491,3.4518,3.5298,3.6169,3.6634,3.7707,3.8519,3.8196,3.9159,3.9922,3.9523,4.0038,4.0467,4.0263,4.1221,4.1686,4.0927,4.2583,4.3931,4.4145,4.4886,4.6057,4.7747,4.7715,4.7475,4.7181,4.7454,4.7828,4.8233,4.8267,4.8507,4.9012,4.9071,4.9071,4.9095,4.9095,4.9095,4.9119,4.9519,4.9957,5.0492,5.1961,5.2298,5.182,5.3268,5.3381,5.2678,5.411,5.452,5.4205,5.4758,5.5177,5.5545,5.5496,5.5173,5.48,2.3095,2.33,2.3465,2.3465,2.3673,2.3902,2.4098,2.4405,2.4601,2.4543,2.4693,0.0,0.0,0.0,0.0,0.0,2.9536,3.0755,3.1689,3.1387,3.1089,3.0887,3.0576,3.0443,3.0521,3.0698,3.0801,3.0801,3.1444,3.1891,3.2231,3.298,3.3478,3.3777,3.3777,3.367,3.3514,3.3551,3.3388,3.3114,3.3176,3.2901,3.2406,3.2505,3.2454,3.2368,0.0,3.2687,3.2759,3.326,3.3511,3.3625,3.3614,3.3297,3.2896,3.2814,3.3652,3.4618,3.4676,3.48,3.5026,3.5678,3.6048,3.6472,3.7246,3.7937,3.8485,3.8678,3.9454,4.0141,4.0274,4.0727,4.1132,4.1405,4.2232,4.27,4.2216,4.3736,4.4775,4.4454,4.5838,4.6991,4.7295,4.7556,4.7963,4.856,4.8628,4.8683,4.882,4.8854,4.8892,4.9095,4.9119,4.9287,4.9624,5.0253,5.0527,5.0503,5.1251,5.173,5.1926,5.3052,5.3442,5.3318,5.4431,5.4738,5.4505,5.5363,5.5626,5.5541,5.5741,5.5889,5.5999,5.5999,5.5874,5.5749,2.3095,2.3271,2.339,2.339,2.3509,0.0,0.0,0.0,0.0,0.0,0.0,0.0,0.0,0.0,0.0,0.0,0.0,3.1095,3.2346,3.1962,3.162,3.1505,3.0921,3.074,3.1036,3.0789,3.0675,3.0675,3.0875,3.1132,3.1427,3.2141,3.2767,3.3212,3.3212,3.3297,3.3445,3.3135,3.2931,3.2769,3.2803,3.2513,3.2072,3.245,3.2526,0.0,3.2677,3.2871,3.3069,3.3364,3.3473,3.341,3.3239,3.2933,3.2723,3.3074,3.4053,3.5097,3.5336,3.5418,3.5638,3.6509,3.6773,3.7084,3.8098,3.8658,3.9103,3.9529,4.003,4.0504,4.0875,4.133,4.1669,4.1838,4.2715,4.3269,4.2889,4.4097,4.5056,4.5172,4.6337,4.7258,4.7476,4.7854,4.8304,4.8952,4.9038,4.9129,4.929,4.9562,4.9721,4.9662,4.9865,5.0199,5.0677,5.1287,5.1802,5.2185,5.3009,5.3335,5.3364,5.4348,5.458,5.4292,5.5257,5.5566,5.544,5.5993,5.6219,5.6219,5.6219,5.6219,5.6219,5.6219,5.6219,5.6084,2.3095,2.3256,2.3375,0.0,0.0,0.0,0.0,0.0,0.0,0.0,0.0,0.0,0.0,0.0,0.0,0.0,0.0,0.0,3.276,3.1609,3.1236,3.2194,3.145,3.1388,3.2145,3.1059,3.0467,3.049,3.0235,3.0109,3.0177,3.1322,3.2132,3.2598,3.2598,3.2873,3.3247,3.2469,3.2114,3.2114,3.2131,3.2137,3.211,3.2221,3.2555,3.2906,3.2494,3.2683,3.309,3.309,3.3064,3.2975,3.2583,3.2658,3.3122,3.4142,3.4782,3.5275,3.5819,3.6003,3.6227,3.6942,3.7375,3.7956,3.9227,3.9854,4.029,4.0613,4.0821,4.1081,4.1395,4.192,4.2129,4.162,4.2744,4.3522,4.3043,4.3826,4.4905,4.6189,4.6389,4.6933,4.8214,4.8544,4.8603,4.8549,4.8858,4.9235,4.9626,5.0431,5.0864,5.0768,5.1285,5.1729,5.2123,5.2158,5.282,5.4042,5.4563,5.4755,5.4672,5.5717,5.5641,5.4748,5.5767,5.5917,5.5465,5.5993,5.6219,5.6219,5.6219,5.6219,5.6207,5.6097,5.6086,5.5792,0.0,0.0,0.0,0.0,0.0,0.0,0.0,0.0,0.0,0.0,0.0,0.0,0.0,0.0,0.0,0.0,0.0,0.0,3.1802,3.2117,3.2382,3.2642,3.1879,3.1542,3.1736,3.1442,3.1381,3.1512,3.1449,3.1667,3.2158,3.2488,3.3102,3.4001,3.4001,3.431,3.4857,3.4011,3.3637,3.3586,3.2949,3.2479,3.2223,3.2626,3.2674,3.254,3.2813,3.2999,3.309,3.309,3.3289,3.3458,3.3117,3.3727,3.4471,3.3921,3.4746,3.5798,3.5618,3.6038,3.6695,3.7373,3.7686,3.8121,3.9295,3.9716,3.9941,4.0401,4.1094,4.1828,4.2345,4.2956,4.3419,4.3417,4.429,4.4765,4.4055,4.5309,4.6115,4.5656,4.6491,4.7199,4.7329,4.7764,4.8341,4.9097,4.9594,5.0043,5.0532,5.0694,5.109,5.1886,5.1933,5.2185,5.2682,5.3258,5.3887,5.4613,5.5027,5.5243,5.5225,5.5892,5.6068,5.5817,5.6093,5.6118,5.6018,5.6143,5.6219,5.6219,5.6219,5.6433,5.6599,5.497,5.462,5.4458,0.0,0.0,0.0,0.0,0.0,0.0,0.0,0.0,0.0,0.0,0.0,0.0,0.0,0.0,0.0,0.0,0.0,0.0,0.0,3.1523,3.1797,3.2218,3.1473,3.1198,3.1552,3.1377,3.1366,3.1463,3.148,3.1717,3.2051,3.2252,3.2767,3.3526,3.3526,3.3988,3.4744,3.3768,3.3696,0.0,0.0,3.2652,3.2723,3.2958,3.2885,3.268,3.2974,3.309,3.3164,3.3515,3.3529,3.3446,3.3634,3.4157,3.4674,3.4333,3.5062,3.5944,3.6132,3.6448,3.7001,3.8225,3.8352,3.8552,4.0042,4.0285,4.0351,4.0931,4.1519,4.2135,4.2881,4.3523,4.3959,4.4074,4.4913,4.5415,4.5033,4.6019,4.6681,4.6388,4.6875,4.7281,4.7483,4.7518,4.7958,4.8931,4.965,5.0282,5.0829,5.1142,5.1525,5.204,5.215,5.2635,5.3472,5.4299,5.4934,5.5415,5.5633,5.5742,5.5767,5.6068,5.6219,5.6219,5.6219,5.6308,5.6533,5.6533,5.6721,5.6947,5.6947,5.7148,5.7249,5.6009,5.5125,5.41,0.0,0.0,0.0,0.0,0.0,0.0,0.0,0.0,0.0,2.3539,2.3599,2.3802,0.0,0.0,0.0,0.0,0.0,0.0,0.0,0.0,3.0501,3.1327,3.0695,3.0661,3.1377,3.1128,3.1001,3.1056,3.12,3.1274,3.1294,3.166,3.209,3.2542,3.2542,3.3108,3.4021,3.3038,3.3227,3.4096,3.2951,3.2765,3.3124,0.0,3.2939,3.2889,3.2964,3.304,3.322,3.4011,3.3793,3.3317,3.4257,3.4438,3.4456,3.5199,3.5638,3.6078,3.695,3.7139,3.7465,3.9066,3.9111,3.9227,4.0814,4.1044,4.106,4.164,4.1865,4.2248,4.3096,4.3651,4.4018,4.4089,4.4903,4.56,4.5866,4.6267,4.6855,4.7611,4.7395,4.7396,4.7961,4.7664,4.7758,4.8462,4.9372,5.0159,5.073,5.157,5.2003,5.1952,5.2477,5.326,5.4303,5.5237,5.5852,5.6109,5.6182,5.6244,5.6319,5.6319,5.6369,5.6445,5.6445,5.6684,5.7111,5.7111,5.7449,5.7863,5.7574,5.7511,5.7485,5.6928,5.5496,5.362,0.0,0.0,0.0,0.0,0.0,0.0,0.0,0.0,0.0,0.0,2.3524,2.3867,0.0,0.0,0.0,0.0,0.0,0.0,0.0,0.0,0.0,3.0586,3.0467,3.0535,3.0841,3.1252,3.1625,3.1895,3.2399,3.2727,3.2891,3.2965,3.3303,3.3859,3.3859,3.427,3.4944,3.4553,3.4281,3.4078,3.3641,3.3042,3.2381,3.2348,0.0,0.0,3.219,3.2667,3.322,3.4011,3.4191,3.4264,3.5443,3.5623,3.5556,3.6247,3.667,3.6944,3.693,3.8051,3.9121,3.8766,3.9602,4.0417,4.0065,4.0674,4.1249,4.1104,4.1799,4.2505,4.2838,4.3187,4.3623,4.4176,4.4732,4.5415,4.6264,4.6698,4.7099,4.7628,4.7999,4.802,4.7481,4.8238,4.876,4.8658,4.9185,4.9798,5.0499,5.1248,5.2171,5.3228,5.4082,5.4634,5.4856,5.5692,5.5962,5.5705,5.6036,5.6408,5.686,5.686,5.7111,5.76,5.76,5.765,5.775,5.775,5.7801,5.775,5.5876,5.5422,5.539,5.1745,5.0406,5.0165,0.0,0.0,0.0,0.0,0.0,0.0,0.0,2.3095,2.3251,2.3659,2.3847,2.4121,2.4652,2.5361,2.6091,0.0,0.0,0.0,0.0,0.0,0.0,2.9208,2.9208,2.9241,2.9342,2.9994,3.0429,3.0572,0.0,3.1695,3.1782,3.1782,3.2113,3.2694,3.2694,3.3237,3.4075,3.3488,3.3492,3.3799,3.289,3.2428,3.2281,3.1932,0.0,0.0,3.2466,3.2842,3.323,3.412,3.4394,3.4592,3.5588,3.5957,3.6115,3.6498,3.7024,3.7575,3.7859,3.8656,3.945,3.9673,4.0182,4.0649,4.0801,4.1275,4.1698,4.1962,4.2383,4.2953,4.3614,4.385,4.4218,4.4852,4.537,4.5894,4.6418,4.6854,4.7279,4.7679,4.7962,4.8162,4.8323,4.8778,4.9248,4.9624,5.0199,5.0692,5.0954,5.1897,5.2838,5.3698,5.435,5.4868,5.53,5.5979,5.6313,5.635,5.6836,5.7223,5.7474,5.7474,5.765,5.7901,5.7901,5.8052,5.8328,5.8328,5.7805,5.6921,5.5856,5.4906,5.3847,5.1722,5.0375,4.9446,0.0,0.0,0.0,0.0,0.0,0.0,2.3095,2.3095,2.3321,2.3929,2.4198,2.4487,2.4916,2.5788,2.6486,0.0,0.0,0.0,0.0,0.0,0.0,0.0,2.7931,2.7964,2.8046,0.0,0.0,2.9158,2.9929,0.0,0.0,0.0,0.0,0.0,3.099,3.1496,3.2324,3.1796,3.2129,0.0,0.0,3.1694,3.2034,0.0,0.0,0.0,0.0,3.3065,3.3396,3.4221,3.4602,3.4846,3.5676,3.622,3.6561,3.691,3.7538,3.8296,3.8887,3.933,3.979,4.0586,4.0668,4.0779,4.1593,4.1851,4.2102,4.2745,4.294,4.3253,4.4161,4.4327,4.4543,4.5231,4.5691,4.6143,4.6441,4.679,4.7185,4.7739,4.7768,4.8059,4.8852,4.9072,4.9427,5.0124,5.1132,5.1686,5.1647,5.2844,5.3675,5.3991,5.4651,5.5323,5.598,5.6477,5.6888,5.7186,5.7675,5.7951,5.8077,5.8077,5.8127,5.8215,5.7747,5.7767,5.8125,5.7675,5.6673,5.5453,5.4986,5.3702,5.2135,5.1636,5.0399,4.887,0.0,0.0,0.0,0.0,0.0,0.0,2.3095,2.3095,2.3321,2.3929,2.4431,2.5014,2.5706,2.599,2.6345,0.0,0.0,0.0,0.0,0.0,0.0,0.0,0.0,0.0,0.0,0.0,0.0,2.9026,2.9621,0.0,0.0,0.0,0.0,0.0,0.0,3.0006,2.9963,3.0565,0.0,0.0,0.0,0.0,0.0,0.0,0.0,0.0,0.0,3.2943,3.3895,3.4341,3.488,3.5575,3.6488,3.6827,3.706,3.8249,3.8903,3.9287,3.9488,4.0371,4.1126,4.0525,4.0903,4.1411,4.146,4.169,4.2028,4.2454,4.2782,4.3095,4.3361,4.3409,4.366,4.4324,4.4785,4.5361,4.6352,4.6421,4.6726,4.7677,4.7904,4.7935,4.7767,4.8671,4.92,4.9057,5.0905,5.2202,5.2459,5.3785,5.4568,5.4606,5.6207,5.706,5.7136,5.755,5.7788,5.7826,5.7876,5.8152,5.8654,5.8654,5.8905,5.9216,5.723,5.6359,5.6287,5.4268,5.3329,5.3004,5.0988,5.0061,4.9659,4.7641,4.6769,4.6595,0.0,0.0,0.0,0.0,0.0,0.0,2.3095,2.3411,2.3838,2.4415,2.4958,2.5544,2.6181,2.6299,2.6519,2.6952,0.0,0.0,0.0,0.0,0.0,0.0,0.0,0.0,0.0,0.0,2.772,2.7805,2.8039,0.0,0.0,0.0,0.0,0.0,0.0,2.8829,2.9061,2.9233,0.0,0.0,0.0,0.0,0.0,0.0,0.0,0.0,0.0,0.0,3.3981,3.4477,3.501,3.5649,3.6573,3.7166,3.77,3.8318,3.9068,3.9768,4.0029,4.0618,4.1117,4.1046,4.0874,4.0891,4.1573,4.1633,4.1769,4.2652,4.2896,4.3222,4.3963,4.4067,4.4305,4.4986,4.6046,4.654,4.5703,4.6622,4.7165,4.662,4.7294,4.7938,4.8251,4.9354,5.0371,5.1037,5.2666,5.3506,5.3164,5.4399,5.5327,5.5849,5.6807,5.7398,5.765,5.8152,5.8403,5.8403,5.8704,5.8981,5.9182,5.9182,5.8561,5.747,5.6574,5.543,5.4174,5.3251,5.2094,5.082,4.9955,4.8784,4.7511,4.6638,4.6308,4.6308,0.0,0.0,0.0,0.0,0.0,2.3095,2.3095,2.3612,2.4205,2.4741,2.5285,2.5829,2.6424,2.6499,2.6602,2.6824,2.6841,0.0,0.0,0.0,0.0,0.0,0.0,0.0,0.0,0.0,2.6994,2.6994,2.6994,2.6994,0.0,0.0,2.7242,2.7635,0.0,0.0,0.0,0.0,0.0,0.0,0.0,0.0,0.0,0.0,0.0,0.0,0.0,0.0,0.0,0.0,0.0,3.5635,3.642,3.7291,3.8041,3.8346,3.9182,4.0064,4.0369,4.0662,4.0954,4.1259,4.0941,4.0776,4.1688,4.1781,4.1905,4.2811,4.3014,4.3341,4.4389,4.4763,4.5056,4.5541,4.7132,4.7589,4.5484,4.733,4.8117,4.6103,4.7185,4.8178,4.8396,4.9667,5.0866,5.1793,5.3325,5.402,5.3568,5.4894,5.5989,5.6654,5.7377,5.7973,5.8378,5.8755,5.8956,5.8917,5.8663,5.8539,5.85,5.7849,5.6693,5.5205,5.4534,5.3351,5.1844,5.124,5.004,4.8634,4.8634,4.7664,4.6308,4.6308,4.6387,4.6484,0.0,0.0,0.0,0.0,0.0,0.0,2.3095,2.3612,2.4205,2.4741,2.5285,2.5829,2.6424,2.6499,2.6499,2.6499,2.6516,0.0,0.0,0.0,0.0,0.0,0.0,0.0,0.0,0.0,2.6994,2.6994,2.6994,2.6994,2.6994,2.6994,2.6994,2.702,0.0,0.0,0.0,0.0,0.0,0.0,0.0,0.0,3.0189,0.0,0.0,0.0,0.0,0.0,0.0,0.0,0.0,0.0,0.0,3.716,3.8066,3.8561,3.9464,4.0332,4.0552,4.0753,4.0918,4.0918,4.1135,4.1494,4.1823,4.2186,4.2576,4.2934,4.3014,4.3341,4.4389,4.5135,4.5586,4.5604,4.7477,4.8113,4.5886,4.8521,4.9559,4.6649,4.7924,4.8741,4.7796,4.9276,5.0321,5.0321,5.199,5.3214,5.3681,5.5369,5.647,5.6892,5.82,5.9095,5.9483,5.9483,5.9483,5.9483,5.7288,5.6231,5.6191,5.3988,5.2962,5.2798,5.061,4.9659,4.9446,4.7251,4.6352,4.6352,4.6352,4.6308,4.6308,4.6308,4.6562,4.687,0.0,0.0,0.0,0.0,0.0,0.0,0.0,2.3923,2.4616,2.4791,2.5628,2.6298,2.6474,2.6499,2.6499,2.6499,2.6499,0.0,0.0,0.0,0.0,0.0,0.0,0.0,0.0,0.0,2.6671,2.6671,2.6671,2.6671,2.6671,2.6671,2.6671,2.6653,2.7058,2.7157,0.0,0.0,0.0,0.0,0.0,2.9876,3.0002,0.0,0.0,0.0,0.0,0.0,0.0,0.0,0.0,0.0,0.0,0.0,0.0,3.8337,3.9104,4.0106,4.0184,4.0607,4.1033,4.1033,4.1201,4.1511,4.2154,4.2161,4.2229,4.2859,4.3014,4.3341,4.4389,4.4763,4.5405,4.6941,4.8502,4.8781,4.6589,4.8472,4.9022,4.6234,4.7496,4.8762,4.9027,5.0628,5.1599,5.1643,5.3836,5.5143,5.5094,5.6143,5.6845,5.6969,5.7952,5.856,5.8677,5.8965,5.833,5.6821,5.6375,5.543,5.3906,5.3209,5.2052,5.061,4.9913,4.8741,4.7295,4.6595,4.6465,4.6738,4.6738,4.6914,4.7168,4.7168,4.7266,4.7383,0.0,0.0,0.0,0.0,0.0,0.0,0.0,2.4214,2.4867,2.5067,2.5929,2.6499,2.6499,2.6499,2.6499,2.6499,2.6499,0.0,0.0,0.0,0.0,0.0,0.0,0.0,0.0,2.7085,2.7085,2.7085,2.7085,2.7085,2.7085,2.7085,2.7085,2.711,2.7462,2.7595,0.0,0.0,0.0,0.0,2.9654,2.9988,3.0298,0.0,0.0,0.0,0.0,0.0,0.0,0.0,0.0,0.0,0.0,0.0,0.0,0.0,3.9213,3.9919,3.997,4.0548,4.1083,4.1083,4.1445,4.189,4.237,4.2369,4.2397,4.2897,4.3006,4.3419,4.4724,4.5178,4.5914,4.7723,4.9372,4.9614,4.7167,4.9266,5.0207,4.7847,4.8045,4.8732,4.9407,5.1018,5.2077,5.2298,5.4471,5.5706,5.549,5.6438,5.6997,5.7012,5.7853,5.8467,5.8756,5.9004,5.8447,5.7059,5.5614,5.4232,5.2839,5.1198,4.9659,4.8333,4.8517,4.7795,0.0,4.6719,4.6933,4.7168,4.7168,4.7344,4.7578,4.7578,4.7676,4.7812,0.0,0.0,0.0,0.0,0.0,0.0,0.0,2.449,2.5042,2.5536,2.6122,2.6499,2.6499,2.6499,2.6524,2.6549,0.0,0.0,0.0,0.0,0.0,0.0,0.0,0.0,0.0,2.8097,2.8097,2.8097,2.8097,2.8097,2.8097,2.8097,2.8097,2.8097,2.8147,2.8197,0.0,0.0,0.0,0.0,2.9804,3.0223,0.0,0.0,0.0,0.0,0.0,0.0,0.0,0.0,0.0,0.0,0.0,0.0,0.0,0.0,0.0,0.0,0.0,4.0499,4.1121,4.1214,4.1915,4.2561,4.2591,4.2827,0.0,4.3003,4.3053,4.359,4.5236,4.5986,4.678,4.7983,4.991,5.0314,4.7628,5.0464,5.2237,5.0699,4.9339,4.8727,4.9192,5.0738,5.1881,5.2382,5.4096,5.5114,5.5108,5.6254,5.6973,5.7012,5.7813,5.8638,5.9431,5.9444,5.9367,5.9173,5.5107,5.3067,5.2801,4.8546,4.661,4.6669,4.6841,4.6928,4.6967,4.7422,4.7598,4.7617,4.7617,4.7637,4.7676,4.7676,4.791,4.8262,0.0,0.0,0.0,0.0,0.0,0.0,0.0,0.0,0.0,0.0,2.6122,2.6499,2.6499,2.6499,2.6675,0.0,0.0,0.0,0.0,0.0,0.0,0.0,0.0,0.0,0.0,2.8097,2.8097,2.8097,2.8097,2.8097,2.8097,2.8097,2.8097,2.8122,2.853,2.8957,0.0,0.0,0.0,0.0,2.9804,3.017,0.0,0.0,0.0,0.0,3.2889,3.309,0.0,0.0,0.0,0.0,0.0,0.0,0.0,0.0,3.9196,4.0621,3.965,0.0,4.1456,4.2343,4.2702,4.2999,0.0,4.3573,4.3487,4.3075,4.357,4.4241,4.4809,4.4998,4.5699,4.766,4.8508,4.8678,4.7967,4.8563,4.9236,4.9697,4.9293,4.9301,5.0265,5.1183,5.1935,5.2361,5.4081,5.5117,5.5091,5.602,5.6678,5.6973,5.7512,5.805,5.856,5.8887,5.8173,5.6502,5.5775,5.4765,5.3417,5.0591,4.9529,4.988,4.8146,4.7422,4.7441,4.7539,4.7773,4.8066,4.8066,4.8262,4.86,4.86,4.8659,4.8757,0.0,0.0,0.0,0.0,0.0,0.0,0.0,0.0,0.0,0.0,0.0,2.6499,2.6499,2.6499,0.0,0.0,0.0,0.0,0.0,0.0,0.0,0.0,0.0,0.0,2.8875,2.8875,2.8875,2.8875,2.8875,2.8875,2.8875,2.8875,2.8875,2.89,2.9183,2.9503,0.0,0.0,0.0,2.9804,3.0055,0.0,0.0,0.0,0.0,0.0,3.2989,3.309,0.0,3.309,3.3291,3.3636,0.0,0.0,0.0,0.0,3.8728,4.0045,3.9841,4.1004,4.2207,4.2008,4.2881,4.3753,4.3561,4.408,4.4415,4.3589,4.4236,4.4979,4.5092,4.5268,4.593,4.7471,4.8334,4.9117,4.9827,4.9637,4.9689,5.0499,5.0193,5.0264,5.1267,5.1778,5.2343,5.2987,5.4312,5.5206,5.5351,5.6197,5.6957,5.7613,5.806,5.8417,5.8679,5.9063,5.8807,5.7847,5.7276,5.6478,5.5519,5.2173,5.0814,5.0979,4.8812,4.7871,4.7891,4.8131,4.8301,4.8496,4.8496,4.8698,4.8913,4.8913,4.8913,4.8913,0.0,0.0,0.0,0.0,0.0,0.0,0.0,0.0,0.0,0.0,0.0,0.0,0.0,0.0,0.0,0.0,0.0,0.0,0.0,0.0,0.0,0.0,0.0,2.9804,2.9804,2.9804,2.9804,2.9804,2.9804,2.9804,2.9804,2.9804,2.9804,2.9804,2.9804,2.9804,0.0,0.0,2.9804,2.9854,3.0362,0.0,0.0,0.0,0.0,0.0,0.0,0.0,0.0,3.309,3.3111,3.3294,3.416,0.0,0.0,0.0,0.0,0.0,4.0262,4.1945,4.3023,4.1395,4.2723,4.4239,4.3458,4.4411,4.5238,4.4443,4.5165,4.5883,4.5852,4.6153,4.6637,4.7415,4.8769,5.0154,5.1479,5.1295,5.1168,5.1671,5.1094,5.1036,5.1971,5.229,5.275,5.3531,5.4456,5.5224,5.5688,5.6573,5.7517,5.8515,5.898,5.9269,5.9343,5.9682,5.9911,6.0076,5.8586,5.7726,5.7302,5.3102,5.1192,5.1188,4.9192,4.8301,4.834,4.8757,4.8913,4.8913,4.8913,4.8913,4.8913,4.8913,4.8913,4.8913,0.0,0.0,0.0,0.0,0.0,0.0,0.0,0.0,0.0,0.0,0.0,0.0,0.0,0.0,0.0,0.0,0.0,0.0,0.0,0.0,0.0,0.0,0.0,0.0,2.9804,2.9804,2.9804,2.9804,2.9804,2.9804,2.9804,2.9804,2.9804,2.9804,2.9804,2.9804,2.9804,2.9804,2.9804,2.9854,3.0362,0.0,0.0,0.0,0.0,0.0,0.0,0.0,0.0,3.309,3.3219,3.3368,3.353,0.0,0.0,0.0,0.0,0.0,4.0532,4.2081,4.3206,4.2429,4.2752,4.3391,4.3924,4.4406,4.4982,4.5775,4.6692,4.7283,4.7002,4.6643,4.6703,4.7667,4.8805,4.9588,4.9696,4.9602,4.9897,5.0833,5.0315,5.0462,5.1932,5.2318,5.2558,5.2715,5.3873,5.4953,5.5841,5.6675,5.7789,5.9131,5.9559,5.9998,6.0465,6.0401,5.9615,5.813,5.7843,5.6939,5.5347,5.2689,5.1734,5.2087,4.9791,4.8796,4.8815,4.8874,4.8913,4.8913,4.8913,4.8913,4.8913,4.8913,4.8913,4.8913,0.0,0.0,0.0,0.0,0.0,0.0,0.0,0.0,0.0,0.0,0.0,0.0,0.0,0.0,0.0,0.0,0.0,0.0,0.0,0.0,0.0,0.0,0.0,0.0,0.0,2.9804,2.9804,2.9804,2.9804,2.9804,2.9804,2.9804,2.9804,2.9804,2.9804,2.9804,2.9804,3.0105,3.0231,3.0306,0.0,0.0,0.0,0.0,0.0,0.0,0.0,0.0,0.0,0.0,3.324,3.3483,3.3913,0.0,0.0,0.0,0.0,0.0,3.9924,4.1309,4.2602,4.2228,4.3272,4.4306,4.417,4.514,4.6192,4.6681,4.7132,4.7377,4.7222,4.6727,4.6688,4.7671,4.8779,4.967,5.0133,5.0647,5.1186,5.1649,5.1295,5.1441,5.2702,5.2603,5.2823,5.3597,5.4228,5.4936,5.5879,5.6973,5.8137,5.9322,5.9976,6.0098,5.9631,5.9557,5.9081,5.8199,5.7209,5.6305,5.539,5.305,5.2132,5.2297,4.9911,4.8913,4.8913,4.8913,4.8913,4.8913,4.8913,4.8913,4.8913,4.8913,4.8913,4.8913,0.0,0.0,0.0,0.0,0.0,0.0,0.0,0.0,0.0,0.0,0.0,0.0,0.0,0.0,0.0,0.0,0.0,0.0,0.0,0.0,0.0,0.0,0.0,0.0,0.0,2.9804,2.9804,2.9804,2.993,3.0055,3.0156,3.0156,3.0156,3.0156,3.0156,3.0156,3.0206,3.0608,3.0809,3.0864,0.0,0.0,0.0,0.0,0.0,0.0,0.0,0.0,0.0,0.0,0.0,0.0,0.0,0.0,0.0,3.6693,3.8527,4.0316,3.9954,4.1183,4.2479,4.2348,4.3711,4.4949,4.4288,4.5566,4.6995,4.7326,4.7375,4.747,4.7726,4.748,4.7379,4.7713,4.8856,4.9892,5.0607,5.147,5.2115,5.2286,5.2235,5.2491,5.3289,5.3124,5.3387,5.4374,5.4837,5.5472,5.6344,5.7556,5.8811,6.0002,6.0143,5.9791,5.8847,5.7781,5.72,5.72,5.5748,5.4785,5.4213,5.2431,5.1577,5.1507,4.9702,4.8913,4.8913,4.8913,4.8913,4.8913,4.8913,4.8913,4.8913,4.8913,4.8913,4.8913,0.0,0.0,0.0,0.0,0.0,0.0,0.0,0.0,0.0,0.0,0.0,0.0,0.0,0.0,0.0,0.0,0.0,0.0,0.0,0.0,0.0,0.0,0.0,0.0,0.0,2.9804,2.9804,2.9804,3.0306,3.0809,3.126,3.126,3.126,3.126,3.126,3.126,3.1286,3.1331,3.1336,3.1386,3.1964,0.0,0.0,0.0,0.0,0.0,0.0,0.0,0.0,0.0,0.0,0.0,0.0,0.0,3.7022,3.7134,3.9244,4.1626,4.1827,4.2823,4.3784,4.3843,4.3874,4.4012,4.4216,4.4977,4.6063,4.7619,4.7946,4.8233,4.9235,4.9811,4.9611,4.8078,4.9122,5.0054,4.9806,5.0272,5.093,5.1765,5.2196,5.2692,5.3175,5.3973,5.4333,5.3996,5.5507,5.6852,5.7822,5.8766,6.0109,6.1928,5.9943,5.8992,5.9222,5.4983,5.2858,5.2858,5.2724,5.1507,4.938,4.9216,4.917,4.9124,4.8986,4.8913,4.8913,4.8913,4.8913,4.8913,4.8913,4.8913,4.8913,4.8913,4.8913,4.8913,0.0,0.0,0.0,0.0,0.0,0.0,0.0,0.0,0.0,0.0,0.0,0.0,0.0,0.0,0.0,0.0,0.0,0.0,0.0,0.0,0.0,0.0,0.0,2.9955,3.0306,3.0306,3.0306,3.0306,3.0834,3.121,3.1406,3.1406,3.1406,3.1406,3.1406,3.1406,3.1411,3.1763,3.1913,3.1964,3.2516,3.2763,0.0,0.0,0.0,0.0,0.0,0.0,0.0,0.0,3.3747,3.4444,3.4782,3.6158,3.786,3.9273,4.0643,4.1876,4.271,4.3487,4.4232,4.4849,4.4939,4.4921,4.5101,4.5609,4.6314,4.7341,4.75,4.7662,4.8437,4.8905,4.8952,4.8322,4.9161,4.9962,5.0186,5.0588,5.1208,5.2131,5.2109,5.2476,5.3474,5.3669,5.4276,5.5554,5.6034,5.6922,5.8428,5.9103,5.9385,5.9167,5.887,5.7501,5.5027,5.3282,5.1667,5.0231,5.0231,4.9748,4.8913,4.8913,4.8913,4.8913,4.8913,4.8913,4.8913,4.8913,4.8913,4.8913,4.8913,4.8913,4.8913,4.8913,4.8913,4.8913,0.0,0.0,0.0,0.0,0.0,0.0,0.0,0.0,0.0,0.0,0.0,0.0,0.0,0.0,0.0,0.0,0.0,0.0,0.0,2.9804,2.9804,2.9804,2.9955,3.0231,3.0588,3.0914,3.1014,3.0859,3.1386,3.1738,3.1934,3.1934,3.1934,3.1934,3.1934,3.1934,3.1959,3.2315,3.2491,3.2516,3.2939,3.309,0.0,0.0,0.0,0.0,0.0,0.0,0.0,0.0,3.3729,3.4529,3.5318,3.6761,3.8439,4.0023,4.1508,4.2707,4.3153,4.3924,4.4766,4.5406,4.5674,4.5802,4.5864,4.6089,4.6422,4.6895,4.7754,4.8345,4.819,4.9041,4.9529,4.8836,4.9401,5.008,5.042,5.1103,5.1874,5.2822,5.2801,5.317,5.4404,5.4432,5.4935,5.6405,5.6789,5.7383,5.8306,5.9243,5.9238,5.8255,5.7676,5.6075,5.3304,5.1982,5.0484,4.8913,4.8913,4.8913,4.8913,4.8913,4.8913,4.8913,4.8913,4.8913,4.8913,4.8913,4.8913,4.8913,4.8913,4.8913,4.8913,4.8913,4.8913,4.8913,0.0,0.0,0.0,0.0,0.0,0.0,0.0,0.0,0.0,0.0,0.0,0.0,0.0,0.0,0.0,0.0,0.0,0.0,2.9804,2.9804,2.9804,2.9804,3.0306,3.0588,3.0613,3.1642,3.1964,3.1432,3.1964,3.2516,3.309,3.309,3.309,3.309,3.3115,3.3115,3.309,3.3115,3.3115,3.309,3.309,3.309,3.309,0.0,0.0,0.0,0.0,0.0,0.0,0.0,3.3261,3.3334,3.4689,3.6772,3.8732,3.8863,4.1613,4.4347,4.332,4.4244,4.5501,4.5506,4.5913,4.6308,4.6307,4.634,4.6318,4.6328,4.8985,5.0714,4.8838,5.0842,5.2005,4.9587,4.9923,5.0491,5.0419,5.1634,5.2877,5.3788,5.4317,5.5,5.5992,5.6516,5.6603,5.6124,5.7771,5.8391,5.749,5.92,6.0171,6.0171,5.6488,5.4719,5.5159,5.103,4.8913,4.8913,4.8913,4.8913,4.8913,4.8913,4.8913,4.8913,4.8913,4.8913,4.8913,4.8913,4.8913,4.8913,4.8913,4.8913,4.8913,4.8913,4.8913,4.8913,0.0,0.0,0.0,0.0,0.0,0.0,0.0,0.0,0.0,0.0,0.0,0.0,0.0,0.0,0.0,0.0,0.0,0.0,2.9804,2.9804,2.9804,2.9804,3.0306,3.0783,3.116,3.224,3.2763,3.2612,3.2763,3.2939,3.309,3.309,3.309,3.3115,3.3296,3.3268,3.3093,3.3296,3.3268,3.309,3.309,3.309,3.309,0.0,0.0,0.0,0.0,0.0,0.0,0.0,0.0,0.0,3.5098,3.665,3.8493,4.0262,4.2061,4.3599,4.4251,4.5231,4.6151,4.6542,4.6469,4.6617,4.778,4.8358,4.8837,4.9526,4.9239,4.8886,4.9029,4.9941,5.042,4.9806,5.065,5.15,5.1831,5.2797,5.3805,5.4727,5.4691,5.5111,5.6402,5.6061,5.624,5.7444,5.7447,5.7834,5.8794,5.9073,5.8922,5.8236,5.5793,5.3925,5.2745,5.0185,4.8913,4.8913,4.8913,4.8913,4.8913,4.8913,4.8913,4.8913,4.8913,4.8913,4.8913,4.8913,4.8913,4.8913,4.8913,4.8913,4.8913,4.8913,4.8913,4.8913,0.0,0.0,0.0,0.0,0.0,0.0,0.0,0.0,2.8505,2.875,2.9076,2.9258,0.0,0.0,0.0,2.9804,2.9804,0.0,2.9804,2.9804,2.9804,2.9804,3.0507,3.1286,3.206,3.2763,3.309,3.309,3.309,3.309,3.309,3.309,3.309,3.3115,3.3355,3.3326,3.3115,3.3355,3.3326,3.309,3.309,3.309,3.309,0.0,0.0,0.0,0.0,0.0,0.0,0.0,0.0,0.0,3.5627,3.6966,3.8692,4.0864,4.2015,4.3007,4.4674,4.539,4.5924,4.7062,4.697,4.7209,4.9487,4.9555,4.938,5.0148,4.9932,4.965,4.9715,5.0606,5.1091,5.0465,5.1476,5.2364,5.2476,5.3636,5.4646,5.5189,5.536,5.5904,5.7155,5.673,5.6974,5.8259,5.7381,5.7165,5.8045,5.7464,5.675,5.5967,5.4279,5.2834,5.1733,4.9839,4.8913,4.8913,4.8913,4.8913,4.8913,4.8913,4.8913,4.8913,4.8913,4.8913,4.8913,4.8913,4.8913,4.8913,4.8913,4.8913,4.8913,4.8913,4.8913,4.8913,0.0,0.0,2.7361,0.0,0.0,0.0,0.0,2.8957,2.9183,2.9729,2.9804,2.9804,0.0,0.0,0.0,2.9804,2.9804,2.9804,2.9804,2.9804,2.9804,2.9804,3.0829,3.1934,3.3065,3.309,3.309,3.309,3.309,3.309,3.309,3.309,3.3111,3.3133,3.3355,3.3333,3.3133,3.3405,3.3359,3.3115,3.3165,3.3165,3.3165,3.3115,0.0,0.0,0.0,0.0,0.0,0.0,0.0,0.0,3.6193,3.7517,3.9051,4.0789,4.1798,4.2765,4.4721,4.5127,4.5459,4.7253,4.7474,4.7983,5.0818,5.0024,4.8816,4.9371,5.0983,5.1871,5.0631,5.2101,5.3037,5.1477,5.229,5.3062,5.2725,5.427,5.5445,5.5423,5.6243,5.7198,5.8131,5.8177,5.8306,5.8562,5.7378,5.6404,5.5816,5.4939,5.4235,5.3902,5.2476,5.1688,5.1688,4.9839,4.8913,4.8913,4.8913,4.8913,4.8913,4.8913,4.8913,4.8913,4.8913,4.8913,4.8913,4.8913,4.8913,4.8913,4.8913,4.8913,4.8913,4.8913,4.8913,4.8913,0.0,0.0,2.7921,2.7921,0.0,0.0,2.8863,2.9308,2.9654,2.9779,2.9804,2.9804,2.9804,2.9804,0.0,2.9804,2.9804,2.9804,2.9804,2.9804,2.9804,2.9804,3.0829,3.1934,3.3065,3.309,3.309,3.309,3.309,3.309,3.309,3.309,3.3176,3.3347,3.3604,3.3575,3.3376,3.4108,3.3916,3.314,3.3567,3.3721,3.3671,3.3266,3.3366,0.0,0.0,0.0,0.0,0.0,0.0,0.0,3.6596,3.7696,3.8566,4.0614,4.2616,4.4271,4.477,4.6085,4.7376,4.7703,4.8045,4.8407,4.8935,4.9574,5.0471,5.1896,5.1796,5.1251,5.0545,5.1412,5.2213,5.2123,5.3006,5.3805,5.404,5.5442,5.6475,5.6414,5.7205,5.8189,5.9092,5.886,5.824,5.7249,5.6513,5.5575,5.4366,5.408,5.4058,5.4323,5.2611,5.1688,5.1688,4.9839,4.8913,4.8913,4.8913,4.8913,4.8913,4.8913,4.8913,4.8913,4.8913,4.8913,4.8913,4.8913,4.8913,4.8913,4.8913,4.8913,4.8913,4.8913,4.8913,4.8913,0.0,0.0,0.0,0.0,0.0,0.0,0.0,0.0,3.008,2.9829,2.9804,2.9804,2.9804,2.9804,0.0,0.0,2.9804,2.9804,2.9804,2.9804,3.003,3.0532,3.1085,3.1934,3.3065,3.309,3.309,3.309,3.309,3.309,3.309,3.309,3.3219,3.3411,3.3539,3.3817,3.4187,3.4382,3.4392,3.4245,3.4262,3.4276,3.4248,3.3972,3.4198,3.4678,3.4678,0.0,0.0,0.0,0.0,0.0,0.0,0.0,3.946,4.0848,4.2591,4.4255,4.4859,4.5888,4.6967,4.7616,4.8305,4.8875,4.9253,5.0105,5.1112,5.2213,5.2082,5.1689,5.1407,5.2123,5.2883,5.3309,5.4243,5.5029,5.549,5.6599,5.7355,5.7079,5.7844,5.8605,5.9115,5.8325,5.7593,5.7053,5.5115,5.3613,5.2834,5.1958,5.1552,5.1823,5.0894,5.0368,5.0368,4.94,4.8913,4.8913,4.8913,4.8913,4.8913,4.8913,4.8913,4.8913,4.8913,4.8913,4.8913,4.8913,4.8913,4.8913,4.8913,4.8913,4.8913,4.8913,4.8913,4.8913,0.0,0.0,0.0,0.0,0.0,0.0,0.0,0.0,0.0,2.9854,2.9804,2.9804,2.9804,2.9804,2.9804,0.0,0.0,0.0,2.9804,2.988,3.0382,3.1381,3.1486,3.2035,3.3065,3.309,3.309,3.309,3.309,3.309,3.309,3.309,3.3219,3.3386,3.3386,3.3952,3.4831,3.4499,3.4742,3.5331,3.4984,3.4853,3.4853,3.4853,3.518,3.5682,3.5759,3.615,3.6644,3.6679,0.0,0.0,0.0,0.0,4.0622,4.1252,4.2672,4.4217,4.5063,4.5598,4.6233,4.7569,4.8513,4.928,5.0059,5.0699,5.123,5.1592,5.2143,5.252,5.2415,5.3142,5.3983,5.4543,5.5253,5.6031,5.6682,5.7573,5.7983,5.7576,5.8349,5.8775,5.8477,5.7464,5.6684,5.6424,5.3503,5.1552,5.1236,4.9748,4.8913,4.8913,4.8913,4.8913,4.8913,4.8913,4.8913,4.8913,4.8913,4.8913,4.8913,4.8913,4.8913,4.8913,4.8913,4.8913,4.8913,4.8913,4.8913,4.8913,4.8913,4.8913,4.8913,4.8913,4.8913,4.8913,0.0,0.0,0.0,0.0,0.0,0.0,0.0,0.0,0.0,0.0,2.9804,2.9804,2.9804,2.9804,2.9804,2.9804,2.9804,2.9804,2.9804,0.0,0.0,3.1361,3.1863,3.2416,3.309,3.309,3.309,3.309,3.309,3.309,3.309,3.309,3.3219,3.3386,3.3386,3.3737,3.4361,3.4803,3.4897,3.4841,3.523,3.5382,3.5382,3.5382,3.5757,3.6331,3.6808,3.6757,3.6579,3.7487,3.7561,0.0,0.0,0.0,4.0701,4.1712,4.3932,4.5989,4.5446,4.6365,4.7662,4.8233,4.8906,4.9329,4.9205,5.0291,5.125,5.1188,5.2149,5.2871,5.2478,5.3142,5.4107,5.4958,5.5275,5.582,5.7064,5.7724,5.8092,5.8002,5.8837,5.8771,5.7139,5.7182,5.5967,5.27,5.2003,5.0984,4.9354,4.9032,4.8913,4.8913,4.8913,4.8913,4.8913,4.8913,4.8913,4.8913,4.8913,4.8913,4.8913,4.8913,4.8913,4.8913,4.8913,4.8913,4.8913,4.8913,4.8913,4.8913,4.8913,4.8913,4.8913,4.8913,4.8913,4.8913,0.0,0.0,0.0,0.0,0.0,0.0,0.0,0.0,0.0,0.0,0.0,2.9804,2.9804,2.9804,2.9804,2.9804,2.9804,2.9804,2.9804,3.0306,3.0859,3.1381,3.1913,3.2491,3.309,3.309,3.309,3.309,3.309,3.309,3.309,3.309,3.3219,3.339,3.3435,3.4063,3.5106,3.5133,3.5516,3.6049,3.6326,3.6458,3.6508,3.6786,3.7287,3.7864,0.0,0.0,3.8818,3.9571,3.9598,3.9474,4.0722,0.0,0.0,0.0,4.4684,4.6465,4.6698,4.7569,4.8345,4.8104,4.8956,4.9707,4.9121,5.0421,5.1635,5.1162,5.1949,5.2728,5.2788,5.3348,5.428,5.5763,5.6212,5.6922,5.8348,5.8738,5.8879,5.8879,5.8345,5.7613,5.6794,5.6164,5.4653,5.1913,5.1688,5.0894,4.8986,4.8913,4.8913,4.8913,4.8913,4.8913,4.8913,4.8913,4.8913,4.8913,4.8913,4.8913,4.8913,4.8913,4.8913,4.8913,4.8913,4.8913,4.8913,4.8913,4.8913,4.8913,4.8913,4.8913,4.8913,4.8913,4.8913,4.8913,0.0,0.0,0.0,0.0,0.0,0.0,0.0,0.0,0.0,0.0,0.0,2.9804,2.9804,0.0,0.0,0.0,2.9804,2.9854,2.998,3.0507,3.106,3.1587,3.2139,3.2641,3.309,3.309,3.309,3.309,3.309,3.309,3.309,3.3176,3.3269,3.342,3.3393,3.422,3.5604,3.5151,3.5796,3.712,3.709,3.7217,3.7462,3.8165,0.0,3.9195,3.9873,0.0,0.0,0.0,0.0,4.1119,4.1763,4.2311,0.0,0.0,0.0,4.6953,4.8408,4.8993,4.8993,4.8342,4.9254,5.0118,4.9461,5.057,5.169,5.1405,5.1761,5.227,5.2954,5.3472,5.4371,5.598,5.6643,5.7475,5.895,5.9134,5.9007,5.8667,5.7831,5.6707,5.5378,5.4697,5.3393,5.1166,5.0984,5.0368,4.8986,4.8913,4.8913,4.8913,4.8913,4.8913,4.8913,4.8913,4.8952,4.907,4.8952,4.8913,4.8913,4.8913,4.8913,4.8913,4.8913,4.8913,4.8913,4.8913,4.8913,4.8913,4.8913,4.8913,4.8913,4.8913,4.8913,4.8913,0.0,0.0,0.0,0.0,0.0,0.0,0.0,0.0,0.0,0.0,0.0,2.9804,2.9804,2.9804,2.9804,2.9804,2.9804,3.0005,3.0512,3.106,3.1587,3.2118,3.2717,0.0,3.309,3.309,3.309,3.309,3.309,3.309,3.3115,3.3355,3.3493,3.3491,3.3236,3.3871,3.5089,3.4555,3.5453,3.717,3.6844,3.722,3.809,0.0,0.0,0.0,0.0,0.0,0.0,0.0,0.0,0.0,0.0,4.2086,4.2977,0.0,0.0,0.0,5.0564,5.0607,4.9805,4.9551,5.0035,5.0519,5.0219,5.0541,5.111,5.1872,5.1567,5.1559,5.2871,5.3472,5.4165,5.5206,5.5702,5.6487,5.7952,5.8177,5.7682,5.6362,5.7682,5.6752,5.1795,5.2855,5.2476,4.9308,4.9032,4.8986,4.8913,4.8913,4.8913,4.8913,4.8913,4.8913,4.8913,4.8913,4.9062,4.9445,4.9062,4.8913,4.8913,4.8913,4.8913,4.8913,4.8913,4.8913,4.8913,4.8913,4.8913,4.8913,4.8913,4.8913,4.8913,4.8913,4.8913,4.8913,0.0,0.0,0.0,0.0,0.0,0.0,0.0,0.0,0.0,0.0,0.0,0.0,0.0,0.0,0.0,2.9804,3.0105,0.0,0.0,3.1416,3.2014,3.2194,3.2788,3.309,3.309,3.309,3.309,3.309,3.309,3.309,3.3115,3.3183,3.3327,3.3499,3.3794,3.439,3.5177,3.5282,0.0,3.727,3.8051,3.8653,3.9218,0.0,0.0,0.0,0.0,0.0,0.0,0.0,0.0,0.0,0.0,0.0,0.0,4.4801,4.6779,4.8758,5.0048,5.0725,5.0823,4.9888,5.0397,5.089,5.0008,5.0332,5.091,5.1193,5.1186,5.1364,5.229,5.2939,5.3863,5.5417,5.6059,5.6773,5.7935,5.8351,5.8349,5.7854,5.6513,5.4851,5.299,5.2587,5.1462,4.9078,5.0015,5.0156,4.8986,4.8915,4.8895,4.8894,4.8913,4.8913,4.8913,4.9141,4.9219,4.9101,4.8991,4.8913,4.8913,4.8913,4.8913,4.8913,4.8913,4.8913,4.8913,4.8913,4.8913,4.8913,4.8913,4.8913,4.8913,4.8913,4.8913,4.8913,0.0,0.0,0.0,0.0,0.0,0.0,0.0,0.0,0.0,0.0,0.0,0.0,0.0,0.0,0.0,3.0331,3.0658,3.0939,3.1115,3.1792,3.229,3.2491,3.2889,3.309,3.309,3.309,3.309,3.309,3.309,3.309,3.3115,3.3204,3.3327,3.3524,3.4225,3.477,3.5209,0.0,0.0,3.7442,0.0,0.0,3.9819,0.0,0.0,0.0,0.0,0.0,0.0,0.0,0.0,0.0,0.0,0.0,0.0,0.0,4.8215,4.9281,4.9966,5.093,5.1498,5.0581,5.0924,5.1271,5.038,5.0425,5.076,5.119,5.1174,5.1436,5.2511,5.2928,5.3587,5.5002,5.5618,5.6218,5.7044,5.7457,5.7451,5.6999,5.5224,5.3702,5.2721,5.1913,5.0778,4.9032,5.006,5.0226,4.8986,4.8915,4.8875,4.8894,4.905,4.9082,4.9082,4.9375,4.9375,4.9082,4.8972,4.8913,4.8913,4.8913,4.8913,4.8913,4.8913,4.8913,4.8913,4.8913,4.8913,4.8913,4.8913,4.8913,4.8913,4.8913,4.8913,4.8913,0.0,0.0,0.0,0.0,0.0,0.0,0.0,0.0,0.0,0.0,0.0,0.0,0.0,0.0,0.0,3.1406,3.1411,3.1637,3.2169,3.2219,3.2491,3.3065,0.0,0.0,3.309,3.309,3.309,3.309,3.3115,3.3115,3.3115,3.338,3.3496,3.3546,3.4385,3.492,3.514,0.0,3.6041,3.7724,0.0,3.9082,3.99,0.0,0.0,0.0,4.4199,4.4946,0.0,0.0,0.0,0.0,0.0,0.0,0.0,0.0,0.0,4.9335,0.0,0.0,0.0,5.1709,5.1678,5.1632,5.147,5.0852,5.0693,5.1944,5.1634,5.1702,5.3507,5.3456,5.3346,5.3788,5.4281,5.4736,5.5251,5.5319,5.48,5.3407,5.3994,5.341,5.0616,5.0707,5.0362,4.8986,4.8894,4.8894,4.8913,4.8933,4.8952,4.8952,4.9336,4.9551,4.9484,4.9484,4.9484,4.9465,4.9109,4.8913,4.8913,4.8913,4.8913,4.8913,4.8913,4.8913,4.8913,4.8913,4.8913,4.8913,4.8913,4.8913,4.8913,4.8913,4.8913,4.8913,0.0,0.0,0.0,0.0,0.0,3.304,3.2889,3.2864,3.2813,0.0,0.0,0.0,0.0,0.0,0.0,3.1406,3.1763,3.2039,3.2194,3.2591,3.2939,3.309,3.309,3.309,3.309,3.309,3.309,3.309,3.347,3.347,3.3115,3.358,3.3787,3.3812,3.4241,3.503,3.6036,3.6077,0.0,3.9175,3.9728,4.0814,0.0,0.0,0.0,0.0,0.0,4.5062,0.0,0.0,4.4979,4.4563,0.0,0.0,0.0,0.0,0.0,0.0,4.9276,0.0,0.0,0.0,0.0,0.0,5.1564,5.157,5.1512,5.1558,5.1857,5.2123,5.2108,5.2409,5.2756,5.2885,5.386,5.4736,5.5251,5.5632,5.5464,5.4346,5.3524,5.2492,5.0934,4.9997,4.9308,4.894,4.8895,4.9039,4.9316,4.9648,4.9852,4.9852,5.0234,5.0156,4.9484,4.9844,4.9687,4.9043,4.8972,4.8913,4.8913,4.8913,4.8913,4.8913,4.8913,4.8913,4.8913,4.8913,4.8913,4.8913,4.8913,4.8913,4.8913,4.8913,4.8913,4.8913,0.0,0.0,3.309,3.309,3.309,3.309,3.309,3.309,3.309,0.0,0.0,0.0,0.0,0.0,0.0,0.0,3.2742,3.2997,3.3222,3.3571,3.3771,3.3771,3.3545,3.342,3.342,3.342,3.3316,3.309,3.3621,3.3746,3.3442,3.352,3.3796,3.4251,3.462,3.5528,3.6775,3.7333,0.0,0.0,4.0976,0.0,0.0,4.4488,4.5309,0.0,0.0,0.0,4.6047,4.6252,4.6168,0.0,0.0,0.0,0.0,0.0,0.0,0.0,0.0,0.0,5.0572,5.085,0.0,0.0,5.1297,5.1513,5.158,5.1133,5.1393,5.1666,5.164,5.1853,5.2108,5.2498,5.3108,5.364,5.4061,5.4215,5.4082,5.3487,5.2366,5.1425,5.1037,4.9862,4.9219,4.9441,4.9458,4.9537,4.9766,5.0039,5.0176,5.0176,5.041,5.0312,4.9805,4.9863,4.9746,4.9461,4.9219,4.9141,4.9141,4.9141,4.9089,4.8913,4.8913,4.8913,4.8913,4.8913,4.8913,4.8913,4.8913,4.8913,4.8913,4.8913,4.8913,4.8913,0.0,0.0,3.309,3.309,3.309,3.309,3.309,3.309,3.3115,0.0,0.0,0.0,0.0,0.0,0.0,0.0,3.3997,3.4198,3.4678,3.4703,3.4703,3.4703,3.4198,3.3922,3.3997,3.3872,3.3617,3.319,3.3671,3.3922,3.3972,3.3545,3.3947,3.5004,3.5481,3.6334,3.7563,3.8741,3.924,3.9429,4.1952,4.2833,0.0,0.0,4.5614,4.5844,4.6281,4.6873,4.7493,4.7495,4.7981,0.0,0.0,0.0,0.0,0.0,5.1146,5.0093,0.0,0.0,0.0,0.0,0.0,0.0,5.0963,5.1232,5.1481,5.1001,5.0967,5.1209,5.1958,5.1858,5.1908,5.2581,5.2339,5.221,5.2561,5.2265,5.1997,5.1829,5.0994,5.0569,5.0868,4.9986,4.9648,5.0137,5.0215,5.0254,5.0254,5.0293,5.0312,5.0312,5.0312,5.0273,5.0176,4.9785,4.9766,5.0098,4.9668,4.9473,4.9484,4.9426,4.9238,4.8913,4.8913,4.8913,4.8913,4.8913,4.8913,4.8913,4.8913,4.8913,4.8913,4.8913,4.8913,4.8913,3.309,3.309,3.309,3.309,3.309,3.309,3.309,3.309,3.3266,0.0,0.0,0.0,0.0,0.0,0.0,0.0,0.0,3.4577,3.4703,3.4703,3.4703,3.4703,3.4198,3.4098,3.4527,3.3696,3.3416,3.3746,3.3847,3.4123,3.4552,3.4879,3.5631,3.6709,3.681,3.7739,3.927,3.9941,4.0822,4.1811,4.2023,0.0,4.4404,4.5346,4.5863,4.6298,4.7121,4.6851,4.6079,0.0,4.6665,4.7566,0.0,0.0,0.0,0.0,0.0,0.0,0.0,0.0,0.0,0.0,0.0,0.0,5.1544,5.2603,5.3279,5.2261,5.3152,5.3845,5.2926,5.3382,5.3672,5.2755,5.254,5.2677,5.3202,5.3387,5.3119,5.2154,5.1715,5.1209,5.0431,4.9551,4.9363,5.0117,5.0488,5.0683,5.0683,5.0996,5.1191,5.1191,5.1191,5.0859,5.0243,5.0098,4.9922,4.9648,4.9199,4.918,4.9465,4.916,4.8991,4.8913,4.8913,4.8913,4.8913,4.8913,4.8913,4.8913,4.8913,4.8913,4.8913,4.8913,4.8913,4.8913,3.309,3.309,3.309,3.309,3.309,3.309,3.309,3.3341,3.3617,0.0,0.0,0.0,0.0,0.0,0.0,0.0,0.0,0.0,3.6332,3.6334,3.6334,3.6334,3.583,3.5554,3.5554,3.5024,3.4597,3.4276,3.4851,3.5301,3.5554,3.583,3.6835,3.8441,3.8165,3.8944,4.0549,4.1379,4.2142,4.2858,4.3392,0.0,4.5307,4.6058,4.6632,4.7034,4.7265,4.7079,4.6759,4.7081,4.7492,0.0,0.0,4.9809,5.018,0.0,5.1626,5.0845,0.0,0.0,0.0,5.001,0.0,0.0,0.0,5.1662,5.2136,5.1242,5.1729,5.2101,5.1445,5.201,5.2361,5.1573,5.1717,5.1969,5.2233,5.224,5.2042,5.1664,5.1067,5.067,5.0543,4.9957,4.993,5.0742,5.0996,5.1113,5.1113,5.126,5.1377,5.1377,5.123,5.0918,5.0488,5.0273,5.0176,5.0156,4.9941,4.9844,4.9844,4.9609,4.9324,4.8913,4.8913,4.8913,4.8913,4.8913,4.8913,4.8913,4.8913,4.8913,4.8913,4.8913,4.8913,4.8913,3.314,3.309,3.314,3.3241,3.3266,3.3291,3.3391,3.3771,3.4123,0.0,0.0,0.0,0.0,0.0,0.0,0.0,0.0,0.0,0.0,3.8266,3.8265,3.8191,3.7538,3.711,3.6908,3.6581,3.5954,3.5029,3.583,3.6331,3.6532,3.6532,3.7738,3.9848,3.9522,4.0167,4.1593,4.3025,4.3571,4.3561,0.0,4.5756,4.5769,4.6489,4.7065,4.7548,4.7225,4.7496,4.8052,4.8688,4.8767,4.8857,5.0711,5.1195,0.0,0.0,0.0,0.0,0.0,0.0,0.0,0.0,0.0,5.0933,0.0,0.0,0.0,5.0205,5.0157,5.0194,5.0268,5.0761,5.1075,5.0639,5.0886,5.1044,5.085,5.051,5.049,5.1009,5.0414,5.0233,5.091,5.063,5.0602,5.1113,5.1221,5.1299,5.1377,5.1377,5.1377,5.1377,5.1094,5.0879,5.0801,5.0469,5.0469,5.0801,5.0644,5.043,5.0176,5.0047,4.9578,4.8913,4.8913,4.8913,4.8913,4.8913,4.8913,4.8913,4.8913,4.8913,4.8913,4.8913,4.8913,4.8913,3.3291,3.309,3.3266,3.3721,3.3796,3.3972,3.4427,3.4577,3.4977,0.0,0.0,0.0,0.0,0.0,0.0,0.0,0.0,0.0,3.8818,0.0,0.0,3.8818,3.7763,3.7637,3.8592,3.7159,3.6331,3.6207,3.5807,3.6108,3.711,3.711,3.8291,4.0424,4.0851,4.1463,4.2369,4.4858,4.5406,0.0,4.6854,4.6871,0.0,4.5785,4.6372,4.7121,4.7479,4.8148,4.8965,0.0,4.8873,4.8599,0.0,5.164,4.9884,0.0,0.0,0.0,0.0,0.0,0.0,0.0,5.165,0.0,0.0,0.0,5.1655,5.1572,0.0,5.2341,5.2375,0.0,0.0,5.1736,5.1172,5.0732,5.0346,4.98,4.9825,5.0902,5.1174,5.1313,5.1337,5.1184,5.0859,5.0357,5.0664,5.1035,5.1358,5.1377,5.1377,5.1377,5.1338,5.1172,5.0801,5.0762,5.0762,5.0801,5.0039,4.9844,5.0156,4.9402,4.8991,4.8913,4.8913,4.8913,4.8913,4.8913,4.8913,4.8913,4.8913,4.8913,4.8913,4.8913,4.8913,4.8913,3.3822,3.3796,3.4098,3.4301,3.4352,3.4427,3.4678,3.5529,3.6659,0.0,0.0,0.0,0.0,0.0,0.0,0.0,0.0,4.0366,0.0,0.0,0.0,4.0035,3.9728,3.9672,3.9823,3.8843,3.8165,3.7864,3.7588,3.7889,3.8642,3.8969,4.0124,4.1957,4.2183,4.2926,4.411,4.5341,4.574,0.0,0.0,4.7066,0.0,4.6439,4.718,4.831,4.939,4.9629,4.9473,0.0,5.0298,0.0,0.0,0.0,0.0,0.0,0.0,0.0,0.0,0.0,0.0,0.0,0.0,0.0,5.1523,0.0,5.0767,0.0,0.0,0.0,0.0,0.0,0.0,0.0,5.0224,4.9945,4.8992,4.8631,4.9068,5.0625,5.0718,5.0671,5.081,5.1209,5.1283,5.0859,5.073,5.0874,5.1316,5.0933,5.082,5.1055,5.1074,5.0859,5.0449,5.0918,5.1035,5.0801,5.0449,5.0234,5.0156,4.9531,4.9101,4.8913,4.8913,4.8913,4.8913,4.8913,4.8913,4.8913,4.8913,4.8913,4.8913,4.8913,4.8913,4.8913,3.4899,0.0,3.4929,3.4929,3.4929,3.5079,3.5531,3.6946,3.8458,0.0,0.0,0.0,4.1442,4.1431,0.0,0.0,0.0,4.1933,0.0,0.0,4.2214,0.0,4.1625,0.0,0.0,4.0563,3.9873,3.9346,3.9346,3.9472,3.9697,4.0249,4.1329,4.2788,4.309,4.4038,4.5421,4.6114,4.6385,4.637,4.7377,4.7686,4.7563,4.7448,4.8123,4.9338,5.0477,5.0546,5.0184,5.0674,5.1295,0.0,5.1113,5.1793,5.2964,0.0,0.0,0.0,5.4445,0.0,0.0,0.0,0.0,0.0,0.0,0.0,0.0,0.0,0.0,0.0,0.0,0.0,0.0,0.0,0.0,4.907,0.0,4.7767,0.0,4.9727,4.9798,4.9843,5.03,5.0786,5.1043,5.0969,5.0741,5.0809,5.1281,5.0723,5.0547,5.0957,5.0859,5.0723,5.0527,5.1133,5.123,5.0801,5.0683,5.0469,5.0156,4.9726,4.9355,4.9043,4.9043,4.9011,4.8913,4.8913,4.8913,4.8913,4.8913,4.8913,4.8913,4.8913,4.8913,4.8913,3.6532,3.5855,3.5483,3.5483,3.5483,3.6009,3.7663,3.904,4.0101,0.0,0.0,0.0,0.0,0.0,0.0,0.0,0.0,4.4324,4.3736,0.0,4.4528,0.0,0.0,4.2601,0.0,4.2069,4.1001,4.0449,4.0449,4.0199,3.9697,4.0249,4.1103,4.2288,4.3288,4.4442,4.5733,4.7825,4.7836,4.6653,4.8606,4.9282,4.8963,0.0,4.8904,4.9678,4.9816,0.0,0.0,5.2149,5.1334,5.0502,5.3374,0.0,0.0,0.0,0.0,0.0,0.0,0.0,0.0,5.5407,0.0,0.0,0.0,0.0,5.0715,0.0,0.0,0.0,0.0,0.0,0.0,0.0,0.0,0.0,0.0,0.0,0.0,0.0,0.0,0.0,5.0118,4.9919,4.9853,5.0115,5.0414,5.0809,5.1281,5.0954,5.0976,5.1358,5.1016,5.0996,5.1338,5.1377,5.123,5.0801,5.0391,5.0195,5.0156,4.9726,4.9465,4.9465,4.9465,4.9258,4.8913,4.8913,4.8913,4.8913,4.8913,4.8913,4.8913,4.8913,4.8913,4.8913,3.8216,3.7889,3.7513,3.6759,3.6634,3.7186,3.8868,4.0454,4.1622,0.0,0.0,0.0,0.0,4.3792,4.4075,0.0,0.0,4.4506,4.4634,4.4458,0.0,0.0,0.0,4.3365,0.0,0.0,4.2364,4.2133,4.1808,4.1532,4.1356,4.1882,4.2534,4.3316,4.4418,4.5521,4.6574,4.699,4.7417,0.0,4.8949,4.9475,4.9652,0.0,5.0294,5.1142,5.1462,5.1568,5.1678,5.2394,5.2334,5.2008,5.2272,5.2223,5.2269,5.297,5.2621,5.2415,5.4402,5.3808,5.2902,5.4105,0.0,0.0,0.0,0.0,0.0,0.0,0.0,0.0,0.0,0.0,0.0,0.0,0.0,0.0,0.0,0.0,0.0,0.0,0.0,0.0,0.0,0.0,5.0094,5.046,5.0377,5.0593,5.1138,5.0601,5.0509,5.0996,5.0858,5.0742,5.0605,5.1152,5.1074,5.0391,5.0527,5.0449,5.0156,4.9726,4.9484,4.9512,4.9219,4.905,4.8913,4.8913,4.8913,4.8913,4.8913,4.8913,4.8913,4.8913,4.8913,4.8913,3.9314,3.9346,3.907,3.7713,3.7965,3.8816,4.0158,4.1611,0.0,0.0,4.4212,0.0,4.4431,0.0,4.4834,0.0,4.4959,4.4982,4.5501,4.5118,0.0,4.5136,4.4454,0.0,0.0,0.0,0.0,4.3314,4.3162,4.2843,4.2506,4.3219,4.374,4.4141,4.507,4.6198,4.7295,4.6797,4.7355,4.8587,4.9086,4.9696,5.0357,0.0,5.1099,5.1622,0.0,5.2081,5.191,5.262,5.275,5.2498,5.189,5.2261,5.2899,5.2628,5.2559,5.2848,5.4255,5.3651,5.2894,5.3889,5.3338,0.0,5.2748,0.0,5.2567,0.0,0.0,0.0,0.0,0.0,0.0,0.0,0.0,0.0,0.0,4.5211,0.0,0.0,0.0,0.0,0.0,0.0,0.0,5.0246,5.022,5.0405,5.0972,5.0507,5.0452,5.0984,5.0853,5.0683,5.041,5.0937,5.0859,5.0176,5.0449,5.0449,5.0176,4.9883,4.9668,4.9512,4.9219,4.905,4.8913,4.8913,4.8913,4.8913,4.8913,4.8913,4.8913,4.8913,4.8913,4.8913,3.9937,4.0224,4.0099,3.8567,3.9569,4.0809,4.1479,0.0,4.354,0.0,4.4658,4.503,4.5114,4.5448,4.572,4.5828,4.5756,0.0,4.6398,4.6356,0.0,0.0,4.6046,4.5725,4.6177,0.0,0.0,0.0,4.4391,4.4051,4.3057,4.4144,4.464,4.4665,4.5271,4.6426,4.7864,4.7282,4.7663,4.8784,4.9266,5.0099,5.1126,5.1422,5.1359,5.1215,5.1708,5.1885,5.2035,5.2992,5.2678,5.1975,5.2421,5.2549,5.2461,5.2018,5.22,5.27,5.3428,5.3278,5.3201,5.4573,5.4146,5.3156,0.0,0.0,5.1097,0.0,0.0,0.0,0.0,0.0,0.0,0.0,0.0,0.0,0.0,0.0,0.0,0.0,0.0,0.0,0.0,0.0,0.0,0.0,4.9886,5.033,5.0869,5.0761,5.0864,5.1277,5.1055,5.0847,5.0781,5.0829,5.0614,5.0156,5.0195,5.0195,5.0176,5.0156,4.9922,4.9484,4.9465,4.9258,4.8913,4.8913,4.8913,4.8913,4.8913,4.8913,4.8933,4.8913,4.8913,4.8913,4.0958,4.1354,4.1884,4.2233,4.2033,4.2049,0.0,0.0,0.0,0.0,4.5154,4.5794,4.6407,4.6577,4.6986,4.7794,4.7469,0.0,0.0,0.0,0.0,4.6988,4.6124,4.5847,4.628,4.5375,0.0,4.4561,0.0,4.4405,4.3774,4.4769,4.5271,4.5296,4.5849,4.6778,4.7864,4.7282,4.7828,4.931,5.0889,5.1456,5.1443,5.2503,5.2585,5.2263,5.3077,5.335,5.3504,5.452,5.3948,5.2934,5.3396,5.3305,5.3015,5.2881,5.29,5.2964,5.2881,5.271,5.2523,5.2238,5.2663,5.3095,5.2517,5.3077,0.0,0.0,0.0,0.0,0.0,0.0,0.0,0.0,0.0,0.0,0.0,0.0,0.0,0.0,0.0,0.0,0.0,0.0,0.0,0.0,4.9802,5.0273,5.1012,5.1282,5.1376,5.1367,5.194,5.1652,5.0379,5.1354,5.1135,4.9707,5.0332,5.0488,5.0176,4.9844,4.9629,4.9465,4.918,4.9011,4.8913,4.8913,4.8913,4.8913,4.8913,4.9062,4.9316,4.9031,4.8913,4.8952,4.2429,4.266,4.3266,4.4342,4.4078,4.3656,4.3557,4.4045,0.0,4.4866,4.5496,0.0,4.6386,4.6611,4.689,4.7289,4.7664,0.0,4.7975,0.0,0.0,4.734,4.7048,4.6908,4.6946,4.6247,0.0,4.5182,0.0,4.5095,4.4371,4.5367,4.5849,4.5874,4.6396,4.7435,4.8793,4.9056,4.96,5.0314,5.1665,5.2223,0.0,5.3348,5.3752,5.3865,5.4599,5.4472,5.4055,5.5313,5.5005,5.4192,5.4432,5.4365,5.4076,5.3632,5.3498,5.3409,5.2961,5.2954,5.2948,5.2222,5.2619,5.3036,5.2321,5.2629,5.2948,0.0,5.1672,5.0793,0.0,0.0,0.0,0.0,0.0,0.0,0.0,0.0,0.0,0.0,0.0,0.0,0.0,0.0,0.0,0.0,4.8902,4.9616,5.0532,5.0894,5.1227,5.153,5.2189,5.2051,5.1052,5.1849,5.15,5.0099,5.0775,5.0664,4.9902,4.9844,4.9609,4.9219,4.9011,4.8913,4.8913,4.8913,4.8913,4.8913,4.9082,4.9414,4.9785,4.9531,4.948,4.9519,4.4057,4.4016,4.436,4.5405,4.5625,4.5313,0.0,4.4672,0.0,4.5086,0.0,4.6164,4.6053,4.6344,4.6547,4.6445,0.0,4.8044,4.7578,4.8751,4.8992,4.8004,4.8313,4.8296,4.7873,4.7303,0.0,0.0,0.0,4.5935,4.5051,4.6039,4.6527,4.6527,4.6998,4.8185,4.991,5.156,5.197,5.1556,5.2079,5.2671,5.3334,5.4068,5.4752,5.5463,5.6021,5.5313,5.4387,5.5753,5.5834,5.5411,5.5487,5.5489,5.5313,5.4365,5.4099,5.3966,5.3453,5.366,5.3911,5.3412,5.3275,5.31,5.2378,5.1806,5.1473,5.1384,5.0785,5.0429,5.0974,0.0,0.0,0.0,0.0,0.0,0.0,0.0,0.0,0.0,0.0,0.0,0.0,0.0,0.0,0.0,4.7835,4.8766,4.9875,5.0178,5.0781,5.1713,5.206,5.2149,5.1998,5.2204,5.1801,5.0823,5.1179,5.0669,4.9484,4.9863,4.9637,4.8913,4.8913,4.8933,4.8991,4.8991,4.9031,4.9109,4.9453,4.9883,5.0254,5.0254,5.0293,5.0332,4.5085,4.5196,4.541,4.606,4.6242,4.6128,4.5491,4.5496,4.5535,4.5556,4.5704,4.6318,4.769,4.7913,4.8572,5.0086,5.0113,0.0,0.0,0.0,0.0,4.9383,4.913,4.8771,4.8287,4.7457,4.6732,0.0,0.0,4.67,4.6229,4.7158,4.7631,4.7631,4.7732,4.8353,4.9523,5.2354,5.2934,5.2037,5.2827,5.3298,5.359,5.4677,5.5201,5.5442,5.6349,5.6235,5.5841,5.644,5.6349,5.5968,5.5971,5.5993,5.5862,5.5313,5.5137,5.4961,5.4032,5.4154,5.4429,5.3911,5.3775,5.386,5.4132,5.379,5.3294,5.2908,5.2692,5.221,5.0779,0.0,0.0,0.0,0.0,0.0,0.0,0.0,0.0,0.0,0.0,0.0,0.0,0.0,0.0,0.0,4.7835,4.8834,5.0005,5.04,5.0995,5.1853,5.2317,5.2237,5.1529,5.2013,5.1651,5.0299,5.037,5.0112,4.9465,4.9219,4.905,4.8913,4.8913,4.9062,4.9414,4.9414,4.9629,5.0008,5.0039,5.0332,5.0703,5.0703,5.0918,5.1172,4.6198,0.0,0.0,0.0,0.0,0.0,0.0,4.7158,4.7102,4.6131,4.6436,4.7063,4.7896,4.8373,4.9018,4.9967,5.0794,5.1131,5.0789,5.1335,5.1316,5.0485,5.0443,0.0,4.9917,4.8943,4.8001,4.709,0.0,4.7112,4.6536,4.7442,4.7908,4.7927,4.9146,5.0006,5.069,5.267,5.313,5.2532,5.3356,5.3951,5.4566,5.5916,5.6584,5.6863,5.7601,5.7697,5.747,5.7245,5.6851,5.6473,5.6473,5.6473,5.6386,5.5906,5.5752,5.5577,5.4873,5.5046,5.5283,5.4768,5.4453,5.4358,5.4572,5.4262,5.3865,5.3593,5.3556,5.3065,5.1457,5.0766,0.0,0.0,0.0,0.0,0.0,0.0,0.0,0.0,0.0,0.0,0.0,0.0,0.0,4.6429,4.7337,4.8516,4.9928,5.0006,5.052,5.1749,5.2118,5.2109,5.1761,5.21,5.1626,5.025,5.0443,5.0097,4.918,4.948,4.9414,4.9219,4.95,4.9668,4.9863,4.9863,5.0117,5.0508,5.0508,5.0762,5.1133,5.1133,5.1201,5.1358,0.0,4.7005,0.0,0.0,4.8217,4.8341,4.7842,4.8641,4.8647,4.6965,4.7464,4.8067,4.8233,4.8877,4.9518,5.0117,5.1421,5.2078,5.1691,5.2389,5.2458,5.1699,5.1744,5.1612,5.1291,5.0464,4.9469,0.0,0.0,4.7806,4.6958,4.7955,4.8469,4.8635,5.0721,5.1656,5.1755,5.2999,5.3355,5.3082,5.379,5.4611,5.5606,5.6923,5.7748,5.8238,5.8629,5.8804,5.8709,5.8145,5.7605,5.7233,5.7131,5.7153,5.7176,5.6722,5.657,5.6482,5.602,5.6199,5.6487,5.6017,5.5613,5.5321,5.5381,5.4935,5.4489,5.4415,5.4214,5.3654,5.2279,5.1852,0.0,0.0,0.0,0.0,0.0,0.0,0.0,0.0,0.0,0.0,0.0,0.0,0.0,4.6238,4.7136,4.8242,4.9568,4.9507,5.0131,5.1669,5.1851,5.2045,5.2196,5.2252,5.1655,5.0424,5.0621,5.0214,4.9206,4.9766,4.9902,4.964,4.9925,5.0072,5.017,5.0267,5.0549,5.0937,5.0937,5.1133,5.1377,5.1377,5.1377,5.1377,4.6274,0.0,0.0,0.0,0.0,4.8325,4.7764,4.8911,4.944,4.8354,4.8645,4.927,5.0049,5.0217,5.1259,5.3697,5.3427,5.3826,5.5621,5.4115,5.3251,5.3453,5.2396,5.1595,5.1146,5.1032,5.0535,0.0,0.0,4.9239,4.8327,4.9534,5.0302,5.077,5.2134,5.2178,5.1393,5.368,5.4339,5.3831,5.4363,5.5135,5.6132,5.7106,5.7773,5.8158,5.8632,5.8799,5.8865,5.9273,5.9046,5.857,5.8149,5.8353,5.862,5.8222,5.8093,5.8004,5.7514,5.7761,5.8096,5.8051,5.7625,5.7334,5.7834,5.721,5.6432,5.5978,5.5212,5.4168,5.2715,5.2955,5.2731,0.0,0.0,0.0,0.0,0.0,0.0,0.0,0.0,0.0,0.0,4.6484,0.0,4.7306,4.7906,4.8362,4.8717,4.9451,5.0466,5.1764,5.1769,5.1978,5.2542,5.2252,5.1647,5.0738,5.0417,5.0185,5.0039,4.9726,4.9785,5.0117,4.9682,4.9703,5.0041,5.0474,5.094,5.1319,5.1319,5.1358,5.1377,5.1377,5.1377,5.1377,4.7448,4.7743,4.807,4.855,4.9013,4.9386,4.9439,5.0367,5.1014,5.0868,5.0528,5.0527,5.1141,5.1485,5.2318,5.393,5.4069,5.4387,5.5228,5.4765,5.4417,5.423,5.4078,5.356,5.2804,5.2521,5.1803,0.0,0.0,5.0119,4.9517,5.0357,5.1082,5.1724,5.211,5.2365,5.2606,5.3775,5.4251,5.4372,5.4859,5.5497,5.6172,5.7385,5.7973,5.8263,5.9641,6.0143,6.0172,6.0418,5.9581,5.8562,5.9291,5.9453,5.9345,5.9202,5.9116,5.9028,5.854,5.8388,5.8457,5.8993,5.8343,5.7761,5.8526,5.7962,5.7213,5.7046,5.6188,5.5158,5.3981,5.3538,5.3096,5.2218,0.0,0.0,0.0,0.0,0.0,0.0,0.0,0.0,0.0,0.0,0.0,0.0,4.8247,0.0,0.0,0.0,5.0452,5.1334,5.1669,5.1724,5.1499,5.1391,5.0873,5.0039,4.9885,4.976,4.9805,5.0137,5.0527,5.0889,5.0388,5.0436,5.0852,5.1027,5.1231,5.1377,5.1377,5.1377,5.1377,5.1377,5.1377,5.1377,4.8288,4.8532,4.8919,4.9678,5.0074,5.0512,5.1227,5.1698,5.2239,5.2799,5.2455,5.2197,5.2388,5.2842,5.3532,5.4599,5.4862,5.5224,5.5698,5.5605,5.5362,5.5009,5.5221,0.0,5.3899,5.3767,5.3104,5.1934,5.1502,5.109,5.067,5.0934,5.1558,5.2529,5.2195,5.2622,5.3546,5.3925,5.4398,5.4896,5.5371,5.5877,5.6395,5.763,5.8287,5.8757,6.0391,6.112,6.1259,6.1485,6.052,5.9389,6.0356,6.0517,6.0297,6.0328,6.0331,6.0287,5.9932,5.9621,5.9487,6.0021,5.9284,5.8546,5.9108,5.8481,5.766,5.7164,5.6638,5.58,5.4523,5.3774,5.325,5.2885,0.0,0.0,0.0,0.0,0.0,0.0,0.0,0.0,4.9236,0.0,0.0,0.0,0.0,0.0,0.0,0.0,0.0,0.0,0.0,0.0,5.1309,5.1201,5.0748,4.9902,4.9785,4.9785,4.9922,5.0664,5.1056,5.1183,5.0842,5.089,5.1183,5.1183,5.128,5.1377,5.1377,5.1377,5.1377,5.1377,5.1377,5.1377,4.8211,4.8792,4.9501,5.0875,5.1087,5.1548,5.2871,5.2733,5.2778,5.3694,5.4242,5.4385,5.3941,5.4302,5.5108,5.6434,5.6221,5.669,5.8338,5.6916,5.595,5.587,5.5564,5.4917,5.3943,5.435,5.4362,5.3877,0.0,5.2266,5.1785,5.1331,5.1914,5.3364,5.2789,5.3024,5.3898,5.438,5.4921,5.5455,5.5908,5.6361,5.6886,5.7825,5.8771,5.9707,6.0636,6.1326,6.1879,6.2408,6.2202,6.1672,6.1299,6.1475,6.179,6.1846,6.1853,6.1853,6.1876,6.1853,6.1763,6.1314,6.0762,6.0238,5.9795,5.8931,5.7791,5.6221,5.6315,5.6055,5.4001,5.364,5.3316,5.22,5.2122,0.0,0.0,0.0,0.0,0.0,5.0538,5.0378,5.1086,5.0048,0.0,0.0,0.0,0.0,0.0,0.0,0.0,5.1771,5.2627,0.0,5.2563,5.2173,5.1559,5.0781,5.0371,5.0391,5.0801,5.123,5.1134,5.0695,5.0695,5.0695,5.0695,5.0695,5.0988,5.1377,5.1377,5.1377,5.1377,5.1377,5.1377,5.1377,5.1198,5.1117,5.1186,5.1826,5.1981,5.2318,5.3148,5.3342,5.38,5.4736,5.5329,5.5702,5.5849,5.574,5.6042,5.705,5.6994,5.7118,5.7708,5.7503,5.6971,5.6085,5.6789,5.6536,5.5225,5.5332,5.5166,5.4737,5.3651,5.3032,5.291,5.2758,5.3205,5.4192,5.4024,5.4448,5.5337,5.5539,5.5714,5.5889,5.6028,5.6394,5.6888,5.7842,5.857,5.9327,6.0962,6.1677,6.1947,6.2781,6.2949,6.2817,6.2684,6.2507,6.2354,6.2386,6.2389,6.2389,6.2389,6.2145,6.2011,6.2502,6.178,6.0992,6.1155,5.9931,5.8307,5.6731,5.6055,5.553,5.4766,5.3853,5.3311,5.3607,5.2827,5.2027,5.1453,0.0,0.0,0.0,5.0861,5.0869,0.0,5.0669,0.0,0.0,0.0,0.0,0.0,0.0,0.0,0.0,5.2046,0.0,5.1765,5.1639,5.132,5.0801,5.0664,5.082,5.1182,5.1027,5.1037,5.1134,5.0842,5.089,5.1183,5.1183,5.128,5.1377,5.1377,5.1377,5.1377,5.1377,5.1377,5.1377,5.2536,5.2066,5.1799,5.2477,5.2557,5.2916,5.4084,5.4346,5.4873,5.5963,5.6251,5.6541,5.7027,5.7137,5.7263,5.7642,5.779,5.7829,5.7682,5.7918,5.753,5.6429,5.711,5.7138,5.622,5.6017,5.5763,5.5492,5.457,5.4089,5.4111,5.4283,5.4564,5.487,5.487,5.5298,5.6021,5.5874,5.6049,5.635,5.6348,5.6776,5.7425,5.8204,5.9051,5.9949,6.1328,6.2048,6.2449,6.3093,6.3301,6.3346,6.3498,6.3233,6.2879,6.2879,6.2879,6.2701,6.1963,6.156,6.1245,6.0883,6.0159,5.9498,5.9407,5.8603,5.7418,5.5851,5.5228,5.4738,5.4082,5.3361,5.3044,5.3494,5.2864,5.2243,5.1803,0.0,5.1721,0.0,0.0,0.0,0.0,5.1207,5.1206,0.0,0.0,0.0,0.0,0.0,5.1932,5.1545,5.1983,5.1957,5.1407,5.1398,5.1218,5.0801,5.0764,5.0785,5.0861,5.0744,5.0842,5.1134,5.0988,5.1134,5.1377,5.1377,5.1377,5.1377,5.1377,5.1377,5.1377,5.1377,5.1377,5.1377,5.2425,5.1867,5.1712,5.296,5.2858,5.3321,5.5532,5.5664,5.5946,5.7214,5.7091,5.7093,5.7591,5.8469,5.8805,5.834,5.8698,5.876,5.8294,5.8247,5.7817,5.6889,5.688,5.6843,5.6797,5.6354,5.6086,5.6013,5.555,5.5319,5.5319,5.5719,5.5744,5.5365,5.5408,5.5686,5.6173,5.5649,5.6001,5.6907,5.6885,5.7469,5.8387,5.8909,5.9967,6.1263,6.1756,6.2502,6.3257,6.3346,6.3346,6.3434,6.3895,6.3763,6.339,6.339,6.3346,6.2923,6.1109,6.0522,5.9863,5.7544,5.68,5.6447,5.5503,5.5598,5.5509,5.3972,5.3936,5.379,5.2444,5.2422,5.2519,5.2226,5.2441,5.2549,5.2208,5.2436,5.2565,5.208,5.1966,5.1911,5.1998,5.1601,5.1309,0.0,0.0,0.0,0.0,0.0,5.2254,5.1874,5.2218,5.2093,5.142,5.1355,5.1134,5.0763,5.0716,5.0421,4.9931,5.047,5.0695,5.0744,5.1183,5.1377,5.1377,5.1377,5.1377,5.1377,5.1377,5.1377,5.1377,5.1377,5.1377,5.1377,5.2671,5.2888,5.3423,5.393,5.3777,5.4252,5.6264,5.6508,5.684,5.7926,5.7997,5.8244,5.9064,5.9701,6.0134,6.0364,6.0391,6.0234,5.9883,5.9747,5.9018,5.7409,5.7572,5.7383,5.6678,5.6501,5.6109,5.5493,5.5355,5.5309,5.5309,5.5417,5.56,5.5858,5.6273,5.6747,5.7228,5.7096,5.7416,5.7939,5.794,5.8299,5.8909,5.9763,6.0533,6.1309,6.2119,6.2567,6.2879,6.3586,6.3851,6.3939,6.4396,6.444,6.4353,6.4353,6.3851,6.3277,6.3165,6.1782,6.025,5.9681,5.8099,5.6541,5.5927,5.5598,5.5177,5.4291,5.3693,5.3261,5.3121,5.2324,5.2031,5.296,5.2598,5.2325,5.2532,5.2649,5.2653,5.2467,5.2161,5.1961,5.1984,5.1624,5.1509,0.0,0.0,5.2044,5.1861,5.201,5.1919,5.1523,5.1023,5.0956,5.1423,5.1107,5.0692,5.0103,5.0491,5.0402,4.9912,5.0451,5.089,5.1231,5.1328,5.1377,5.1377,5.1377,5.1377,5.1377,5.1377,5.1377,5.1377,5.1377,5.1377,5.1377,5.2326,5.2201,5.2632,5.3882,5.3808,5.4349,5.6753,5.6709,5.7022,5.8739,5.8362,5.852,6.0214,6.081,6.1255,6.1756,6.1499,6.1145,6.0762,6.0458,5.9773,5.8549,5.8273,5.8002,5.7695,5.7411,5.7043,5.6637,5.6394,5.6326,5.632,5.654,5.69,5.7376,5.746,5.7776,5.8208,5.7758,5.7962,5.8616,5.8615,5.9202,6.0064,6.0559,6.1215,6.1897,6.2434,6.2745,6.3012,6.3498,6.3807,6.407,6.4527,6.4702,6.4789,6.5223,6.4508,6.3454,6.2564,6.0725,5.856,5.6753,5.5957,5.5367,5.4176,5.3671,5.3349,5.3012,5.292,5.2856,5.2825,5.2695,5.2773,5.3331,5.3153,5.2972,5.2968,5.3103,5.3113,5.2703,5.2595,5.2515,5.2341,5.1939,5.1893,5.2319,5.2314,5.225,5.2033,5.2034,5.1824,5.1387,5.0996,5.0879,5.1133,5.0872,5.0318,4.952,4.9757,4.951,4.883,4.9618,5.0225,5.0763,5.1183,5.1377,5.1377,5.1377,5.1377,5.1377,5.1377,5.1377,5.1377,5.1377,5.1377,5.1377,5.1511,5.1234,5.1683,5.3755,5.3795,5.4454,5.7188,5.6877,5.7109,5.9279,5.8701,5.895,6.1148,6.1749,6.2092,6.2253,6.2134,6.185,6.1371,6.0867,6.0382,5.9828,5.8965,5.8635,5.8999,5.8612,5.8451,5.843,5.7953,5.7732,5.7716,5.812,5.8594,5.9112,5.8774,5.8797,5.9045,5.8345,5.8526,5.9339,5.9339,6.0132,6.1292,6.1382,6.1897,6.2612,6.2701,6.2967,6.3301,6.339,6.3675,6.4114,6.4615,6.4789,6.4963,6.5767,6.5118,6.365,6.1603,5.9476,5.6893,5.2884,5.3152,5.3849,5.1843,5.1377,5.1397,5.1475,5.2109,5.2539,5.2324,5.3125,5.3722,5.3445,5.3665,5.3752,5.3343,5.352,5.3478,5.276,5.2895,5.2907,5.2551,5.2187,5.2168,5.2578,5.2567,5.2396,5.211,5.1965,5.1765,5.1387,5.126,5.1045,5.0657,5.0581,5.0059,4.8996,4.8883,4.8366,4.7659,4.8651,4.944,5.0078,5.089,5.1328,5.1377,5.1377,5.1377,5.1377,5.1377,5.1377,5.1377,5.1377,5.1377,5.1377,5.0112,5.2389,5.4652,5.503,5.5033,5.5685,5.778,5.796,5.8141,5.8931,6.0292,6.1507,6.2315,6.2449,6.2027,6.0838,6.2179,6.2885,6.2418,6.1953,6.1275,6.0342,5.9761,5.9309,5.9033,5.9295,5.9469,5.949,5.9003,5.8782,5.8785,5.8854,5.9121,5.9631,5.9936,5.9898,5.9607,5.9929,6.0361,6.086,6.086,6.1222,6.1831,6.2211,6.2478,6.2656,6.3056,6.3257,6.339,6.3763,6.3939,6.4158,6.5031,6.5292,6.5292,6.5465,6.5075,6.4527,6.4109,6.205,5.8973,5.4921,5.4182,5.3849,5.1843,5.1377,5.1494,5.1914,5.209,5.2383,5.3097,5.3027,5.3004,5.3366,5.342,5.338,5.3318,5.3044,5.2817,5.2703,5.2111,5.1697,5.1601,5.1582,5.1719,5.2148,5.1825,5.1756,5.21,5.1708,5.1453,5.1426,5.0742,5.0317,5.0108,5.0045,4.952,4.8434,4.839,4.8291,4.8187,4.8848,4.9618,5.0598,5.0744,5.1037,5.1377,5.1377,5.1377,5.1377,5.1377,5.1377,5.1377,5.1377,5.1377,5.1377,5.0024,5.1317,5.2899,5.3918,5.4099,5.4757,5.6732,5.7259,5.7463,5.7683,5.872,5.9567,5.9772,5.9818,5.9544,5.8835,6.0612,6.1626,6.1447,6.1987,6.2072,6.1613,6.1388,6.1286,6.1252,6.1228,6.1086,6.0802,6.0346,6.016,6.0152,6.0152,6.0557,6.1236,6.1205,6.1367,6.1634,6.1355,6.1517,6.1942,6.1697,6.1876,6.23,6.2523,6.2745,6.3012,6.3213,6.3301,6.3346,6.3542,6.3983,6.444,6.4901,6.5378,6.5767,6.5767,6.5292,6.4328,6.2807,6.2541,6.1377,5.5795,5.5372,5.5513,5.2181,5.1377,5.1436,5.1699,5.1914,5.2207,5.2647,5.2891,5.3129,5.3361,5.3369,5.3296,5.3303,5.2971,5.2724,5.2724,5.2351,5.2109,5.2109,5.1914,5.1953,5.2383,5.2031,5.1875,5.207,5.1894,5.1533,5.1056,5.0668,5.002,4.9072,4.9327,4.9076,4.8286,4.7988,4.7858,4.7907,4.8434,4.9224,5.0274,5.0549,5.0939,5.1377,5.1377,5.1377,5.1377,5.1377,5.1377,5.1377,5.1377,5.1377,5.1377,5.0332,5.0771,5.1621,5.3127,5.3405,5.3906,5.5393,5.5932,5.6166,5.6166,5.6893,5.7405,5.7405,5.7405,5.7219,5.6753,5.8973,6.0204,5.9726,6.1716,6.2879,6.279,6.2879,6.3173,6.3722,6.3133,6.2678,6.2336,6.1728,6.1462,6.1555,6.1555,6.1966,6.2745,6.2502,6.2725,6.3257,6.268,6.2523,6.2745,6.2368,6.2457,6.2745,6.2745,6.2967,6.3301,6.3301,6.3301,6.3346,6.3434,6.3939,6.4571,6.4789,6.5378,6.5853,6.5397,6.4347,6.3049,6.1759,6.294,6.3049,5.6803,5.671,5.6921,5.2403,5.1377,5.1416,5.1562,5.1855,5.2148,5.2344,5.2832,5.3295,5.3399,5.3298,5.3165,5.3173,5.2816,5.2538,5.2545,5.2468,5.2422,5.2422,5.2129,5.2109,5.2539,5.2168,5.1973,5.207,5.1894,5.1287,5.0176,5.0255,4.9667,4.8335,4.8583,4.8583,4.8286,4.7758,4.7577,4.7708,4.8088,4.883,4.9735,5.0274,5.0812,5.1231,5.1328,5.1377,5.1377,5.1377,5.1377,5.1377,5.1377,5.1377,5.1377,5.0762,5.255,5.4147,5.4263,5.4284,5.4331,5.4515,5.4563,5.4563,5.4563,5.6239,5.7405,5.7405,5.7405,5.666,5.4779,5.8145,5.959,5.7729,6.1535,6.3719,6.3257,6.3675,6.4309,6.5242,6.4347,6.3841,6.3861,6.2936,6.2472,6.2496,6.2496,6.2766,6.3257,6.3675,6.3631,6.3346,6.3675,6.3631,6.3257,6.3213,6.3213,6.3257,6.3257,6.3257,6.3301,6.3301,6.3301,6.339,6.3807,6.3983,6.4202,6.5075,6.5378,6.5093,6.329,6.1106,5.9999,6.347,6.4221,6.3052,5.8882,5.794,5.6921,5.2403,5.1377,5.1543,5.1953,5.2051,5.2324,5.3175,5.2988,5.2896,5.3351,5.3046,5.2722,5.2708,5.2343,5.2072,5.2129,5.1748,5.1475,5.1475,5.1455,5.166,5.209,5.1719,5.166,5.2051,5.1259,5.0097,4.8533,4.8978,4.8928,4.8286,4.7839,4.7839,4.8286,4.7758,4.7758,4.8236,4.8286,4.8632,4.9194,4.9735,5.0274,5.0793,5.1231,5.1377,5.1377,5.1377,5.1377,5.1377,5.1377,5.1377,5.1377,5.1191,5.1937,5.2547,5.2547,5.2547,5.2547,5.2547,5.3583,5.3944,5.2692,5.4278,5.5063,5.3822,5.48,5.5204,5.4468,5.8353,6.0521,5.9727,6.265,6.4484,6.4596,6.477,6.5161,6.581,6.5205,6.4726,6.444,6.3807,6.3322,6.3012,6.3012,6.3277,6.3719,6.3939,6.4246,6.4596,6.4484,6.4508,6.4552,6.3983,6.3719,6.3675,6.3434,6.3301,6.3301,6.3301,6.3498,6.3763,6.3939,6.4377,6.4944,6.5292,6.4546,6.3157,6.0881,5.9317,5.8768,6.0565,6.0926,6.0339,5.8539,5.7153,5.5398,5.2133,5.1377,5.1436,5.1641,5.168,5.1777,5.2109,5.2246,5.2404,5.2559,5.2417,5.2335,5.232,5.192,5.1638,5.165,5.1523,5.1377,5.1377,5.1377,5.1455,5.166,5.1475,5.1504,5.166,5.0743,4.9784,4.883,4.8682,4.8187,4.7324,4.7442,4.7609,4.7808,4.7957,4.8088,4.8335,4.8632,4.8879,4.9144,4.9686,5.0225,5.0695,5.089,5.1134,5.1377,5.1377,5.1377,5.1377,5.1377,5.1377,5.1377,5.1377,5.1377,5.1377,5.1377,5.1377,5.1377,5.1377,5.2547,5.298,5.1571,5.2595,5.2932,5.1571,5.2644,5.3754,5.4542,5.8009,6.0498,6.1242,6.3558,6.5075,6.5378,6.5551,6.5767,6.6069,6.5638,6.5161,6.4702,6.4221,6.3851,6.3498,6.3498,6.3763,6.4246,6.4377,6.4814,6.5378,6.518,6.5248,6.5335,6.4683,6.429,6.3983,6.3631,6.3498,6.3498,6.3498,6.3807,6.4246,6.4377,6.4857,6.5421,6.5551,6.3666,6.0857,5.8379,5.6874,5.6243,5.7339,5.706,5.6595,5.706,5.6128,5.4474,5.1988,5.1377,5.1377,5.1377,5.1377,5.1465,5.1601,5.1777,5.1973,5.2226,5.2051,5.1933,5.207,5.1719,5.1377,5.1377,5.1377,5.1377,5.1377,5.1377,5.1377,5.1377,5.1377,5.1328,5.1183,5.0519,4.9931,4.9391,4.8682,4.8038,4.7473,4.7659,4.7858,4.8007,4.8187,4.8484,4.878,4.883,4.9027,4.9391,4.9735,5.0225,5.0695,5.0842,5.1085,5.1377,5.1377,5.1377,5.1377,5.1377,5.1377,5.1377,5.1377,5.1377,5.1377,5.1377,5.1377,5.1377,5.1377,5.1377,5.1377,5.1377,5.1377,5.1377,5.1377,5.1426,5.2451,5.4926,5.6968,5.9157,6.1601,6.4022,6.5335,6.5335,6.581,6.6069,6.6069,6.5594,6.5161,6.4658,6.4221,6.4026,6.3983,6.4026,6.4265,6.4745,6.5205,6.5378,6.5421,6.5896,6.581,6.5403,6.5378,6.4857,6.4026,6.4026,6.4026,6.4026,6.4026,6.4309,6.4789,6.5248,6.5378,6.5465,6.5896,6.2735,5.8309,5.58,5.3323,5.1939,5.4426,5.3275,5.1988,5.4474,5.5115,5.4426,5.1939,5.1377,5.1377,5.1377,5.1377,5.1562,5.1992,5.1719,5.167,5.2558,5.1992,5.1582,5.2012,5.1699,5.1377,5.1377,5.1377,5.1377,5.1377,5.1377,5.1377,5.1377,5.1377,5.1183,5.0695,5.0695,5.047,4.9931,4.8879,4.8583,4.9076,4.8583,4.8583,4.9095,4.8583,4.883,4.9833,4.878,4.8879,4.9882,4.9882,5.0225,5.0744,5.1183,5.1377,5.1377,5.1377,5.1377,5.1377,5.1377,5.1377,5.1377,5.1377,5.1377,5.1377,5.1377,5.1377,5.1377,5.1377,5.1377,5.1377,5.1377,5.1377,5.1377,5.1377,5.4209,5.643,5.7153,5.9339,6.0407,5.9749,6.0384,6.0791,6.0791,6.2558,6.3554,6.3554,6.3446,6.3137,6.265,6.4221,6.3934,6.1982,6.3714,6.4745,6.5205,6.5335,6.5594,6.5896,6.6026,6.6026,6.5853,6.5508,6.5205,6.4944,6.4615,6.4484,6.4484,6.4484,6.4789,6.5205,6.5335,6.5594,6.531,6.2001,5.9999,5.7986,5.3733,5.1988,5.1571,5.2306,5.1988,5.1988,5.4474,5.3781,5.2306,5.1571,5.1377,5.1377,5.1377,5.1377,5.1416,5.1601,5.1475,5.1475,5.1777,5.1553,5.1436,5.1601,5.1475,5.1377,5.1377,5.1377,5.1377,5.1377,5.0744,5.05,5.089,5.089,5.0842,5.0695,5.0695,5.0617,5.047,4.9784,4.9341,4.9095,4.8205,4.8007,4.8533,4.8731,4.9046,4.9341,4.9765,4.9961,4.9931,5.0323,5.0549,5.0695,5.0842,5.1085,5.1377,5.1377,5.1377,5.1377,5.1377,5.1377,5.1377,5.1377,5.1377,5.1377,5.1377,5.1377,5.1377,5.1377,5.1377,5.1377,5.1377,5.1377,5.1377,5.1377,5.3849,5.5821,5.6828,5.918,6.0113,5.886,5.8814,5.8355,5.7385,5.8791,6.0044,6.1016,6.1061,6.0791,6.0362,6.2783,6.3073,6.1422,6.3846,6.5248,6.5681,6.5681,6.581,6.6112,6.6112,6.6112,6.6069,6.581,6.5551,6.5378,6.5075,6.4988,6.4988,6.4988,6.5292,6.5681,6.5681,6.5223,6.3973,6.0044,5.8125,5.6548,5.2595,5.1377,5.1377,5.1377,5.1377,5.1746,5.3275,5.2479,5.1377,5.1377,5.1377,5.1377,5.1377,5.1377,5.1377,5.1377,5.1377,5.1377,5.1377,5.1377,5.1377,5.1377,5.1377,5.1377,5.1377,5.1377,5.1231,5.0842,5.0646,5.0549,5.0695,5.0695,5.0695,5.0695,5.089,5.089,5.0695,5.0372,5.0078,4.9716,4.8898,4.8502,4.8632,4.8947,4.9323,4.9716,4.9961,5.0225,5.0519,5.0646,5.0793,5.0988,5.0988,5.1134,5.1377,5.1377,5.1377,5.1377,5.1377,5.1377,5.1377,5.1377,5.1377,5.1377,5.1377,5.1377,5.1377,5.1377,5.1377,5.1377,5.1377,5.1377,5.1377,5.1377,5.162,5.2624,5.4926,5.72,5.8401,5.8171,5.8125,5.7153,5.4879,5.4784,5.5847,5.8079,5.8585,5.8493,5.7848,6.0769,6.1959,6.1601,6.4241,6.5681,6.6112,6.6112,6.6112,6.6112,6.6112,6.6112,6.6112,6.6112,6.5853,6.5465,6.5465,6.5465,6.5421,6.5205,6.5421,6.5742,6.5526,6.3973,6.1733,5.9271,5.6921,5.4595,5.2113,5.1377,5.1377,5.1377,5.1377,5.1377,5.1377,5.1377,5.1377,5.1377,5.1377,5.1377,5.1377,5.1377,5.1377,5.1377,5.1377,5.1377,5.1377,5.1377,5.1377,5.1377,5.1377,5.1377,5.1377,5.1377,5.1037,5.0138,5.0842,5.1085,5.0451,5.0598,5.0695,5.0646,5.1134,5.1183,5.0793,5.0695,5.0695,5.0695,5.0225,4.9735,4.9224,4.9194,4.9686,5.0598,4.9667,5.001,5.1328,5.0939,5.0988,5.1377,5.1377,5.1377,5.1377,5.1377,5.1377,5.1377,5.1377,5.1377,5.1377,5.1377,5.1377,5.1377,5.1377,5.1377,5.1377,5.1377,5.1377,5.1377,5.1377,5.1377,5.1377,5.1377,5.3132,5.45,5.5047,5.5565,5.5068,5.3152,5.3008,5.2768,5.221,5.221,5.2451,5.3008,5.6828,5.7802,5.5753,6.209,6.3201,5.9567,6.3929,6.5983,6.6112,6.6112,6.6112,6.6112,6.6112,6.6112,6.6112,6.6112,6.6026,6.594,6.594,6.594,6.5724,6.3798,6.3201,6.2957,6.1037,6.0044,5.918,5.6667,5.5518,5.4595,5.2113,5.1377,5.1377,5.1377,5.1377,5.1377,5.1377,5.1377,5.1377,5.1377,5.1377,5.1377,5.1377,5.1377,5.1377,5.1377,5.1377,5.1377,5.1377,5.1377,5.1377,5.1377,5.1377,5.1377,5.1377,5.1377,5.1328,5.1085,5.0939,5.0108,4.8354,4.9765,5.05,5.0078,5.091,5.1328,5.1231,5.089,5.0695,5.0695,5.0598,5.047,5.0353,4.9931,4.9833,5.0078,5.0274,5.0549,5.0842,5.1134,5.1328,5.1377,5.1377,5.1377,5.1377,5.1377,5.1377,5.1377,5.1377,5.1377,5.1377,5.1377,5.1377,5.1377,5.1377,5.1377,5.1377,5.1377,5.1377,5.1377,5.1377,5.1377,5.1377,5.1377,5.2575,5.3323,5.3323,5.3323,5.2768,5.1474,5.1377,5.1377,5.1377,5.1377,5.1377,5.1377,5.5115,5.58,5.3323,5.8402,5.9545,5.7107,6.0857,6.2647,6.2647,6.2647,6.2647,6.2691,6.3885,6.4391,6.4391,6.4391,6.4391,6.4236,6.3045,6.2647,6.2445,6.1195,6.0722,6.0542,5.9225,5.8033,5.6828,5.5518,5.4284,5.3084,5.1794,5.1377,5.1377,5.1377,5.1377,5.1377,5.1377,5.1377,5.1377,5.1377,5.1377,5.1377,5.1377,5.1377,5.1377,5.1377,5.1377,5.1377,5.1377,5.1377,5.1377,5.1377,5.1377,5.1377,5.1377,5.1377,5.1377,5.1377,5.0304,4.9421,4.9046,4.9569,5.001,5.0274,5.0793,5.1183,5.1377,5.1134,5.1037,5.1037,5.1037,5.1037,5.1037,5.0519,5.0274,5.0274,5.0549,5.0793,5.1037,5.128,5.1377,5.1377,5.1377,5.1377,5.1377,5.1377,5.1377,5.1377,5.1377,5.1377,5.1377,5.1377,5.1377,5.1377,5.1377,5.1377,5.1377,5.1377,5.1377,5.1377,5.1377,5.1377,5.1377,5.1377,5.1377,5.1377,5.1377,5.1377,5.1377,5.1377,5.1377,5.1377,5.1377,5.1377,5.1377,5.1377,5.3399,5.3447,5.1377,5.4331,5.5518,5.5141,5.7641,5.8814,5.8814,5.8814,5.8814,5.8951,6.1016,6.1867,6.1867,6.1867,6.1867,6.1644,5.959,5.8814,5.8722,5.8309,5.7894,5.7524,5.7524,5.6175,5.4453,5.4453,5.3036,5.1377,5.1377,5.1377,5.1377,5.1377,5.1377,5.1377,5.1377,5.1377,5.1377,5.1377,5.1377,5.1377,5.1377,5.1377,5.1377,5.1377,5.1377,5.1377,5.1377,5.1377,5.1377,5.1377,5.1377,5.1377,5.1377,5.1377,5.1377,5.128,4.9814,4.9273,5.0353,4.9863,4.9765,5.0402,5.0695,5.0939,5.128,5.1377,5.1377,5.1377,5.1377,5.1377,5.1377,5.0988,5.0793,5.0695,5.0695,5.089,5.128,5.1377,5.1377,5.1377,5.1377,5.1377,5.1377,5.1377,5.1377,5.1377,5.1377,5.1377,5.1377,5.1377,5.1377,5.1377,5.1377,5.1377,5.1377,5.1377,5.1377,5.1377,5.1377,5.1377,5.1377,5.1377,5.1377,5.1377,5.1377,5.1377,5.1377,5.1377,5.1377,5.1377,5.1377,5.1377,5.1377,5.1377,5.1697,5.1746,5.1377,5.6034,5.72,5.5141,5.7641,5.8814,5.8814,5.8814,5.8814,5.8814,5.918,5.9317,5.9317,5.9317,5.9317,5.9271,5.8951,5.8814,5.8539,5.6362,5.4236,5.2403,5.2403,5.2161,5.1891,5.1891,5.1668,5.1377,5.1377,5.1377,5.1377,5.1377,5.1377,5.1377,5.1377,5.1377,5.1377,5.1377,5.1377,5.1377,5.1377,5.1377,5.1377,5.1377,5.1377,5.1377,5.1377,5.1377,5.1377,5.1377,5.1377,5.1377,5.1377,5.1377,5.1231,5.0842,5.089,5.05,4.9372,5.0402,5.0549,4.9372,5.0598,5.1134,5.0793,5.1183,5.1377,5.1377,5.1377,5.1377,5.1377,5.1328,5.1085,5.0695,5.0695,5.0744,5.0793,5.1231,5.1377,5.1377,5.1377,5.1377,5.1377,5.1377,5.1377,5.1377,5.1377,5.1377,5.1377,5.1377,5.1377,5.1377,5.1377,5.1377,5.1377,5.1377,5.1377,5.1377,5.1377,5.1377,5.1377,5.1377,5.1377,5.1377,5.1377,5.1377,5.1377,5.1377,5.1377,5.1377,5.1377,5.1377,5.1377,5.1377,5.1377,5.1377,5.1377,5.361,5.4114,5.3036,5.4162,5.4663,5.4663,5.4663,5.4663,5.4758,5.6128,5.6735,5.6735,5.6735,5.6735,5.6595,5.5162,5.4663,5.4521,5.3419,5.2354,5.1377,5.1377,5.1377,5.1377,5.1377,5.1377,5.1377,5.1377,5.1377,5.1377,5.1377,5.1377,5.1377,5.1377,5.1377,5.1377,5.1377,5.1377,5.1377,5.1377,5.1377,5.1377,5.1377,5.1377,5.1377,5.1377,5.1377,5.1377,5.1377,5.1377,5.1377,5.1377,5.1377,5.1328,5.1085,5.1037,5.0842,5.0402,5.0206,5.0206,5.0353,5.0519,5.0714,5.1085,5.128,5.1377,5.1377,5.1377,5.1377,5.1377,5.1377,5.128,5.1085,5.1085,5.1085,5.1085,5.1328,5.1377,5.1377,5.1377,5.1377,5.1377,5.1377,5.1377,5.1377,5.1377,5.1377,5.1377]},{"header":{"parameterUnit":"m.s-1","parameterCategory":1,"la1":30.6,"la2":28.766,"lo1":-90.7593,"lo2":-88.6598,"dx":0.0162,"dy":0.0183,"nx":116,"ny":114,"refTime":"2022-11-16T18:00:00:Z","depth":0,"parameterNumber":3,"parameterNumberName":"V-component_of_WINDS"},"data":[0.0,0.0,0.0,0.0,0.0,0.0,0.0,0.0,0.0,0.0,0.0,0.0,0.0,0.0,0.0,0.0,0.0,0.0,0.0,0.0,0.0,0.0,0.0,0.0,0.0,0.0,0.0,0.0,0.0,0.0,0.0,0.0,0.0,0.0,0.0,0.0,0.0,0.0,0.0,0.0,0.0,0.0,0.0,0.0,0.0,0.0,0.0,0.0,0.0,0.0,0.0,0.0,0.0,0.0,0.0,0.0,0.0,0.0,0.0,0.0,0.0,0.0,0.0,0.0,0.0,0.0,0.0,0.0,0.0,0.0,0.0,0.0,0.0,0.0,0.0,0.0,0.0,0.0,0.0,0.0,0.0,0.0,0.0,0.0,0.0,0.0,0.0,0.0,0.0,0.0,0.0,0.0,0.0,0.0,0.0,0.0,0.0,0.0,0.0,0.0,0.0,0.0,0.0,0.0,0.0,0.0,0.0,0.0,0.0,0.0,0.0,0.0,0.0,0.0,0.0,0.0,0.0,0.0,0.0,0.0,0.0,0.0,0.0,0.0,0.0,0.0,0.0,0.0,0.0,0.0,0.0,0.0,0.0,0.0,0.0,0.0,0.0,0.0,0.0,0.0,0.0,0.0,0.0,0.0,0.0,0.0,0.0,0.0,0.0,0.0,0.0,0.0,0.0,0.0,0.0,0.0,0.0,0.0,0.0,0.0,0.0,0.0,0.0,0.0,0.0,0.0,0.0,0.0,0.0,0.0,0.0,0.0,0.0,0.0,0.0,0.0,0.0,0.0,0.0,0.0,0.0,0.0,0.0,0.0,0.0,0.0,0.0,0.0,0.0,0.0,0.0,0.0,0.0,0.0,0.0,0.0,0.0,0.0,0.0,0.0,0.0,0.0,0.0,0.0,0.0,0.0,0.0,0.0,0.0,0.0,0.0,0.0,0.0,0.0,0.0,0.0,0.0,0.0,0.0,0.0,0.0,0.0,0.0,0.0,0.0,0.0,0.0,0.0,0.0,0.0,0.0,0.0,0.0,0.0,0.0,0.0,0.0,0.0,0.0,0.0,0.0,0.0,0.0,0.0,0.0,0.0,0.0,0.0,0.0,0.0,0.0,0.0,0.0,0.0,0.0,0.0,0.0,0.0,0.0,0.0,0.0,0.0,0.0,0.0,0.0,0.0,0.0,0.0,0.0,0.0,0.0,0.0,0.0,0.0,0.0,0.0,0.0,0.0,0.0,0.0,0.0,0.0,0.0,0.0,0.0,0.0,0.0,0.0,0.0,0.0,0.0,0.0,0.0,0.0,0.0,0.0,0.0,0.0,0.0,0.0,0.0,0.0,0.0,0.0,0.0,0.0,0.0,0.0,0.0,0.0,0.0,0.0,0.0,0.0,0.0,0.0,0.0,0.0,0.0,0.0,0.0,0.0,0.0,0.0,0.0,0.0,0.0,0.0,0.0,0.0,0.0,0.0,0.0,0.0,0.0,0.0,0.0,0.0,0.0,0.0,0.0,0.0,0.0,0.0,0.0,0.0,0.0,0.0,0.0,0.0,0.0,0.0,0.0,0.0,0.0,0.0,0.0,0.0,0.0,0.0,0.0,0.0,0.0,0.0,0.0,0.0,0.0,0.0,0.0,0.0,0.0,0.0,0.0,0.0,0.0,0.0,0.0,0.0,0.0,0.0,0.0,0.0,0.0,0.0,0.0,0.0,0.0,0.0,0.0,0.0,0.0,0.0,0.0,0.0,0.0,0.0,0.0,0.0,0.0,0.0,0.0,0.0,0.0,0.0,0.0,0.0,0.0,0.0,0.0,0.0,0.0,0.0,0.0,0.0,0.0,0.0,0.0,0.0,0.0,0.0,0.0,0.0,0.0,0.0,0.0,0.0,0.0,0.0,0.0,0.0,0.0,0.0,0.0,0.0,0.0,0.0,0.0,0.0,0.0,0.0,0.0,0.0,0.0,0.0,0.0,0.0,0.0,0.0,0.0,0.0,0.0,0.0,0.0,0.0,0.0,0.0,0.0,0.0,0.0,0.0,0.0,0.0,0.0,0.0,0.0,0.0,0.0,0.0,0.0,0.0,0.0,0.0,0.0,0.0,0.0,0.0,0.0,0.0,0.0,0.0,0.0,0.0,0.0,0.0,0.0,0.0,0.0,0.0,0.0,0.0,0.0,0.0,0.0,0.0,0.0,0.0,0.0,0.0,0.0,0.0,0.0,0.0,0.0,0.0,0.0,0.0,0.0,0.0,0.0,0.0,0.0,0.0,0.0,0.0,0.0,0.0,0.0,0.0,0.0,0.0,0.0,0.0,0.0,0.0,0.0,0.0,0.0,0.0,0.0,0.0,0.0,0.0,0.0,0.0,0.0,0.0,0.0,0.0,0.0,0.0,0.0,0.0,0.0,0.0,0.0,0.0,0.0,0.0,0.0,0.0,0.0,0.0,0.0,0.0,0.0,0.0,0.0,0.0,0.0,0.0,0.0,0.0,0.0,0.0,0.0,0.0,0.0,0.0,0.0,0.0,0.0,0.0,0.0,0.0,0.0,0.0,0.0,0.0,0.0,0.0,0.0,0.0,0.0,0.0,0.0,0.0,0.0,0.0,0.0,0.0,0.0,0.0,0.0,0.0,0.0,0.0,0.0,0.0,0.0,0.0,0.0,0.0,0.0,0.0,0.0,0.0,0.0,0.0,0.0,0.0,0.0,0.0,0.0,0.0,0.0,0.0,0.0,0.0,0.0,0.0,0.0,0.0,0.0,0.0,0.0,0.0,0.0,0.0,0.0,0.0,0.0,0.0,0.0,0.0,0.0,0.0,0.0,0.0,0.0,0.0,0.0,0.0,0.0,0.0,0.0,0.0,0.0,0.0,0.0,0.0,0.0,0.0,0.0,0.0,0.0,0.0,0.0,0.0,0.0,0.0,0.0,0.0,0.0,0.0,0.0,0.0,0.0,0.0,0.0,0.0,0.0,0.0,0.0,0.0,0.0,0.0,0.0,0.0,0.0,0.0,0.0,0.0,0.0,0.0,0.0,0.0,0.0,0.0,0.0,0.0,0.0,0.0,0.0,0.0,0.0,0.0,0.0,0.0,0.0,0.0,0.0,0.0,0.0,0.0,0.0,0.0,0.0,0.0,0.0,0.0,0.0,0.0,0.0,0.0,0.0,0.0,0.0,0.0,0.0,0.0,0.0,0.0,0.0,0.0,0.0,0.0,0.0,0.0,0.0,0.0,0.0,0.0,0.0,0.0,0.0,0.0,0.0,0.0,0.0,0.0,0.0,0.0,0.0,0.0,0.0,0.0,0.0,0.0,0.0,0.0,0.0,0.0,0.0,0.0,0.0,0.0,0.0,0.0,0.0,0.0,0.0,0.0,0.0,0.0,0.0,0.0,0.0,0.0,0.0,0.0,0.0,0.0,0.0,0.0,0.0,0.0,0.0,0.0,0.0,0.0,0.0,0.0,0.0,0.0,0.0,0.0,0.0,0.0,0.0,0.0,0.0,0.0,0.0,0.0,0.0,0.0,0.0,0.0,0.0,0.0,0.0,0.0,0.0,0.0,0.0,0.0,0.0,0.0,0.0,0.0,0.0,0.0,0.0,0.0,0.0,0.0,0.0,0.0,0.0,0.0,0.0,0.0,0.0,0.0,0.0,0.0,0.0,0.0,0.0,0.0,0.0,0.0,0.0,0.0,0.0,0.0,0.0,0.0,0.0,0.0,0.0,0.0,0.0,0.0,0.0,0.0,0.0,0.0,0.0,0.0,0.0,0.0,0.0,0.0,0.0,0.0,0.0,0.0,0.0,0.0,0.0,0.0,0.0,0.0,0.0,0.0,0.0,0.0,0.0,0.0,0.0,0.0,0.0,0.0,0.0,0.0,0.0,0.0,0.0,0.0,0.0,0.0,0.0,0.0,0.0,0.0,0.0,0.0,0.0,0.0,0.0,0.0,0.0,0.0,0.0,0.0,0.0,0.0,0.0,0.0,0.0,0.0,0.0,0.0,0.0,0.0,0.0,0.0,0.0,0.0,0.0,0.0,0.0,0.0,0.0,0.0,0.0,0.0,0.0,0.0,0.0,0.0,0.0,0.0,0.0,0.0,0.0,0.0,0.0,0.0,0.0,0.0,0.0,0.0,0.0,0.0,0.0,0.0,0.0,0.0,0.0,0.0,0.0,0.0,0.0,0.0,0.0,0.0,0.0,0.0,0.0,0.0,0.0,0.0,0.0,0.0,0.0,0.0,0.0,0.0,0.0,0.0,0.0,0.0,0.0,0.0,0.0,0.0,0.0,0.0,0.0,0.0,0.0,0.0,0.0,0.0,0.0,0.0,0.0,0.0,0.0,0.0,0.0,0.0,0.0,0.0,0.0,0.0,0.0,0.0,0.0,0.0,0.0,0.0,0.0,0.0,0.0,0.0,0.0,0.0,0.0,0.0,0.0,0.0,0.0,0.0,0.0,0.0,0.0,0.0,0.0,0.0,0.0,0.0,0.0,0.0,0.0,0.0,0.0,0.0,0.0,0.0,0.0,0.0,0.0,0.0,0.0,0.0,0.0,0.0,0.0,0.0,0.0,0.0,0.0,0.0,0.0,0.0,0.0,0.0,0.0,0.0,0.0,0.0,0.0,0.0,0.0,0.0,0.0,0.0,0.0,0.0,0.0,0.0,0.0,0.0,0.0,0.0,0.0,0.0,0.0,0.0,0.0,0.0,0.0,0.0,0.0,0.0,0.0,0.0,0.0,0.0,0.0,0.0,0.0,0.0,0.0,0.0,0.0,0.0,0.0,0.0,0.0,0.0,0.0,0.0,0.0,0.0,0.0,0.0,0.0,0.0,0.0,0.0,0.0,0.0,0.0,0.0,0.0,0.0,0.0,0.0,0.0,0.0,0.0,0.0,0.0,0.0,0.0,0.0,0.0,0.0,0.0,0.0,0.0,0.0,0.0,0.0,0.0,0.0,0.0,0.0,0.0,0.0,0.0,0.0,0.0,0.0,0.0,0.0,0.0,0.0,0.0,0.0,0.0,0.0,0.0,0.0,0.0,0.0,0.0,0.0,0.0,0.0,0.0,0.0,0.0,0.0,0.0,0.0,0.0,0.0,0.0,0.0,0.0,0.0,0.0,0.0,0.0,0.0,0.0,0.0,0.0,0.0,0.0,0.0,0.0,0.0,0.0,0.0,0.0,0.0,0.0,0.0,0.0,0.0,0.0,0.0,0.0,0.0,0.0,0.0,0.0,0.0,0.0,0.0,0.0,0.0,0.0,0.0,0.0,0.0,0.0,0.0,0.0,0.0,0.0,0.0,0.0,0.0,0.0,0.0,0.0,0.0,0.0,0.0,0.0,0.0,0.0,0.0,0.0,0.0,0.0,0.0,0.0,0.0,0.0,0.0,0.0,0.0,0.0,0.0,0.0,0.0,0.0,0.0,0.0,0.0,0.0,0.0,0.0,0.0,0.0,0.0,0.0,0.0,0.0,0.0,0.0,0.0,0.0,0.0,0.0,0.0,0.0,0.0,0.0,0.0,0.0,0.0,0.0,0.0,0.0,0.0,0.0,0.0,0.0,0.0,0.0,0.0,0.0,0.0,0.0,0.0,0.0,0.0,0.0,0.0,0.0,0.0,0.0,0.0,0.0,0.0,0.0,0.0,0.0,0.0,0.0,0.0,0.0,0.0,0.0,0.0,0.0,0.0,0.0,0.0,0.0,0.0,0.0,0.0,0.0,0.0,0.0,0.0,0.0,0.0,0.0,0.0,0.0,0.0,0.0,0.0,0.0,0.0,0.0,0.0,0.0,0.0,0.0,0.0,0.0,0.0,0.0,0.0,0.0,0.0,0.0,0.0,0.0,0.0,0.0,0.0,0.0,0.0,0.0,0.0,0.0,0.0,0.0,0.0,0.0,0.0,0.0,0.0,0.0,0.0,0.0,0.0,0.0,0.0,0.0,0.0,0.0,0.0,0.0,0.0,0.0,0.0,0.0,0.0,0.0,0.0,0.0,0.0,0.0,0.0,0.0,0.0,0.0,0.0,0.0,0.0,0.0,0.0,0.0,0.0,0.0,0.0,0.0,0.0,0.0,0.0,0.0,0.0,0.0,0.0,0.0,0.0,4.0958,3.6583,0.0,0.0,0.0,0.0,0.0,0.0,0.0,0.0,0.0,0.0,0.0,0.0,0.0,0.0,0.0,0.0,0.0,0.0,0.0,0.0,0.0,0.0,0.0,2.276,2.2809,2.2265,2.2301,0.0,0.0,0.0,0.0,0.0,0.0,0.0,0.0,0.0,2.3205,2.3489,2.5478,2.7185,2.8533,2.7997,2.6133,2.3186,0.0,0.0,0.0,0.0,0.0,0.0,0.0,0.0,0.0,0.0,0.0,0.0,0.0,0.0,0.0,0.0,0.0,0.0,0.0,0.0,0.0,0.0,0.0,0.0,0.0,0.0,0.0,0.0,0.0,0.0,0.0,0.0,0.0,0.0,0.0,0.0,0.0,0.0,0.0,0.0,0.0,0.0,0.0,0.0,0.0,0.0,0.0,0.0,0.0,0.0,0.0,0.0,0.0,0.0,0.0,0.0,0.0,0.0,0.0,0.0,0.0,0.0,0.0,0.0,0.0,0.0,0.0,0.0,0.0,0.0,4.3155,4.1166,0.0,0.0,0.0,0.0,0.0,0.0,0.0,0.0,0.0,0.0,0.0,0.0,0.0,0.0,0.0,0.0,0.0,0.0,0.0,0.0,0.0,2.2695,2.3209,2.3357,2.324,2.2898,2.324,2.3485,2.3485,2.3885,0.0,0.0,0.0,0.0,2.3324,2.3211,2.3353,2.3757,2.7552,3.0749,3.3316,3.3182,3.0441,2.5622,2.5278,0.0,0.0,0.0,0.0,0.0,0.0,0.0,0.0,0.0,0.0,0.0,0.0,0.0,0.0,0.0,0.0,0.0,0.0,0.0,0.0,0.0,0.0,0.0,0.0,0.0,0.0,0.0,0.0,0.0,0.0,0.0,0.0,0.0,0.0,0.0,0.0,0.0,0.0,0.0,0.0,0.0,0.0,0.0,0.0,0.0,0.0,0.0,0.0,0.0,0.0,0.0,0.0,0.0,0.0,0.0,0.0,0.0,0.0,0.0,0.0,0.0,0.0,0.0,4.658,4.6753,4.66,4.6885,4.7058,4.7149,4.606,4.7067,4.9109,4.474,0.0,0.0,0.0,0.0,0.0,0.0,0.0,0.0,0.0,0.0,0.0,0.0,0.0,0.0,0.0,0.0,0.0,0.0,0.0,2.3337,2.354,2.3463,2.3424,2.3476,2.3227,2.3095,2.3095,2.299,0.0,0.0,0.0,2.3788,2.455,2.454,2.552,2.7584,2.9922,3.1452,3.2118,3.2104,3.1677,3.0958,3.2012,3.1201,2.8999,0.0,0.0,0.0,0.0,0.0,0.0,0.0,0.0,0.0,0.0,0.0,0.0,0.0,0.0,0.0,0.0,0.0,0.0,0.0,0.0,0.0,0.0,0.0,0.0,0.0,0.0,0.0,0.0,0.0,0.0,0.0,0.0,0.0,0.0,0.0,0.0,0.0,0.0,0.0,0.0,0.0,3.5018,3.9051,0.0,0.0,0.0,0.0,0.0,0.0,0.0,0.0,0.0,0.0,0.0,0.0,0.0,4.473,4.478,4.7872,4.8656,4.7205,5.0423,5.1431,5.0594,5.1977,5.2965,5.3363,5.1006,0.0,4.8093,4.8522,0.0,0.0,0.0,0.0,0.0,0.0,0.0,0.0,0.0,0.0,0.0,0.0,0.0,0.0,0.0,0.0,0.0,0.0,0.0,0.0,0.0,2.5559,2.6427,2.6415,2.7641,2.7836,2.6469,2.6306,0.0,0.0,2.4327,2.4517,2.5114,2.507,2.7129,3.1437,3.3265,3.5162,3.7124,3.7124,3.7124,3.7156,3.7737,3.5611,3.1549,3.1764,0.0,0.0,0.0,0.0,0.0,0.0,0.0,0.0,0.0,0.0,0.0,0.0,0.0,0.0,0.0,0.0,0.0,0.0,0.0,0.0,0.0,0.0,0.0,0.0,0.0,0.0,0.0,0.0,0.0,0.0,0.0,0.0,0.0,0.0,0.0,0.0,0.0,0.0,0.0,3.4871,3.7481,4.0525,4.0168,3.8936,0.0,0.0,0.0,0.0,0.0,0.0,0.0,0.0,0.0,4.5309,4.7537,4.8653,4.8513,5.1911,5.3184,5.2318,5.392,5.425,5.3414,5.4125,5.4612,5.481,5.3666,5.2966,5.2466,5.0711,4.9427,4.8433,0.0,0.0,0.0,0.0,4.2372,4.3764,0.0,0.0,0.0,0.0,0.0,0.0,0.0,0.0,0.0,0.0,0.0,0.0,2.5741,2.8049,2.9559,2.9491,3.1317,3.1505,2.9203,2.9089,2.8093,2.5849,2.5465,2.5408,2.5685,2.6827,2.9897,3.4928,3.6676,3.8811,4.1195,4.1152,4.1157,4.1171,4.1336,3.8685,3.4139,3.4591,3.2972,3.0075,0.0,0.0,0.0,0.0,0.0,0.0,0.0,0.0,0.0,0.0,0.0,0.0,0.0,0.0,0.0,0.0,0.0,0.0,0.0,0.0,0.0,0.0,0.0,0.0,0.0,0.0,0.0,0.0,0.0,0.0,0.0,0.0,0.0,0.0,0.0,0.0,0.0,3.8144,4.0238,4.2763,4.3092,4.2234,0.0,0.0,0.0,0.0,0.0,0.0,4.7161,4.7093,4.7439,4.8337,5.1025,5.2375,5.2137,5.4933,5.6145,5.5733,5.5733,5.5453,5.4872,5.4872,5.4952,5.511,5.5365,5.5876,5.6251,5.3026,5.1554,5.1265,5.0941,4.9161,4.6696,4.6218,4.6697,4.7546,0.0,0.0,0.0,0.0,0.0,0.0,0.0,0.0,0.0,0.0,0.0,2.8194,2.8391,3.0416,3.1796,3.1893,3.2054,3.1294,2.932,2.932,2.8508,2.6535,2.6565,2.655,2.644,3.1041,3.4851,3.7701,3.9895,4.1044,4.1185,4.106,4.1002,4.1034,4.1671,4.0351,3.7623,3.7332,3.5987,3.3729,3.0484,0.0,0.0,0.0,0.0,0.0,0.0,0.0,0.0,0.0,0.0,0.0,0.0,0.0,0.0,0.0,0.0,0.0,0.0,0.0,0.0,0.0,0.0,0.0,0.0,0.0,0.0,0.0,0.0,0.0,0.0,0.0,0.0,0.0,0.0,0.0,0.0,0.0,0.0,4.7067,4.944,0.0,0.0,0.0,0.0,4.5464,4.5515,4.7154,5.0659,5.0814,5.237,5.5745,5.604,5.6028,5.5863,5.602,5.5673,5.4747,5.4747,5.4643,5.4433,5.4433,5.4768,5.545,5.6303,5.6731,5.6739,5.6284,5.5776,5.5037,5.2178,5.0586,4.9519,4.6665,4.8724,5.2913,0.0,0.0,0.0,2.34,2.3005,2.2988,2.3822,2.3748,2.4016,2.5174,2.7183,2.859,2.8826,3.2139,3.4346,3.4274,3.5791,3.5783,3.355,3.2254,3.0601,2.8358,2.707,2.7348,2.9289,3.4288,3.7296,3.8162,4.0196,4.1085,4.0896,4.0823,4.0808,4.0808,4.1069,4.0942,4.0557,4.1043,3.9732,3.7218,3.5992,3.3374,0.0,0.0,0.0,0.0,0.0,0.0,0.0,0.0,0.0,0.0,0.0,0.0,0.0,0.0,0.0,0.0,0.0,0.0,0.0,0.0,0.0,0.0,0.0,0.0,0.0,0.0,0.0,0.0,0.0,0.0,0.0,0.0,0.0,0.0,0.0,0.0,0.0,4.8218,4.974,0.0,4.9271,4.9911,5.0099,4.9454,5.1367,5.3115,5.445,5.4384,5.4893,5.6172,5.6225,5.6106,5.5906,5.5906,5.5584,5.4957,5.4957,5.4608,5.3953,5.3953,5.4159,5.4519,5.5363,5.6119,5.6808,5.7016,5.7156,5.7177,5.6092,5.5499,5.5179,5.411,5.4865,5.6461,0.0,0.0,0.0,2.3414,2.3303,2.3519,2.4333,2.4361,2.4946,2.6766,2.8777,3.0331,3.1182,3.4646,3.6894,3.678,3.8339,3.8133,3.5435,3.3839,3.1827,2.9175,2.8475,2.9929,3.3752,3.7109,3.9207,4.0006,4.122,4.1645,4.1436,4.1543,4.1528,4.1346,4.1513,4.1862,4.2334,4.2962,4.2171,4.041,3.9656,3.6417,3.1931,0.0,0.0,0.0,0.0,0.0,0.0,0.0,0.0,0.0,0.0,0.0,0.0,0.0,0.0,0.0,0.0,0.0,0.0,0.0,0.0,0.0,0.0,0.0,0.0,0.0,0.0,0.0,0.0,0.0,0.0,0.0,0.0,0.0,0.0,4.3742,4.7341,4.9171,5.0839,5.1746,5.1445,5.2243,5.2882,5.3142,5.53,5.6534,5.6303,5.6395,5.6295,5.5986,5.5986,5.5846,5.5564,5.5823,5.5716,5.5342,5.5599,5.5387,5.476,5.476,5.4623,5.4454,5.558,5.6253,5.6702,5.7646,5.8206,5.8473,5.8195,5.8145,5.8207,5.8207,5.8371,5.86,0.0,0.0,2.361,2.364,2.4008,2.4464,2.4973,2.5334,2.6455,2.8818,3.129,3.3518,3.544,3.7831,3.9315,3.9315,3.9315,3.7976,3.4746,3.3831,3.2071,2.9029,3.0833,3.4316,3.9481,3.9563,4.0808,4.3388,4.3102,4.2932,4.2868,4.3234,4.309,4.2603,4.3138,4.3202,4.2884,4.2932,4.3117,4.3244,4.1076,3.8174,3.4942,0.0,0.0,0.0,0.0,0.0,0.0,0.0,0.0,0.0,0.0,0.0,0.0,0.0,0.0,0.0,0.0,0.0,0.0,0.0,0.0,0.0,0.0,0.0,0.0,0.0,0.0,0.0,0.0,0.0,0.0,0.0,0.0,0.0,4.1607,4.6489,5.0191,5.0294,5.3284,5.5391,5.5596,5.5928,5.6185,5.6382,5.6829,5.6787,5.6119,5.6668,5.6613,5.5758,5.5738,5.5535,5.5083,5.5833,5.6081,5.5815,5.6551,5.6881,5.6881,5.6881,5.629,5.5343,5.7153,5.7326,5.6473,5.8278,5.9036,5.8944,5.8216,5.8044,5.8231,5.8231,5.8677,5.9364,2.4365,2.3928,2.3738,2.4198,2.4288,2.4611,2.5582,2.5649,2.6126,2.7561,3.0698,3.3118,3.394,3.7189,3.9514,4.0044,4.0111,3.9292,3.7434,3.5483,3.3375,3.1075,3.3259,3.6102,3.9375,4.1812,4.3027,4.3038,4.3468,4.3311,4.2556,4.3138,4.2977,4.227,4.3041,4.3073,4.2604,4.3359,4.3744,4.3773,4.2853,4.1151,3.9046,0.0,0.0,0.0,0.0,0.0,0.0,0.0,0.0,0.0,0.0,0.0,0.0,0.0,0.0,0.0,0.0,0.0,0.0,0.0,0.0,0.0,0.0,0.0,0.0,0.0,0.0,0.0,0.0,0.0,0.0,0.0,4.5773,4.8635,4.8408,5.0209,5.232,5.4418,5.5398,5.5909,5.5968,5.6493,5.663,5.6218,5.664,5.6597,5.5932,5.5044,5.4444,5.4221,5.4547,5.4648,5.4517,5.5962,5.6561,5.6312,5.6503,5.6543,5.6388,5.6388,5.629,5.6233,5.776,5.7938,5.734,5.9382,5.9943,5.9448,5.8915,5.8739,5.8773,5.8773,5.8902,5.9006,2.5083,2.4706,2.4545,2.4894,2.5134,2.5479,2.6165,2.6352,2.6954,2.839,3.1207,3.3438,3.4509,3.7688,3.9945,4.0362,4.066,4.0029,3.8148,3.6008,3.5016,3.5524,3.7046,3.9141,4.1897,4.3452,4.4083,4.3779,4.3686,4.3525,4.3299,4.4113,4.3965,4.3021,4.4061,4.4034,4.3315,4.3929,4.4302,4.4381,4.4163,4.2843,4.1071,4.147,3.9912,3.7582,3.7582,3.7201,3.6461,3.4923,0.0,0.0,0.0,0.0,0.0,0.0,0.0,0.0,0.0,0.0,0.0,0.0,0.0,0.0,0.0,0.0,0.0,0.0,0.0,0.0,0.0,0.0,0.0,0.0,4.8996,5.2363,5.3601,5.4137,5.4835,5.6113,5.6348,5.6334,5.6119,5.6446,5.6592,5.6404,5.6927,5.6998,5.6422,5.574,5.5036,5.4281,5.5008,5.5139,5.457,5.6603,5.75,5.7267,5.7815,5.8032,5.7895,5.7895,5.7499,5.6901,5.8482,5.8405,5.7402,5.938,5.9956,5.9625,0.0,0.0,0.0,0.0,5.9868,5.98,2.5842,2.5633,2.5633,2.5693,2.6183,2.6644,2.6704,2.7225,2.8306,3.0256,3.2188,3.4174,3.6188,3.8788,4.0428,4.0495,4.0988,4.0214,3.7709,3.5799,3.6537,4.0562,4.0942,4.2442,4.5417,4.4671,4.4479,4.4952,4.3958,4.384,4.4584,4.5536,4.5384,4.4328,4.5479,4.5443,4.4455,4.457,4.4802,4.5082,4.5196,4.3977,4.2122,4.299,4.1524,3.905,3.905,3.9036,3.9052,3.8851,0.0,0.0,0.0,0.0,0.0,0.0,0.0,0.0,0.0,0.0,0.0,0.0,0.0,0.0,0.0,0.0,0.0,0.0,0.0,0.0,0.0,0.0,0.0,0.0,5.1887,5.4625,5.7204,5.7646,5.7283,5.6315,5.6499,5.6548,5.613,5.6231,5.6442,5.6794,5.7506,5.7694,5.7184,5.7489,0.0,0.0,0.0,5.6437,5.5225,5.757,5.8657,5.8504,5.9657,6.0225,6.0225,6.0225,5.9222,5.7635,5.9263,5.89,5.7273,5.9012,5.9748,5.9791,6.0336,6.0709,6.0897,6.0779,6.0867,6.1025,2.6554,2.5974,2.5752,2.6303,2.6524,2.6794,2.7315,2.7525,2.8306,3.0256,3.2188,3.4379,3.6915,3.9117,4.0627,4.1177,4.0881,3.9852,3.7871,3.5752,3.6473,4.0766,4.1231,4.2639,4.5274,4.5587,4.5341,4.459,4.4941,4.506,4.4912,4.5667,4.5514,4.4647,4.5578,4.5303,4.4164,4.5015,4.541,4.5559,4.6414,4.6239,4.5457,4.5652,4.6125,4.6677,4.6677,4.6778,4.6582,4.443,4.3328,4.2835,4.2724,4.1288,0.0,0.0,0.0,0.0,0.0,0.0,0.0,0.0,0.0,0.0,0.0,0.0,0.0,0.0,0.0,0.0,0.0,0.0,0.0,5.2437,5.5384,5.7649,5.8015,5.8439,5.8216,5.6837,5.6455,5.6258,5.6118,5.7002,5.7364,5.6905,5.7512,5.7606,5.7,5.6631,5.6295,5.593,5.7017,5.7511,5.7239,5.8832,5.9631,5.9584,5.9617,0.0,5.9645,5.9645,5.9461,5.9147,6.006,5.9824,5.8869,6.0502,6.1177,6.1108,6.0107,5.9743,5.9694,5.8819,5.9445,6.057,2.7165,2.6792,2.6618,2.7021,2.7031,2.7138,2.7555,2.7872,2.8334,2.8959,3.1029,3.3197,3.5185,3.6926,3.8466,3.9771,3.9688,3.9586,3.9692,3.9012,4.0165,4.3651,4.3961,4.4724,4.6224,4.6108,4.5841,4.5552,4.5381,4.5574,4.608,4.6652,4.6719,4.6329,4.7117,4.6789,4.573,4.6258,4.6404,4.6304,4.6849,4.6954,4.6813,4.6996,4.7802,4.8791,4.8926,4.9242,4.944,4.8107,4.7396,4.7038,4.6679,4.5693,4.4383,0.0,0.0,0.0,0.0,0.0,0.0,0.0,0.0,0.0,0.0,0.0,0.0,0.0,0.0,4.8358,4.898,0.0,5.2505,5.458,5.6222,5.7679,5.8922,5.8841,5.8238,5.7137,5.7141,5.7066,5.6531,5.7243,5.7815,5.7926,5.8341,5.8664,5.8801,5.8302,5.7772,5.721,5.8133,5.8375,5.7878,5.9464,6.0257,6.0257,6.0446,6.0553,6.0553,6.0553,6.0291,5.9893,6.0577,6.0389,5.9605,6.1093,6.1702,6.1702,6.1676,6.1178,6.0478,5.9945,6.0535,6.1568,2.7585,2.7476,2.7412,2.756,2.7514,2.7467,2.7625,2.8088,2.8432,2.8392,3.0221,3.2179,3.3805,3.4993,3.6343,3.7887,3.8053,3.9013,4.1262,4.2221,4.3846,4.6486,4.6716,4.6914,4.7184,4.6461,4.6273,4.66,4.5868,4.6138,4.7376,4.7939,4.8232,4.8232,4.877,4.8402,4.7421,4.7585,4.743,4.7084,4.7283,4.7469,4.7641,4.7998,4.8429,4.8841,4.9142,4.9756,5.0452,5.0585,5.07,5.07,5.0104,4.9955,4.9172,4.5276,4.5391,0.0,0.0,0.0,0.0,0.0,0.0,0.0,0.0,4.8065,4.8941,4.9168,5.0172,5.1212,5.1718,5.2293,5.3696,5.6735,5.7043,5.7711,6.0044,5.9533,5.8632,5.7925,5.8127,5.8059,5.7285,5.7719,5.8383,5.9129,5.9285,5.9657,6.044,6.019,5.9637,5.876,5.9489,5.9476,5.8639,6.0015,6.0702,6.0733,6.1206,6.143,6.1461,6.1586,6.1241,6.0572,6.1175,6.1016,6.0486,6.1634,6.2157,6.2306,6.3537,6.3224,6.2162,6.2213,6.253,6.3068,2.7585,2.7412,2.731,2.7577,2.7602,2.7629,2.7759,2.7838,2.8701,3.0948,3.151,3.2828,3.5826,3.6273,3.6464,3.6691,3.6384,3.7498,4.0515,4.1899,4.3814,4.647,4.7095,4.7321,4.7184,4.6948,4.6726,4.66,4.7159,4.7726,4.8381,4.9016,4.9335,4.9335,4.9399,4.8682,4.7453,4.8294,4.8256,4.7698,4.8636,4.9056,4.9109,4.9509,4.9319,4.889,4.9566,5.038,5.1265,5.1927,5.2539,5.3018,5.2919,5.2919,5.2461,5.0048,4.9084,4.7845,4.355,4.126,4.0704,4.3303,4.5505,4.7156,0.0,5.1948,5.515,5.3501,5.5496,5.7599,5.7878,5.8187,5.885,6.0315,6.0553,6.0783,6.1478,6.1365,6.0853,6.0135,5.9151,5.8537,5.8419,5.9175,5.9702,5.9789,5.9586,5.9534,5.9621,6.0197,6.0465,6.0366,6.1002,6.1313,6.1212,6.1153,6.1138,6.1138,6.0969,6.0897,6.0928,6.1488,6.1734,6.1651,6.2093,6.2338,6.2522,6.3016,6.335,6.366,6.4457,6.4503,6.4123,6.4426,6.4405,6.4309,2.7585,2.745,2.7348,2.7463,2.7297,2.7231,2.7522,2.7676,2.8065,2.8977,2.9259,3.0175,3.2304,3.3365,3.3657,3.2938,3.4215,3.6434,3.9748,4.1612,4.4006,4.7095,4.7423,4.7403,4.7184,4.7013,4.6791,4.66,4.7355,4.7973,4.8496,4.9187,4.9712,5.0128,5.0128,4.9641,4.8822,4.9236,4.9079,4.868,4.91,4.9426,4.967,4.9842,4.9766,4.9553,4.8977,4.9333,0.0,5.0862,5.1321,5.1769,5.3008,5.2532,5.1263,4.9801,4.8665,4.7659,4.6615,4.632,4.675,4.8467,5.0768,5.279,5.3349,5.5476,5.7276,5.7019,5.827,5.9559,6.0072,5.9509,5.9813,6.2364,6.1164,6.0581,6.2407,6.2311,6.197,6.1671,6.1011,6.0264,5.942,5.9838,6.0125,6.0066,6.0129,6.0309,6.0709,6.0845,6.0955,6.0955,6.1051,6.1315,6.1717,6.1613,6.1751,6.2121,6.2016,6.1963,6.1994,6.2271,6.2288,6.2162,6.2537,6.2756,6.2927,6.3886,6.434,6.4547,6.5612,6.5738,6.5226,6.4774,6.4659,6.4803,2.7585,2.7463,2.7335,2.7335,2.7,2.6875,2.7339,2.7508,2.7615,2.758,2.7812,2.8397,2.9531,3.0663,3.1116,3.0658,3.2907,3.5915,3.956,4.1784,4.4349,4.7572,4.7621,4.747,4.7301,4.7132,4.6996,4.6858,4.7779,4.8437,4.8826,4.9673,5.0343,5.0858,5.0858,5.0515,4.9988,5.0237,5.0097,4.9699,4.9966,5.0242,5.0472,5.0326,5.0128,4.9728,4.8454,4.8344,4.8813,4.8957,4.9548,5.0351,5.1347,5.0957,4.9931,4.8661,4.7253,4.645,4.8313,4.9157,5.0064,5.2426,5.4366,5.607,5.7439,5.8182,5.8793,5.9578,6.0299,6.0969,6.1562,6.0637,6.0729,6.3617,6.2152,6.1391,6.3551,6.3715,6.3391,6.276,6.2592,6.184,6.0185,6.0487,6.0832,6.0893,6.1,6.1243,6.1633,6.1459,6.1449,6.1634,6.1452,6.1594,6.2086,6.2086,6.2306,6.2798,6.2718,6.2783,6.2968,6.3258,6.3183,6.2872,6.3388,6.3546,6.357,6.4821,6.5366,6.5574,6.6726,6.6848,6.6243,6.5506,6.5297,6.5428,2.7585,2.7399,2.7207,2.7207,2.6814,2.6713,2.7317,2.7419,2.769,2.845,2.858,2.8848,2.9527,2.9475,2.9925,3.1243,3.3171,3.609,4.0271,4.2573,4.4935,4.7572,4.7688,4.7621,4.7487,4.747,4.747,4.747,4.8861,4.9549,4.9597,5.0837,5.1429,5.1462,5.1462,5.1057,5.0442,5.1343,5.1336,5.0731,5.1633,5.2002,5.1972,5.1459,5.0366,4.9047,4.8264,4.8019,4.7834,4.6468,4.7873,4.9862,4.7832,4.857,4.9779,4.7682,4.5481,4.4365,4.7493,4.6654,4.6348,5.2524,5.3647,5.4195,5.7992,5.9762,6.0682,6.0978,6.1988,6.2891,6.3097,6.2771,6.2914,6.42,6.4472,6.4731,6.5259,6.5965,6.5593,6.3413,6.3513,6.2814,6.0498,6.1417,6.2291,6.2612,6.2405,6.2119,6.1805,6.1779,6.2086,6.2733,6.2737,6.2737,6.2768,6.2768,6.2768,6.2798,6.2533,6.2734,6.3406,6.4382,6.4511,6.3993,6.498,6.519,6.4907,6.6007,6.6581,6.6938,6.7696,6.7759,6.7457,6.7397,6.7005,6.6552,2.7585,2.7463,2.7323,2.7323,2.7143,2.7046,2.7237,2.7015,2.6995,2.7468,2.7334,0.0,0.0,0.0,0.0,0.0,3.1261,3.3489,3.7558,3.977,4.2159,4.4941,4.6748,4.7671,4.7621,4.7554,4.7487,4.7487,4.842,4.9108,4.9632,5.0543,5.1245,5.1702,5.1702,5.1539,5.1361,5.1663,5.1722,5.1666,5.1951,5.1894,5.1422,5.0293,4.9207,4.8043,0.0,4.4427,4.4423,4.4439,4.5081,4.6016,4.6747,4.6734,4.6012,4.3944,4.5219,4.7322,4.7618,4.9642,5.2234,5.4613,5.6652,5.8509,6.0189,6.1231,6.204,6.2656,6.1707,6.0935,6.1502,6.0168,5.9987,6.3003,6.2026,6.2274,6.6107,6.431,6.3209,6.4908,6.3746,6.3144,6.3989,6.2965,6.2015,6.1598,6.224,6.2593,6.2487,6.246,6.2579,6.2768,6.2798,6.3014,6.3445,6.3746,6.3878,6.3847,6.4,6.4167,6.441,6.5005,6.5191,6.504,6.5591,6.5742,6.5681,6.6492,6.6883,6.7004,6.7245,6.7274,6.7182,6.7182,6.7032,6.6882,2.7585,2.7488,2.7386,2.7386,2.7284,0.0,0.0,0.0,0.0,0.0,0.0,0.0,0.0,0.0,0.0,0.0,0.0,3.2095,3.5845,3.7839,3.9885,4.2094,4.4108,4.5041,4.479,4.5433,4.5746,4.5746,4.7486,4.8575,4.9035,4.9969,5.0821,5.151,5.151,5.1641,5.1871,5.1699,5.1691,5.1747,5.0937,5.0427,4.9921,4.8223,4.6941,0.0,4.3167,4.1884,4.1527,4.1992,4.2652,4.3443,4.426,4.3952,4.3475,4.414,4.6283,4.8809,5.0173,5.3006,5.594,5.7516,5.9425,6.1113,6.1867,6.2623,6.3266,6.3645,6.2683,6.1632,6.1246,6.0135,5.9996,6.2246,6.179,6.2737,6.7161,6.5763,6.4873,6.6499,6.5262,6.4452,6.4971,6.3865,6.2738,6.1886,6.2415,6.2741,6.2664,6.2798,6.3071,6.3564,6.3752,6.4036,6.4356,6.4621,6.476,6.4803,6.5242,6.5279,6.4952,6.571,6.5771,6.5351,6.6072,6.6221,6.6071,6.6729,6.6999,6.6999,6.6999,6.6999,6.6999,6.6999,6.6999,6.7061,2.7585,2.7501,2.7399,0.0,0.0,0.0,0.0,0.0,0.0,0.0,0.0,0.0,0.0,0.0,0.0,0.0,0.0,0.0,3.5093,3.6805,3.8188,3.9272,4.0119,4.0266,3.9564,4.1452,4.2467,4.2451,4.5897,4.7605,4.7655,4.8871,4.9836,5.0558,5.0558,5.0985,5.1627,5.1151,5.0959,5.0775,4.8718,4.7869,4.7605,4.5486,4.3796,4.2451,4.1732,4.0586,3.9391,3.9391,4.083,4.2397,4.0916,4.1056,4.2777,4.7811,4.865,4.9113,5.4568,5.631,5.7417,6.0879,6.1667,6.1862,6.3005,6.3857,6.4321,6.398,6.4541,6.433,6.2025,6.2002,6.2238,6.1922,6.352,6.5677,6.822,6.9712,6.9813,6.7838,6.7655,6.6563,6.3692,6.4275,6.4426,6.3486,6.3101,6.2806,6.2598,6.2906,6.3659,6.498,6.5568,6.5765,6.5454,6.5425,6.5446,6.5558,6.6191,6.5982,6.5084,6.64,6.6311,6.5174,6.646,6.664,6.6101,6.6729,6.6999,6.6999,6.6999,6.6999,6.7059,6.7151,6.7212,6.7456,0.0,0.0,0.0,0.0,0.0,0.0,0.0,0.0,0.0,0.0,0.0,0.0,0.0,0.0,0.0,0.0,0.0,0.0,3.2824,3.5049,3.6441,3.6733,3.8974,4.0146,3.9942,4.0471,4.0667,4.0516,4.1451,4.2119,4.2482,4.282,4.358,4.4663,4.4663,4.5017,4.5632,4.612,4.6297,4.6334,4.6407,4.6117,4.5437,4.3791,4.2629,4.1696,4.043,3.9721,3.9391,3.9391,4.1201,4.38,4.595,4.7339,4.8104,4.7776,5.1151,5.4861,5.4326,5.7812,6.1756,6.2353,6.303,6.368,6.4202,6.4494,6.4309,6.3188,6.1428,5.9599,5.7883,5.6108,5.6393,6.0868,6.0961,6.1968,6.6167,6.6311,6.5706,6.4977,6.5631,6.5942,6.5368,6.5969,6.608,6.5228,6.4851,6.485,6.5263,6.474,6.5026,6.6337,6.5803,6.5753,6.6157,6.5694,6.5735,6.6251,6.6162,6.5982,6.5742,6.661,6.6819,6.652,6.6849,6.6879,6.6759,6.6909,6.6999,6.6999,6.6999,6.7329,6.7903,6.9029,6.9753,7.0572,0.0,0.0,0.0,0.0,0.0,0.0,0.0,0.0,0.0,0.0,0.0,0.0,0.0,0.0,0.0,0.0,0.0,0.0,0.0,3.3038,3.3801,3.3399,3.5263,3.6128,3.582,3.6901,3.7422,3.7289,3.8745,3.9608,3.9891,4.023,4.0919,4.1913,4.1913,4.2443,4.3339,4.371,4.3913,0.0,0.0,4.3577,4.2838,4.1666,4.0974,4.0538,3.9691,3.9391,3.9787,4.2371,4.3549,4.4739,4.9167,5.07,5.1105,5.2366,5.5103,5.7733,5.7753,6.0584,6.3525,6.3618,6.4225,6.456,6.3693,6.354,6.3035,6.1114,5.9434,5.7795,5.6264,5.5024,5.5824,6.0732,6.1183,6.2365,6.6451,6.6724,6.6358,6.5943,6.6173,6.6747,6.7656,6.7393,6.708,6.681,6.5887,6.5603,6.6316,6.5976,6.6172,6.7059,6.6825,6.6692,6.6625,6.6458,6.6493,6.6703,6.6521,6.643,6.646,6.6819,6.6999,6.6999,6.6999,6.7179,6.7449,6.7449,6.7597,6.7867,6.7867,6.8106,6.853,6.9397,7.0399,7.1631,0.0,0.0,0.0,0.0,0.0,0.0,0.0,0.0,0.0,2.7258,2.7207,2.7081,0.0,0.0,0.0,0.0,0.0,0.0,0.0,0.0,3.131,3.0484,3.1065,3.1099,3.0433,3.2659,3.3794,3.3743,3.6692,3.8107,3.809,3.875,3.9407,4.0097,4.0097,4.0794,4.1965,4.205,4.2101,4.2105,4.1472,4.087,4.0227,0.0,3.9212,3.9152,3.9242,3.9331,4.0299,4.612,4.6618,4.5805,5.1573,5.2903,5.3311,5.8007,5.902,5.9164,6.1877,6.3128,6.3842,6.4616,6.5091,6.4884,6.2922,6.2305,6.1451,5.8919,5.8087,5.7421,5.61,5.6313,5.7755,6.0962,6.259,6.43,6.6735,6.8352,6.8897,6.7996,6.7766,6.8241,6.9702,6.8388,6.7654,6.8256,6.6874,6.6187,6.6637,6.683,6.7087,6.7324,6.8005,6.794,6.7059,6.7306,6.7304,6.7091,6.7029,6.7029,6.7119,6.7119,6.7178,6.7268,6.7268,6.7628,6.8137,6.8137,6.8465,6.9035,6.9226,6.938,6.9503,6.9909,7.0952,7.2381,0.0,0.0,0.0,0.0,0.0,0.0,0.0,0.0,0.0,0.0,2.7271,2.7336,0.0,0.0,0.0,0.0,0.0,0.0,0.0,0.0,0.0,3.1227,3.1343,3.1277,3.0976,3.1942,3.2287,3.1965,3.3005,3.3449,3.3288,3.3435,3.3815,3.4418,3.4418,3.4836,3.5598,3.6731,3.7411,3.7806,3.887,3.9074,3.8762,3.8637,0.0,0.0,3.8362,3.8931,4.0299,4.612,4.7824,4.8539,5.4905,5.7426,5.7881,5.6896,5.9259,6.179,5.9971,6.1941,6.4628,6.516,6.5342,6.5393,6.538,6.3616,6.1371,5.9389,5.7072,5.5519,5.5953,5.6029,5.7172,6.0803,6.2136,6.2365,6.1395,6.5772,6.7972,6.4956,6.7292,6.914,6.9085,6.8176,6.8044,6.917,6.9515,6.9174,6.7935,6.747,6.7304,6.7369,6.7838,6.7997,6.7818,6.7336,6.7213,6.7426,6.7152,6.7299,6.7838,6.7838,6.8137,6.8645,6.8645,6.8704,6.8824,6.8824,6.8884,6.913,7.0404,7.1257,7.2023,7.459,7.6064,7.6971,0.0,0.0,0.0,0.0,0.0,0.0,0.0,2.7585,2.7709,2.7978,2.7921,2.784,2.7894,2.8414,2.8913,0.0,0.0,0.0,0.0,0.0,0.0,3.0711,3.0711,3.068,3.0584,3.1094,3.1271,3.1077,0.0,3.1834,3.1747,3.1747,3.2078,3.2658,3.2658,3.3165,3.4149,3.5212,3.5799,3.6047,3.7504,3.7801,3.7464,3.7762,0.0,0.0,3.8691,3.914,4.0088,4.4769,4.6322,4.7776,5.6065,5.9329,5.9736,5.7985,6.005,6.2459,6.0221,6.2164,6.4932,6.5299,6.5491,6.4973,6.2604,6.0977,5.907,5.5686,5.3883,5.328,5.4402,5.4514,5.6217,6.1663,6.3168,6.3898,6.4628,6.7619,6.9033,6.7231,6.8179,6.9183,6.9738,6.8463,6.8174,6.9491,6.9173,6.9056,6.9493,6.8791,6.8318,6.8192,6.8174,6.8059,6.7759,6.7757,6.7785,6.7754,6.796,6.8196,6.8495,6.8495,6.8704,6.9004,6.9004,6.9183,6.9512,6.9512,7.0201,7.132,7.2058,7.3029,7.42,7.5697,7.6926,7.799,0.0,0.0,0.0,0.0,0.0,0.0,2.7585,2.7585,2.7854,2.8517,2.8648,2.8607,2.8442,2.9341,2.9871,0.0,0.0,0.0,0.0,0.0,0.0,0.0,3.0249,3.0218,3.0142,0.0,0.0,3.0759,3.1265,0.0,0.0,0.0,0.0,0.0,3.2196,3.2793,3.384,3.4548,3.4986,0.0,0.0,3.6783,3.6488,0.0,0.0,0.0,0.0,3.9361,4.0154,4.3555,4.4941,4.6717,5.5266,5.8389,5.8867,5.8925,6.0513,6.2112,6.1558,6.3171,6.509,6.5426,6.5559,6.4475,6.0096,5.8673,5.7092,5.2845,5.1573,5.1719,5.3453,5.3772,5.581,6.2112,6.3178,6.4393,6.7809,6.88,6.9382,6.995,6.9503,6.9682,7.1081,6.9596,6.9055,7.019,6.9022,6.8901,7.0438,6.9888,6.94,6.9105,6.8783,6.8395,6.7909,6.836,6.8476,6.8227,6.8734,6.9064,6.9213,6.9213,6.9273,6.9454,6.9742,7.0233,7.0747,7.1064,7.2213,7.384,7.414,7.5027,7.6124,7.6463,7.7331,7.8398,0.0,0.0,0.0,0.0,0.0,0.0,2.7585,2.7585,2.7854,2.8517,2.9116,2.9646,3.0032,3.0097,3.0306,0.0,0.0,0.0,0.0,0.0,0.0,0.0,0.0,0.0,0.0,0.0,0.0,3.0991,3.1557,0.0,0.0,0.0,0.0,0.0,0.0,3.2107,3.2413,3.292,0.0,0.0,0.0,0.0,0.0,0.0,0.0,0.0,0.0,3.926,4.0755,4.3709,4.5663,4.7586,5.175,5.3086,5.3922,5.7925,5.9692,6.0932,6.3579,6.4686,6.518,6.5647,6.5459,6.4536,6.2123,5.9886,5.7582,5.5016,5.2714,5.2105,5.5003,5.5561,5.6898,6.0936,5.977,5.9923,6.4387,6.5154,6.6422,6.9614,7.0688,7.1655,7.3031,7.2243,7.1837,7.2219,7.1696,7.0951,6.9933,6.9857,6.9843,6.9814,6.9488,6.9296,6.9234,6.9043,6.8945,6.8914,6.8974,6.9303,6.9901,6.9901,7.0201,7.0806,7.2272,7.2953,7.3107,7.4522,7.5197,7.5522,7.6944,7.755,7.7855,7.9288,7.9896,7.9998,0.0,0.0,0.0,0.0,0.0,0.0,2.7585,2.7931,2.844,2.9129,2.9744,3.0374,3.0961,3.0963,3.0981,3.1073,0.0,0.0,0.0,0.0,0.0,0.0,0.0,0.0,0.0,0.0,3.1126,3.105,3.1312,0.0,0.0,0.0,0.0,0.0,0.0,3.223,3.2703,3.2969,0.0,0.0,0.0,0.0,0.0,0.0,0.0,0.0,0.0,0.0,4.0632,4.2198,4.3427,4.4666,4.7022,4.7946,4.8965,5.3228,5.7044,5.987,5.9696,6.2397,6.5324,6.5369,6.5016,6.3802,6.0489,5.8637,5.6707,5.3321,5.1864,5.1796,5.3868,5.4237,5.545,5.9227,5.8804,5.9905,6.5422,6.6352,6.7831,7.1447,7.2827,7.3293,7.29,7.2063,7.1356,7.0977,7.1337,7.1491,7.1357,7.0814,7.034,6.9976,6.9605,6.9321,6.9163,6.9456,6.9602,6.9602,6.9961,7.029,7.053,7.053,7.1198,7.2331,7.2984,7.3808,7.4735,7.5348,7.6152,7.7055,7.7665,7.8452,7.9366,7.9972,8.0209,8.0209,0.0,0.0,0.0,0.0,0.0,2.7585,2.7585,2.8171,2.8846,2.9518,3.0133,3.0747,3.1421,3.1511,3.1424,3.1234,3.122,0.0,0.0,0.0,0.0,0.0,0.0,0.0,0.0,0.0,3.1087,3.1087,3.1087,3.1087,0.0,0.0,3.1338,3.1721,0.0,0.0,0.0,0.0,0.0,0.0,0.0,0.0,0.0,0.0,0.0,0.0,0.0,0.0,0.0,0.0,0.0,4.261,4.3888,4.4738,4.6096,5.0143,5.4868,5.8635,5.7855,6.1434,6.5381,6.5234,6.4419,6.2714,5.9124,5.7376,5.5484,5.1934,5.1206,5.1594,5.2959,5.3052,5.4234,5.8158,5.8139,5.9627,6.5336,6.5897,6.7303,7.1504,7.2572,7.3135,7.3553,7.3032,7.2392,7.178,7.2064,7.2424,7.2807,7.2108,7.1261,7.0432,7.0148,6.986,6.9572,7.0021,7.026,7.0293,7.1164,7.1569,7.1601,7.2078,7.2892,7.3928,7.4375,7.5229,7.6322,7.6776,7.761,7.8591,7.8591,7.9228,8.0209,8.0209,8.0344,8.0513,0.0,0.0,0.0,0.0,0.0,0.0,2.7585,2.8171,2.8846,2.9518,3.0133,3.0747,3.1421,3.1511,3.1511,3.1511,3.1496,0.0,0.0,0.0,0.0,0.0,0.0,0.0,0.0,0.0,3.1087,3.1087,3.1087,3.1087,3.1087,3.1087,3.1087,3.1117,0.0,0.0,0.0,0.0,0.0,0.0,0.0,0.0,3.5347,0.0,0.0,0.0,0.0,0.0,0.0,0.0,0.0,0.0,0.0,4.4237,4.6075,5.0027,5.3699,5.7069,6.0051,6.3055,6.5403,6.5403,6.3645,6.13,5.8837,5.6495,5.4129,5.168,5.1206,5.1594,5.2959,5.2788,5.3789,5.8109,5.7402,5.8042,6.294,6.2175,6.3148,6.8754,6.8921,7.0588,7.5752,7.6151,7.6027,7.6027,7.4943,7.4175,7.3886,7.3561,7.2768,7.1443,7.1392,7.1212,7.0889,7.0889,7.0889,7.0889,7.2425,7.3199,7.323,7.4821,7.5551,7.5666,7.7193,7.7855,7.799,7.9521,8.0183,8.0183,8.0183,8.0209,8.0209,8.0209,8.0648,8.1283,0.0,0.0,0.0,0.0,0.0,0.0,0.0,2.8573,2.9368,2.9578,3.0508,3.1271,3.1481,3.1511,3.1511,3.1511,3.1511,0.0,0.0,0.0,0.0,0.0,0.0,0.0,0.0,0.0,3.1366,3.1366,3.1366,3.1366,3.1366,3.1366,3.1366,3.138,3.1856,3.208,0.0,0.0,0.0,0.0,0.0,3.5408,3.5557,0.0,0.0,0.0,0.0,0.0,0.0,0.0,0.0,0.0,0.0,0.0,0.0,4.6662,5.0051,5.3465,5.443,5.7258,5.9913,5.9913,5.9322,5.8196,5.6323,5.4946,5.3507,5.159,5.1206,5.1594,5.2959,5.3052,5.3992,5.7135,5.6538,5.7686,6.3394,6.3888,6.5723,7.1279,7.3487,7.5087,7.6404,7.5681,7.5165,7.523,7.3676,7.3095,7.3864,7.3415,7.2922,7.2428,7.2046,7.1754,7.1658,7.1371,7.179,7.2891,7.3138,7.3808,7.488,7.5377,7.6181,7.7193,7.7692,7.8478,7.9495,7.9998,8.0479,8.0953,8.0953,8.1257,8.1697,8.1697,8.1866,8.2069,0.0,0.0,0.0,0.0,0.0,0.0,0.0,2.8889,2.9668,2.9907,3.0867,3.1511,3.1511,3.1511,3.1511,3.1511,3.1511,0.0,0.0,0.0,0.0,0.0,0.0,0.0,0.0,3.2243,3.2243,3.2243,3.2243,3.2243,3.2243,3.2243,3.2243,3.2273,3.2691,3.2886,0.0,0.0,0.0,0.0,3.534,3.562,3.5869,0.0,0.0,0.0,0.0,0.0,0.0,0.0,0.0,0.0,0.0,0.0,0.0,0.0,4.7306,5.0354,5.1506,5.4549,5.7398,5.7398,5.6848,5.6034,5.5031,5.3745,5.2473,5.1406,5.1824,5.2496,5.283,5.3367,5.4176,5.5508,5.5989,5.7643,6.1887,6.2634,6.4625,6.9781,7.3456,7.6036,7.7181,7.6173,7.5595,7.5917,7.4034,7.3257,7.4056,7.3385,7.2952,7.2891,7.2325,7.188,7.1594,7.1339,7.1695,7.2705,7.3719,7.4644,7.5637,7.6804,7.7855,7.8776,7.9076,7.9742,0.0,8.0919,8.1291,8.1697,8.1697,8.2002,8.2408,8.2408,8.2577,8.2813,0.0,0.0,0.0,0.0,0.0,0.0,0.0,2.9219,2.9877,3.0432,3.1062,3.1511,3.1511,3.1511,3.154,3.157,0.0,0.0,0.0,0.0,0.0,0.0,0.0,0.0,0.0,3.3484,3.3484,3.3484,3.3484,3.3484,3.3484,3.3484,3.3484,3.3484,3.3544,3.3604,0.0,0.0,0.0,0.0,3.5519,3.578,0.0,0.0,0.0,0.0,0.0,0.0,0.0,0.0,0.0,0.0,0.0,0.0,0.0,0.0,0.0,0.0,0.0,5.405,5.6793,5.6726,5.5624,5.4537,5.4514,5.2829,0.0,5.1419,5.3048,5.407,5.2907,5.3962,5.4773,5.3879,5.5981,5.8071,5.9144,5.9742,6.1568,6.5627,7.0219,7.441,7.7965,7.7389,7.7099,7.7751,7.5753,7.4482,7.4389,7.3477,7.2922,7.2891,7.2357,7.169,7.0984,7.0921,7.0986,7.1148,7.405,7.5525,7.5759,7.8737,8.0124,8.0226,8.1029,8.1384,8.1452,8.2137,8.2441,8.2475,8.2475,8.2509,8.2577,8.2577,8.2983,8.3592,0.0,0.0,0.0,0.0,0.0,0.0,0.0,0.0,0.0,0.0,3.1062,3.1511,3.1511,3.1511,3.172,0.0,0.0,0.0,0.0,0.0,0.0,0.0,0.0,0.0,0.0,3.3484,3.3484,3.3484,3.3484,3.3484,3.3484,3.3484,3.3484,3.3514,3.4039,3.4548,0.0,0.0,0.0,0.0,3.5519,3.5875,0.0,0.0,0.0,0.0,3.9152,3.9391,0.0,0.0,0.0,0.0,0.0,0.0,0.0,0.0,4.3868,4.5214,4.6889,0.0,5.1023,5.0239,5.106,5.1931,0.0,5.1756,5.2287,5.3432,5.4287,5.5001,5.5396,5.7144,5.8034,5.6486,5.878,6.0856,6.112,6.548,6.8472,6.8089,7.3426,7.6924,7.6485,7.733,7.7909,7.7812,7.6435,7.5256,7.4451,7.3754,7.32,7.2922,7.2546,7.2167,7.1754,7.1435,7.1918,7.3139,7.3597,7.469,7.6377,7.837,7.9552,8.0116,8.1533,8.2137,8.2171,8.234,8.2746,8.3253,8.3253,8.3592,8.4072,8.4072,8.4174,8.4343,0.0,0.0,0.0,0.0,0.0,0.0,0.0,0.0,0.0,0.0,0.0,3.1511,3.1511,3.1511,0.0,0.0,0.0,0.0,0.0,0.0,0.0,0.0,0.0,0.0,3.4412,3.4412,3.4412,3.4412,3.4412,3.4412,3.4412,3.4412,3.4412,3.4442,3.4817,3.516,0.0,0.0,0.0,3.5519,3.5818,0.0,0.0,0.0,0.0,0.0,3.9272,3.9391,0.0,3.9391,3.9631,3.9953,0.0,0.0,0.0,0.0,4.3343,4.4523,4.528,4.691,4.8607,4.9294,4.9986,5.0834,5.1971,5.1839,5.2118,5.4372,5.5055,5.5359,5.587,5.7229,5.8001,5.7204,5.8569,6.025,6.1737,6.5946,6.8626,6.7935,7.2101,7.5314,7.6006,7.7309,7.8059,7.8096,7.6319,7.4948,7.4209,7.357,7.3231,7.3164,7.291,7.2624,7.2463,7.2049,7.2459,7.3626,7.3973,7.4779,7.5978,7.836,7.9666,8.0117,8.2046,8.2915,8.2949,8.3261,8.3659,8.3998,8.3998,8.4242,8.4614,8.4614,8.4614,8.4614,0.0,0.0,0.0,0.0,0.0,0.0,0.0,0.0,0.0,0.0,0.0,0.0,0.0,0.0,0.0,0.0,0.0,0.0,0.0,0.0,0.0,0.0,0.0,3.5519,3.5519,3.5519,3.5519,3.5519,3.5519,3.5519,3.5519,3.5519,3.5519,3.5519,3.5519,3.5519,0.0,0.0,3.5519,3.5579,3.6224,0.0,0.0,0.0,0.0,0.0,0.0,0.0,0.0,3.9391,3.9373,3.9372,3.9557,0.0,0.0,0.0,0.0,0.0,4.5011,4.6229,4.8044,5.0721,5.0634,5.0723,5.3726,5.2634,5.1925,5.5189,5.5962,5.6033,5.6058,5.7122,5.7785,5.72,5.7799,5.9441,6.2658,6.5361,6.7138,6.7491,7.0164,7.3227,7.633,7.7341,7.8021,7.8529,7.6168,7.4546,7.4152,7.3478,7.3289,7.3646,7.3324,7.3191,7.3282,7.2804,7.292,7.3693,7.4734,7.54,7.587,7.882,8.0259,8.0446,8.2684,8.3659,8.3727,8.4343,8.4614,8.4614,8.4614,8.4614,8.4614,8.4614,8.4614,8.4614,0.0,0.0,0.0,0.0,0.0,0.0,0.0,0.0,0.0,0.0,0.0,0.0,0.0,0.0,0.0,0.0,0.0,0.0,0.0,0.0,0.0,0.0,0.0,0.0,3.5519,3.5519,3.5519,3.5519,3.5519,3.5519,3.5519,3.5519,3.5519,3.5519,3.5519,3.5519,3.5519,3.5519,3.5519,3.5579,3.6224,0.0,0.0,0.0,0.0,0.0,0.0,0.0,0.0,3.9391,3.9283,3.9156,3.9172,0.0,0.0,0.0,0.0,0.0,4.5712,4.6685,4.8038,5.0677,5.112,5.1654,5.4303,5.3809,5.3786,5.7226,5.8242,5.852,5.8695,6.2039,6.3115,5.7954,6.0403,6.4116,6.7314,7.0512,7.1926,7.045,7.4245,7.715,7.7629,7.7747,7.8197,7.9173,7.7297,7.581,7.5207,7.4532,7.4217,7.4254,7.3961,7.4008,7.4585,7.368,7.3866,7.4991,7.5212,7.6338,7.8314,8.0174,8.1303,8.1958,8.3691,8.4411,8.4444,8.4546,8.4614,8.4614,8.4614,8.4614,8.4614,8.4614,8.4614,8.4614,0.0,0.0,0.0,0.0,0.0,0.0,0.0,0.0,0.0,0.0,0.0,0.0,0.0,0.0,0.0,0.0,0.0,0.0,0.0,0.0,0.0,0.0,0.0,0.0,0.0,3.5519,3.5519,3.5519,3.5519,3.5519,3.5519,3.5519,3.5519,3.5519,3.5519,3.5519,3.5519,3.5878,3.6028,3.6118,0.0,0.0,0.0,0.0,0.0,0.0,0.0,0.0,0.0,0.0,3.9265,3.916,3.9358,0.0,0.0,0.0,0.0,0.0,4.5675,4.6589,4.8365,5.3807,5.3021,5.2569,5.8816,5.6433,5.4504,6.029,5.8791,5.7028,5.8969,6.1241,6.2737,6.2338,6.6147,6.9314,6.9799,7.183,7.2932,7.2076,7.5514,7.7627,7.6682,7.8355,7.9242,7.8626,7.7716,7.6929,7.6296,7.5434,7.5084,7.5249,7.4729,7.5132,7.6496,7.6058,7.6132,7.671,7.7402,7.8303,7.9382,8.1011,8.1929,8.2288,8.3893,8.4614,8.4614,8.4614,8.4614,8.4614,8.4614,8.4614,8.4614,8.4614,8.4614,8.4614,0.0,0.0,0.0,0.0,0.0,0.0,0.0,0.0,0.0,0.0,0.0,0.0,0.0,0.0,0.0,0.0,0.0,0.0,0.0,0.0,0.0,0.0,0.0,0.0,0.0,3.5519,3.5519,3.5519,3.5669,3.5818,3.5938,3.5938,3.5938,3.5938,3.5938,3.5938,3.5998,3.6477,3.6716,3.6823,0.0,0.0,0.0,0.0,0.0,0.0,0.0,0.0,0.0,0.0,0.0,0.0,0.0,0.0,0.0,4.1702,4.2789,4.4384,4.6114,4.7116,4.9354,5.6325,5.4524,5.3509,6.2884,5.8783,5.5206,6.3089,6.0095,5.6951,5.9866,6.0161,6.1676,6.6968,7.0508,7.2594,7.2526,7.3592,7.4427,7.4498,7.6718,7.7913,7.7084,7.8946,7.9711,7.8471,7.7862,7.7411,7.702,7.6119,7.5699,7.5857,7.5695,7.6271,7.7739,7.8534,7.891,7.891,7.9894,8.0558,8.0944,8.2202,8.2741,8.283,8.4062,8.4614,8.4614,8.4614,8.4614,8.4614,8.4614,8.4614,8.4614,8.4614,8.4614,8.4614,0.0,0.0,0.0,0.0,0.0,0.0,0.0,0.0,0.0,0.0,0.0,0.0,0.0,0.0,0.0,0.0,0.0,0.0,0.0,0.0,0.0,0.0,0.0,0.0,0.0,3.5519,3.5519,3.5519,3.6118,3.6716,3.7255,3.7255,3.7255,3.7255,3.7255,3.7255,3.7285,3.7298,3.7345,3.7404,3.8093,0.0,0.0,0.0,0.0,0.0,0.0,0.0,0.0,0.0,0.0,0.0,0.0,0.0,4.1253,4.225,4.3825,4.5727,4.7747,4.9262,5.1321,5.5865,5.4544,5.4533,6.3886,5.9822,5.6441,6.4721,6.3698,6.1805,6.3302,6.1649,6.251,6.9954,7.0562,7.1817,7.6878,7.825,7.8895,7.9238,7.9235,7.9798,8.1396,7.9457,7.8595,7.9771,7.7818,7.6743,7.6994,7.6326,7.5822,7.5459,7.6896,7.7579,7.7354,8.0376,8.1882,8.1882,8.1968,8.283,8.4251,8.4392,8.4419,8.4446,8.4526,8.4614,8.4614,8.4614,8.4614,8.4614,8.4614,8.4614,8.4614,8.4614,8.4614,8.4614,0.0,0.0,0.0,0.0,0.0,0.0,0.0,0.0,0.0,0.0,0.0,0.0,0.0,0.0,0.0,0.0,0.0,0.0,0.0,0.0,0.0,0.0,0.0,3.5699,3.6118,3.6118,3.6118,3.6118,3.6746,3.7195,3.7387,3.7387,3.7387,3.7387,3.7387,3.7387,3.7434,3.7853,3.8033,3.8093,3.8751,3.9002,0.0,0.0,0.0,0.0,0.0,0.0,0.0,0.0,3.9295,3.9362,3.9793,4.1185,4.2652,4.2532,4.4403,4.6712,4.7538,4.8991,5.1504,5.6764,5.5743,5.5908,6.5317,6.2417,5.9883,6.7375,6.4856,6.1556,6.2487,6.5567,6.8866,7.1725,7.3749,7.5843,7.8398,7.8837,7.9041,7.9419,7.9573,7.9659,7.9746,7.9568,7.925,7.879,7.8738,7.8436,7.7712,7.7199,7.7131,7.7544,7.777,7.8691,8.0346,8.156,8.2684,8.3701,8.3701,8.4035,8.4614,8.4614,8.4614,8.4614,8.4614,8.4614,8.4614,8.4614,8.4614,8.4614,8.4614,8.4614,8.4614,8.4614,8.4614,8.4614,0.0,0.0,0.0,0.0,0.0,0.0,0.0,0.0,0.0,0.0,0.0,0.0,0.0,0.0,0.0,0.0,0.0,0.0,0.0,3.5519,3.5519,3.5519,3.5699,3.6028,3.6493,3.6883,3.7002,3.6776,3.7404,3.7823,3.8015,3.8015,3.8015,3.8015,3.8015,3.8015,3.8045,3.8512,3.8721,3.8751,3.9212,3.9391,0.0,0.0,0.0,0.0,0.0,0.0,0.0,0.0,3.9361,3.9547,4.0362,4.1642,4.2973,4.3487,4.5199,4.7172,4.8243,4.9647,5.2126,5.7469,5.6655,5.7004,6.6499,6.4095,6.1814,6.8633,6.6794,6.4229,6.5125,6.8515,7.1563,7.2744,7.4902,7.6933,7.8481,7.8504,7.8559,7.8961,7.9397,7.948,7.8973,7.9664,7.9745,7.8713,7.9158,7.9163,7.8437,7.7732,7.7638,7.828,7.866,7.9713,8.1592,8.2487,8.3503,8.4614,8.4614,8.4614,8.4614,8.4614,8.4614,8.4614,8.4614,8.4614,8.4614,8.4614,8.4614,8.4614,8.4614,8.4614,8.4614,8.4614,8.4614,8.4614,0.0,0.0,0.0,0.0,0.0,0.0,0.0,0.0,0.0,0.0,0.0,0.0,0.0,0.0,0.0,0.0,0.0,0.0,3.5519,3.5519,3.5519,3.5519,3.6118,3.6493,3.6523,3.7751,3.8093,3.7417,3.8093,3.8751,3.9391,3.9391,3.9391,3.9391,3.9421,3.9421,3.9391,3.9421,3.9421,3.9391,3.9391,3.9391,3.9391,0.0,0.0,0.0,0.0,0.0,0.0,0.0,3.9247,3.9594,4.075,4.111,4.1808,4.5302,4.6318,4.704,5.0331,5.1803,5.3451,5.7788,5.7015,5.7699,6.7142,6.4444,6.1746,6.8122,7.0038,7.1016,7.232,7.0058,6.9248,7.3086,7.3236,7.3983,7.7178,7.7734,7.7934,7.8353,7.9032,7.9653,8.0058,7.9784,7.9722,8.0061,7.888,7.8374,7.9037,7.7764,7.7016,7.7016,7.9469,8.065,8.035,8.3171,8.4614,8.4614,8.4614,8.4614,8.4614,8.4614,8.4614,8.4614,8.4614,8.4614,8.4614,8.4614,8.4614,8.4614,8.4614,8.4614,8.4614,8.4614,8.4614,8.4614,0.0,0.0,0.0,0.0,0.0,0.0,0.0,0.0,0.0,0.0,0.0,0.0,0.0,0.0,0.0,0.0,0.0,0.0,3.5519,3.5519,3.5519,3.5519,3.6118,3.6686,3.7135,3.8422,3.9002,3.8823,3.9002,3.9212,3.9391,3.9391,3.9391,3.9421,4.0034,3.9956,3.9439,4.0034,3.9956,3.9391,3.9391,3.9391,3.9391,0.0,0.0,0.0,0.0,0.0,0.0,0.0,0.0,0.0,4.0554,4.1792,4.3604,4.6933,4.7593,4.8104,5.2156,5.2551,5.2683,5.6147,5.777,5.9001,6.1019,6.2104,6.4151,6.9273,7.0813,7.0963,7.0102,7.275,7.4927,7.454,7.5714,7.7166,7.8587,7.846,7.8104,7.7796,7.8107,7.8433,7.8618,7.8958,7.9118,7.8974,7.9069,7.8786,7.8023,7.7861,7.7926,7.8343,7.9959,8.1183,8.2001,8.3729,8.4614,8.4614,8.4614,8.4614,8.4614,8.4614,8.4614,8.4614,8.4614,8.4614,8.4614,8.4614,8.4614,8.4614,8.4614,8.4614,8.4614,8.4614,8.4614,8.4614,0.0,0.0,0.0,0.0,0.0,0.0,0.0,0.0,3.4009,3.4262,3.4651,3.4907,0.0,0.0,0.0,3.5519,3.5519,0.0,3.5519,3.5519,3.5519,3.5519,3.6357,3.7285,3.8165,3.9002,3.9391,3.9391,3.9391,3.9391,3.9391,3.9391,3.9391,3.9421,3.9883,3.9805,3.9421,3.9883,3.9805,3.9391,3.9391,3.9391,3.9391,0.0,0.0,0.0,0.0,0.0,0.0,0.0,0.0,0.0,4.1439,4.3377,4.5755,4.8164,4.9031,5.0188,5.4801,5.5123,5.5341,6.044,6.1005,6.0424,6.0907,6.3002,6.643,7.2037,7.2993,7.2665,7.2336,7.485,7.6735,7.5884,7.6948,7.8092,7.8628,7.8315,7.8043,7.8091,7.7971,7.8014,7.8218,7.8623,7.8688,7.8375,7.9068,7.9224,7.8533,7.8911,7.9378,7.9837,8.0947,8.1944,8.2689,8.3981,8.4614,8.4614,8.4614,8.4614,8.4614,8.4614,8.4614,8.4614,8.4614,8.4614,8.4614,8.4614,8.4614,8.4614,8.4614,8.4614,8.4614,8.4614,8.4614,8.4614,0.0,0.0,3.2572,0.0,0.0,0.0,0.0,3.4548,3.4817,3.5429,3.5519,3.5519,0.0,0.0,0.0,3.5519,3.5519,3.5519,3.5519,3.5519,3.5519,3.5519,3.6699,3.8015,3.9361,3.9391,3.9391,3.9391,3.9391,3.9391,3.9391,3.9391,3.9373,3.9355,3.927,3.9288,3.9355,3.9329,3.9318,3.9421,3.9481,3.9481,3.9481,3.9421,0.0,0.0,0.0,0.0,0.0,0.0,0.0,0.0,4.2753,4.516,4.7743,4.9044,5.0592,5.2929,5.7954,5.8677,5.9849,6.7484,6.5118,6.1901,6.5485,6.6535,6.8675,7.5483,7.5585,7.5121,7.7226,7.6431,7.5832,7.7041,7.7341,7.7477,7.7802,7.7687,7.791,7.8786,7.8396,7.8187,7.847,7.8533,7.8437,7.8246,7.8974,7.9625,8.0085,8.0595,8.0977,8.1245,8.2173,8.2718,8.2718,8.3981,8.4614,8.4614,8.4614,8.4614,8.4614,8.4614,8.4614,8.4614,8.4614,8.4614,8.4614,8.4614,8.4614,8.4614,8.4614,8.4614,8.4614,8.4614,8.4614,8.4614,0.0,0.0,3.3275,3.3275,0.0,0.0,3.4474,3.4967,3.534,3.5489,3.5519,3.5519,3.5519,3.5519,0.0,3.5519,3.5519,3.5519,3.5519,3.5519,3.5519,3.5519,3.6699,3.8015,3.9361,3.9391,3.9391,3.9391,3.9391,3.9391,3.9391,3.9391,3.9319,3.9174,3.9827,3.9748,3.9252,4.0424,4.033,3.9451,3.996,4.0187,4.0127,3.9601,3.972,0.0,0.0,0.0,0.0,0.0,0.0,0.0,4.2099,4.4039,4.6422,4.9543,5.2043,5.4976,6.0366,6.0059,5.9096,6.2804,6.2543,6.3299,7.0787,7.1294,7.1333,7.5245,7.4317,7.3792,7.7002,7.6943,7.6685,7.7548,7.7941,7.8104,7.7989,7.863,7.8902,7.8273,7.8375,7.828,7.7798,7.8022,7.8438,7.9068,7.9595,8.0205,8.0982,8.1127,8.1095,8.0917,8.2087,8.2718,8.2718,8.3981,8.4614,8.4614,8.4614,8.4614,8.4614,8.4614,8.4614,8.4614,8.4614,8.4614,8.4614,8.4614,8.4614,8.4614,8.4614,8.4614,8.4614,8.4614,8.4614,8.4614,0.0,0.0,0.0,0.0,0.0,0.0,0.0,0.0,3.5848,3.5549,3.5519,3.5519,3.5519,3.5519,0.0,0.0,3.5519,3.5519,3.5519,3.5519,3.5789,3.6387,3.7045,3.8015,3.9361,3.9391,3.9391,3.9391,3.9391,3.9391,3.9391,3.9391,3.9283,3.9119,3.9574,3.9594,3.9327,4.0345,4.049,4.0051,4.0651,4.0894,4.0816,4.0487,4.0756,4.1373,4.1373,0.0,0.0,0.0,0.0,0.0,0.0,0.0,4.771,4.9553,5.2013,5.514,5.9666,6.0896,6.1696,6.5014,6.6638,6.8442,7.2084,7.3159,7.3935,7.5881,7.5164,7.4771,7.6664,7.6463,7.632,7.7023,7.7467,7.7774,7.7974,7.8621,7.8942,7.8563,7.8439,7.8214,7.7829,7.8374,7.8817,7.9161,8.0475,8.1483,8.1944,8.2548,8.2802,8.2633,8.3254,8.3619,8.3619,8.4285,8.4614,8.4614,8.4614,8.4614,8.4614,8.4614,8.4614,8.4614,8.4614,8.4614,8.4614,8.4614,8.4614,8.4614,8.4614,8.4614,8.4614,8.4614,8.4614,8.4614,0.0,0.0,0.0,0.0,0.0,0.0,0.0,0.0,0.0,3.5579,3.5519,3.5519,3.5519,3.5519,3.5519,0.0,0.0,0.0,3.5519,3.5609,3.6207,3.7357,3.7524,3.8135,3.9361,3.9391,3.9391,3.9391,3.9391,3.9391,3.9391,3.9391,3.9283,3.909,3.909,3.9273,3.9542,4.0038,4.0499,4.0868,4.1371,4.1583,4.1583,4.1583,4.1972,4.2571,4.271,4.2891,4.319,4.3519,0.0,0.0,0.0,0.0,4.9334,4.9217,5.1593,5.497,5.8134,6.1552,6.5192,6.9214,7.1502,7.2633,7.1908,7.3509,7.5417,7.6399,7.6403,7.6239,7.6264,7.5806,7.5594,7.6202,7.6751,7.7297,7.7838,7.8251,7.8628,7.8974,7.8405,7.8086,7.831,7.8911,7.9377,7.9562,8.1509,8.2802,8.2998,8.4035,8.4614,8.4614,8.4614,8.4614,8.4614,8.4614,8.4614,8.4614,8.4614,8.4614,8.4614,8.4614,8.4614,8.4614,8.4614,8.4614,8.4614,8.4614,8.4614,8.4614,8.4614,8.4614,8.4614,8.4614,8.4614,8.4614,0.0,0.0,0.0,0.0,0.0,0.0,0.0,0.0,0.0,0.0,3.5519,3.5519,3.5519,3.5519,3.5519,3.5519,3.5519,3.5519,3.5519,0.0,0.0,3.7375,3.7973,3.8631,3.9391,3.9391,3.9391,3.9391,3.9391,3.9391,3.9391,3.9391,3.9283,3.909,3.909,3.9457,4.0054,4.0704,4.1086,4.1338,4.2032,4.2261,4.2261,4.2261,4.2661,4.325,4.3818,4.3708,4.3449,4.4625,4.4665,0.0,0.0,0.0,4.8506,4.857,5.2067,5.635,5.843,6.2587,6.7052,7.0179,6.9521,6.9077,7.2778,7.3173,7.3363,7.5445,7.5877,7.5948,7.6267,7.5806,7.5506,7.5904,7.6782,7.7449,7.7558,7.8188,7.8596,7.8565,7.7991,7.7992,7.9098,7.9067,7.9837,8.203,8.252,8.3199,8.4312,8.45,8.4614,8.4614,8.4614,8.4614,8.4614,8.4614,8.4614,8.4614,8.4614,8.4614,8.4614,8.4614,8.4614,8.4614,8.4614,8.4614,8.4614,8.4614,8.4614,8.4614,8.4614,8.4614,8.4614,8.4614,8.4614,8.4614,0.0,0.0,0.0,0.0,0.0,0.0,0.0,0.0,0.0,0.0,0.0,3.5519,3.5519,3.5519,3.5519,3.5519,3.5519,3.5519,3.5519,3.6118,3.6776,3.7357,3.8033,3.8721,3.9391,3.9391,3.9391,3.9391,3.9391,3.9391,3.9391,3.9391,3.9283,3.9137,3.9714,4.0103,4.034,4.1501,4.2046,4.2208,4.3101,4.3449,4.3509,4.3888,4.4436,4.5074,0.0,0.0,4.6262,4.7211,4.7035,4.6475,4.7052,0.0,0.0,0.0,5.1008,5.4887,6.0721,6.2416,6.4229,7.1401,7.0487,6.9047,7.3776,7.3794,7.3571,7.6029,7.6298,7.6095,7.6005,7.5661,7.5574,7.6138,7.6488,7.6838,7.743,7.7772,7.7959,7.7959,7.8311,7.8754,7.9347,7.9746,8.0742,8.2576,8.2718,8.3254,8.4526,8.4614,8.4614,8.4614,8.4614,8.4614,8.4614,8.4614,8.4614,8.4614,8.4614,8.4614,8.4614,8.4614,8.4614,8.4614,8.4614,8.4614,8.4614,8.4614,8.4614,8.4614,8.4614,8.4614,8.4614,8.4614,8.4614,8.4614,0.0,0.0,0.0,0.0,0.0,0.0,0.0,0.0,0.0,0.0,0.0,3.5519,3.5519,0.0,0.0,0.0,3.5519,3.5579,3.5729,3.6357,3.7015,3.7644,3.8302,3.8901,3.9391,3.9391,3.9391,3.9391,3.9391,3.9391,3.9391,3.9625,3.9649,3.9521,4.0106,4.0737,4.1458,4.2453,4.3136,4.3606,4.4448,4.4699,4.4646,4.5484,0.0,4.6659,4.7519,0.0,0.0,0.0,0.0,4.8358,4.8629,4.862,0.0,0.0,0.0,5.307,6.0722,6.0704,6.0704,7.001,6.9371,6.7731,7.2558,7.2981,7.3055,7.5676,7.6379,7.641,7.589,7.5574,7.57,7.6609,7.6461,7.662,7.7611,7.7765,7.7862,7.8119,7.8691,7.9409,8.0294,8.0712,8.1534,8.3087,8.3199,8.3619,8.4526,8.4614,8.4614,8.4614,8.4614,8.4614,8.4614,8.4614,8.4681,8.4884,8.4681,8.4614,8.4614,8.4614,8.4614,8.4614,8.4614,8.4614,8.4614,8.4614,8.4614,8.4614,8.4614,8.4614,8.4614,8.4614,8.4614,8.4614,0.0,0.0,0.0,0.0,0.0,0.0,0.0,0.0,0.0,0.0,0.0,3.5519,3.5519,3.5519,3.5519,3.5519,3.5519,3.5759,3.6404,3.7015,3.7644,3.832,3.899,0.0,3.9391,3.9391,3.9391,3.9391,3.9391,3.9391,3.9421,4.0239,4.0631,4.0582,3.9829,4.118,4.4064,4.349,4.4273,4.5849,4.6112,4.5809,4.5394,0.0,0.0,0.0,0.0,0.0,0.0,0.0,0.0,0.0,0.0,4.933,4.9439,0.0,0.0,0.0,5.5972,5.6825,5.7994,6.3996,6.3469,6.2735,6.7559,6.9166,7.0346,7.2974,7.5471,7.6891,7.5948,7.5574,7.5848,7.7217,7.7197,7.7303,7.8407,7.8533,7.8849,7.975,7.8849,7.9472,8.2789,8.1976,8.2173,8.4339,8.45,8.4526,8.4614,8.4614,8.4614,8.4614,8.4614,8.4614,8.4614,8.4614,8.4979,8.575,8.4979,8.4614,8.4614,8.4614,8.4614,8.4614,8.4614,8.4614,8.4614,8.4614,8.4614,8.4614,8.4614,8.4614,8.4614,8.4614,8.4614,8.4614,0.0,0.0,0.0,0.0,0.0,0.0,0.0,0.0,0.0,0.0,0.0,0.0,0.0,0.0,0.0,3.5519,3.5878,0.0,0.0,3.7481,3.8153,3.8409,3.9032,3.9391,3.9391,3.9391,3.9391,3.9391,3.9391,3.9391,3.9421,3.9721,4.016,4.0728,4.1546,4.2421,4.3392,4.5007,0.0,4.5263,4.9533,4.9362,4.6946,0.0,0.0,0.0,0.0,0.0,0.0,0.0,0.0,0.0,0.0,0.0,0.0,5.075,5.0274,5.0877,5.6382,5.5721,5.5101,6.2089,6.1272,6.0047,6.5025,6.7865,6.9671,7.0623,7.4216,7.6599,7.4591,7.4994,7.5775,7.6101,7.6455,7.6899,7.7496,7.7965,7.8405,7.8723,7.9595,8.0655,8.189,8.2149,8.2858,8.4473,8.3239,8.3063,8.4526,8.3981,8.3947,8.458,8.4614,8.4614,8.4614,8.5114,8.5249,8.5046,8.4749,8.4614,8.4614,8.4614,8.4614,8.4614,8.4614,8.4614,8.4614,8.4614,8.4614,8.4614,8.4614,8.4614,8.4614,8.4614,8.4614,8.4614,0.0,0.0,0.0,0.0,0.0,0.0,0.0,0.0,0.0,0.0,0.0,0.0,0.0,0.0,0.0,3.6148,3.6537,3.6913,3.7122,3.793,3.8482,3.8721,3.9152,3.9391,3.9391,3.9391,3.9391,3.9391,3.9391,3.9391,3.9421,3.9703,4.016,4.0758,4.2453,4.3419,4.3968,0.0,0.0,4.7283,0.0,0.0,5.0284,0.0,0.0,0.0,0.0,0.0,0.0,0.0,0.0,0.0,0.0,0.0,0.0,0.0,5.0531,5.0589,5.4827,5.361,5.2519,5.7994,5.7433,5.6755,6.1388,6.5493,6.852,6.9416,7.394,7.7162,7.5342,7.5765,7.6353,7.6402,7.6728,7.7112,7.7621,7.8093,7.8533,7.8814,8.0258,8.1424,8.2063,8.2576,8.3371,8.45,8.3211,8.2974,8.4526,8.3981,8.3913,8.458,8.485,8.5012,8.5012,8.552,8.552,8.5012,8.4715,8.4614,8.4614,8.4614,8.4614,8.4614,8.4614,8.4614,8.4614,8.4614,8.4614,8.4614,8.4614,8.4614,8.4614,8.4614,8.4614,8.4614,0.0,0.0,0.0,0.0,0.0,0.0,0.0,0.0,0.0,0.0,0.0,0.0,0.0,0.0,0.0,3.7387,3.7434,3.7704,3.838,3.8439,3.8721,3.9361,0.0,0.0,3.9391,3.9391,3.9391,3.9391,3.9421,3.9421,3.9421,4.0269,4.0679,4.0739,4.2273,4.4098,4.6055,0.0,4.9379,5.1922,0.0,5.3058,5.517,0.0,0.0,0.0,6.0834,6.1159,0.0,0.0,0.0,0.0,0.0,0.0,0.0,0.0,0.0,5.0809,0.0,0.0,0.0,5.1484,5.1791,5.2771,5.6416,6.1758,6.6665,6.9245,7.4429,7.8485,7.8309,7.787,7.7709,7.8353,7.8155,7.8171,7.8907,7.9003,7.9364,8.0308,8.0808,8.1756,8.3515,8.346,8.3714,8.4526,8.458,8.458,8.4614,8.4647,8.4681,8.4681,8.5452,8.5824,8.5817,8.5817,8.5817,8.5784,8.4952,8.4614,8.4614,8.4614,8.4614,8.4614,8.4614,8.4614,8.4614,8.4614,8.4614,8.4614,8.4614,8.4614,8.4614,8.4614,8.4614,8.4614,0.0,0.0,0.0,0.0,0.0,3.9331,3.9152,3.9122,3.9062,0.0,0.0,0.0,0.0,0.0,0.0,3.7387,3.7853,3.8182,3.8409,3.8841,3.9212,3.9391,3.9391,3.9391,3.9391,3.9391,3.9391,3.9391,3.9888,3.9888,3.9421,4.0153,4.0489,4.0519,4.1584,4.3259,4.5456,4.804,0.0,4.9249,5.654,5.6629,0.0,0.0,0.0,0.0,0.0,6.2668,0.0,0.0,6.1134,5.7038,0.0,0.0,0.0,0.0,0.0,0.0,5.1138,0.0,0.0,0.0,0.0,0.0,5.3164,5.7589,6.2074,6.3954,6.9603,7.4612,7.5906,7.825,7.9989,8.0185,7.8919,7.8171,7.8907,7.9451,8.0044,8.0761,8.1541,8.2395,8.3321,8.3933,8.4339,8.4553,8.3947,8.4089,8.5418,8.5993,8.6237,8.6237,8.7008,8.6873,8.5817,8.6332,8.6061,8.4945,8.4715,8.4614,8.4614,8.4614,8.4614,8.4614,8.4614,8.4614,8.4614,8.4614,8.4614,8.4614,8.4614,8.4614,8.4614,8.4614,8.4614,8.4614,0.0,0.0,3.9391,3.9391,3.9391,3.9391,3.9391,3.9391,3.9391,0.0,0.0,0.0,0.0,0.0,0.0,0.0,3.902,3.9367,3.9637,4.0008,4.0247,4.0247,3.9978,3.9828,3.9828,3.9828,3.966,3.9391,4.0068,4.0217,3.981,3.9948,4.0277,4.0864,4.1625,4.3003,4.4911,4.8162,0.0,0.0,5.8384,0.0,0.0,6.5263,6.5695,0.0,0.0,0.0,6.6609,6.841,6.495,0.0,0.0,0.0,0.0,0.0,0.0,0.0,0.0,0.0,5.1238,5.0962,0.0,0.0,5.2715,5.7273,6.2018,6.4644,7.0575,7.5262,7.5137,7.6694,7.8169,7.8754,7.7635,7.7412,7.9492,8.0283,8.0749,8.1098,8.2198,8.3203,8.3899,8.4648,8.5249,8.5527,8.502,8.5155,8.6196,8.667,8.6907,8.6907,8.7313,8.7144,8.6264,8.6366,8.6163,8.5561,8.5249,8.5114,8.5114,8.5114,8.4918,8.4614,8.4614,8.4614,8.4614,8.4614,8.4614,8.4614,8.4614,8.4614,8.4614,8.4614,8.4614,8.4614,0.0,0.0,3.9391,3.9391,3.9391,3.9391,3.9391,3.9391,3.9421,0.0,0.0,0.0,0.0,0.0,0.0,0.0,4.0516,4.0756,4.1373,4.1403,4.1403,4.1403,4.0756,4.0427,4.0516,4.0367,4.0019,3.9511,4.0127,4.0427,4.0487,3.9978,4.0457,4.1762,4.2331,4.3349,4.4816,4.7894,5.1721,5.5985,5.8409,6.2468,0.0,0.0,6.8508,6.8449,7.2735,7.2959,7.1669,7.4463,7.0635,0.0,0.0,0.0,0.0,0.0,5.3079,5.176,0.0,0.0,0.0,0.0,0.0,0.0,5.347,5.8099,6.301,6.7069,7.2704,7.628,7.4203,7.3462,7.3618,7.5007,7.4747,7.5788,7.9884,8.0963,8.1228,8.0965,8.2505,8.3954,8.4868,8.5391,8.5993,8.6839,8.6974,8.7042,8.7042,8.711,8.7144,8.7144,8.7144,8.7076,8.6907,8.623,8.6196,8.6771,8.6027,8.5689,8.5817,8.5716,8.5283,8.4614,8.4614,8.4614,8.4614,8.4614,8.4614,8.4614,8.4614,8.4614,8.4614,8.4614,8.4614,8.4614,3.9391,3.9391,3.9391,3.9391,3.9391,3.9391,3.9391,3.9391,3.9601,0.0,0.0,0.0,0.0,0.0,0.0,0.0,0.0,4.1254,4.1403,4.1403,4.1403,4.1403,4.0756,4.0636,4.1194,4.0157,3.978,4.0217,4.0337,4.0666,4.1224,4.1613,4.2511,4.3748,4.3868,4.4975,4.68,4.7971,5.1033,5.536,5.9462,0.0,6.4232,6.9993,6.9374,6.6197,7.2473,7.223,6.9043,0.0,6.9592,6.7932,0.0,0.0,0.0,0.0,0.0,0.0,0.0,0.0,0.0,0.0,0.0,0.0,5.0818,5.158,5.3395,5.7598,6.0675,6.3533,6.6612,6.7944,6.9006,7.0248,7.036,7.2007,7.7049,7.9899,8.0732,7.8796,8.1176,8.3565,8.5083,8.4966,8.5391,8.6805,8.7448,8.7786,8.7786,8.8328,8.8666,8.8666,8.8666,8.8091,8.6913,8.6771,8.6467,8.5993,8.5215,8.5182,8.5784,8.5148,8.4749,8.4614,8.4614,8.4614,8.4614,8.4614,8.4614,8.4614,8.4614,8.4614,8.4614,8.4614,8.4614,8.4614,3.9391,3.9391,3.9391,3.9391,3.9391,3.9391,3.9391,3.969,4.0019,0.0,0.0,0.0,0.0,0.0,0.0,0.0,0.0,0.0,4.3299,4.3349,4.3349,4.3349,4.2701,4.2372,4.2372,4.1694,4.1186,4.0894,4.1534,4.2023,4.2372,4.2701,4.3898,4.5762,4.5433,4.6411,4.8379,4.9314,5.1926,5.579,6.0693,0.0,6.6076,7.195,7.2324,7.0143,7.3218,7.3105,7.1404,7.0629,6.9834,0.0,0.0,5.9425,5.616,0.0,5.1457,5.1572,0.0,0.0,0.0,5.1787,0.0,0.0,0.0,5.2686,5.4403,5.7411,6.0101,6.2091,6.2686,6.3587,6.4661,6.5937,6.6419,6.7804,7.1074,7.6099,7.9757,8.0513,8.2322,8.4121,8.5698,8.5769,8.6372,8.7888,8.8328,8.8531,8.8531,8.8897,8.91,8.91,8.8734,8.8192,8.7448,8.7076,8.6907,8.6873,8.6501,8.6332,8.6332,8.5926,8.5324,8.4614,8.4614,8.4614,8.4614,8.4614,8.4614,8.4614,8.4614,8.4614,8.4614,8.4614,8.4614,8.4614,3.9451,3.9391,3.9451,3.9571,3.9601,3.9631,3.975,4.0247,4.0666,0.0,0.0,0.0,0.0,0.0,0.0,0.0,0.0,0.0,0.0,4.6163,4.6265,4.5514,4.4736,4.4177,4.3888,4.3499,4.2801,4.1792,4.2701,4.325,4.3489,4.3489,4.4925,4.7489,4.7048,4.8189,5.0457,5.1503,5.3986,5.7611,0.0,6.5575,6.7935,7.2973,7.4504,7.4011,7.4218,7.4554,7.4616,7.2609,7.038,6.8022,6.5716,6.0607,0.0,0.0,0.0,0.0,0.0,0.0,0.0,0.0,0.0,5.11,0.0,0.0,0.0,5.801,6.0508,6.164,5.8986,5.8976,5.9735,6.0819,6.173,6.2963,6.4866,7.073,7.6102,7.9588,8.1072,8.2376,8.3793,8.5101,8.6659,8.8531,8.8829,8.8965,8.91,8.91,8.91,8.91,8.8497,8.8125,8.7989,8.7414,8.7414,8.7989,8.7719,8.7347,8.6907,8.6575,8.5763,8.4614,8.4614,8.4614,8.4614,8.4614,8.4614,8.4614,8.4614,8.4614,8.4614,8.4614,8.4614,8.4614,3.9631,3.9391,3.9601,4.0187,4.0277,4.0487,4.1074,4.1254,4.1683,0.0,0.0,0.0,0.0,0.0,0.0,0.0,0.0,0.0,4.6415,0.0,0.0,4.6313,4.4954,4.4805,4.5942,4.4186,4.325,4.315,4.272,4.308,4.4177,4.4177,4.5633,4.8229,4.8738,5.0918,5.4291,5.4599,5.7469,0.0,6.5084,6.5409,0.0,7.1011,7.2353,7.1446,7.4797,7.576,7.4862,0.0,7.045,6.9974,0.0,6.1815,6.0784,0.0,0.0,0.0,0.0,0.0,0.0,0.0,5.0151,0.0,0.0,0.0,5.0928,5.1123,0.0,5.2399,5.2033,0.0,0.0,5.3051,5.4456,5.7028,6.1415,6.41,6.6195,6.778,7.1167,7.3796,7.4871,7.9289,8.3504,8.6892,8.7753,8.8395,8.9066,8.91,8.91,8.91,8.9032,8.8632,8.7989,8.7922,8.7922,8.7989,8.667,8.6332,8.6873,8.5459,8.4749,8.4614,8.4614,8.4614,8.4614,8.4614,8.4614,8.4614,8.4614,8.4614,8.4614,8.4614,8.4614,8.4614,4.0307,4.0277,4.0636,4.0924,4.0984,4.1074,4.1373,4.2342,4.3688,0.0,0.0,0.0,0.0,0.0,0.0,0.0,0.0,5.4489,0.0,0.0,0.0,5.0162,4.8248,4.7279,4.7459,4.6241,4.5433,4.5074,4.4796,4.5155,4.6052,4.6441,4.7818,5.0002,5.0272,5.295,5.7291,5.7321,5.988,0.0,0.0,6.5605,0.0,7.1938,7.3969,7.3423,7.3831,7.4892,7.5369,0.0,7.0353,0.0,0.0,0.0,0.0,0.0,0.0,0.0,0.0,0.0,0.0,0.0,0.0,0.0,5.3529,0.0,5.1045,0.0,0.0,0.0,0.0,0.0,0.0,0.0,5.4272,5.5898,5.8581,5.9588,6.2242,6.8182,7.0533,7.2958,7.6312,7.7828,8.0015,8.3504,8.4221,8.4773,8.551,8.7009,8.8023,8.8429,8.8463,8.8091,8.738,8.8192,8.8395,8.7989,8.738,8.7008,8.6873,8.579,8.5046,8.4614,8.4614,8.4614,8.4614,8.4614,8.4614,8.4614,8.4614,8.4614,8.4614,8.4614,8.4614,8.4614,4.1545,0.0,4.1673,4.1673,4.1673,4.1852,4.2391,4.467,4.6966,0.0,0.0,0.0,5.4561,5.3388,0.0,0.0,0.0,5.8855,0.0,0.0,5.6083,0.0,5.1691,0.0,0.0,4.8825,4.7519,4.6839,4.6839,4.6988,4.7309,4.7967,4.9254,5.0936,5.1295,5.4261,5.8993,5.9692,6.233,6.6147,6.7349,6.842,6.9692,7.3239,7.5266,7.6064,7.4748,7.5737,7.6818,7.162,7.1417,0.0,6.8061,6.4967,6.305,0.0,0.0,0.0,5.7436,0.0,0.0,0.0,0.0,0.0,0.0,0.0,0.0,0.0,0.0,0.0,0.0,0.0,0.0,0.0,0.0,5.516,0.0,5.6549,0.0,6.6366,6.8306,7.0772,7.5102,7.5293,7.6391,7.9335,8.1006,8.2206,8.297,8.5682,8.755,8.826,8.8091,8.7854,8.7516,8.8564,8.8734,8.7989,8.7786,8.7414,8.6873,8.6129,8.5486,8.4945,8.4945,8.4783,8.4614,8.4614,8.4614,8.4614,8.4614,8.4614,8.4614,8.4614,8.4614,8.4614,4.3489,4.2731,4.2381,4.2381,4.2381,4.301,4.4885,4.8807,5.1849,0.0,0.0,0.0,0.0,0.0,0.0,0.0,0.0,6.2284,6.1599,0.0,6.2426,0.0,0.0,5.2257,0.0,5.1835,4.8917,4.8259,4.8259,4.7908,4.7309,4.7967,4.8985,5.0285,5.1588,5.4637,5.8999,6.1628,6.524,6.9411,7.2146,7.5168,7.7695,0.0,7.4948,7.8167,7.905,0.0,0.0,7.526,7.4257,7.4259,7.1639,0.0,0.0,0.0,0.0,0.0,0.0,0.0,0.0,5.6015,0.0,0.0,0.0,0.0,5.2517,0.0,0.0,0.0,0.0,0.0,0.0,0.0,0.0,0.0,0.0,0.0,0.0,0.0,0.0,0.0,6.666,6.9904,7.2621,7.4474,7.9134,8.2206,8.297,8.618,8.8294,8.9066,8.8361,8.8328,8.9032,8.91,8.8734,8.7989,8.7279,8.6941,8.6873,8.6129,8.5784,8.5784,8.5784,8.5317,8.4614,8.4614,8.4614,8.4614,8.4614,8.4614,8.4614,8.4614,8.4614,8.4614,4.5848,4.5104,4.4706,4.3808,4.3658,4.4317,4.6322,4.8966,5.1744,0.0,0.0,0.0,0.0,6.2468,6.2364,0.0,0.0,6.7321,6.54,6.5142,0.0,0.0,0.0,5.7221,0.0,0.0,5.255,5.0212,4.977,4.9441,4.9232,4.9912,5.069,5.1565,5.2935,5.6026,6.0423,6.2999,6.6938,0.0,7.2998,7.4572,7.6093,0.0,7.7911,7.9224,7.9435,7.9692,7.9388,7.5614,7.5703,7.7014,7.4651,7.3299,7.3026,7.5211,7.2676,6.9085,6.8931,6.9494,6.9255,6.5708,0.0,0.0,0.0,0.0,0.0,0.0,0.0,0.0,0.0,0.0,0.0,0.0,0.0,0.0,0.0,0.0,0.0,0.0,0.0,0.0,0.0,0.0,6.6628,6.9852,7.2449,7.448,7.5904,8.0587,8.3853,8.5292,8.7098,8.7888,8.7651,8.8598,8.8463,8.7279,8.7516,8.738,8.6873,8.6129,8.5817,8.5757,8.5249,8.485,8.4614,8.4614,8.4614,8.4614,8.4614,8.4614,8.4614,8.4614,8.4614,8.4614,4.7375,4.6839,4.651,4.4945,4.5244,4.662,4.926,5.1099,0.0,0.0,5.9613,0.0,6.6104,0.0,6.5925,0.0,6.8006,6.8691,6.9566,6.611,0.0,6.9338,6.334,0.0,0.0,0.0,0.0,5.4392,5.2302,5.14,5.1679,5.185,5.2127,5.2606,5.3713,5.6229,5.9859,6.3531,6.7317,7.1026,7.2859,7.5082,7.7358,0.0,7.9251,8.0448,0.0,8.0198,8.0029,7.792,7.8021,7.8942,7.7751,7.6936,7.6879,7.9043,7.6922,7.4005,7.4676,7.5303,7.493,7.1594,6.9511,0.0,6.4346,0.0,5.7053,0.0,0.0,0.0,0.0,0.0,0.0,0.0,0.0,0.0,0.0,5.4967,0.0,0.0,0.0,0.0,0.0,0.0,0.0,6.5778,6.8335,7.0421,7.1792,7.7773,8.1829,8.3199,8.6331,8.7786,8.7313,8.8226,8.8091,8.6907,8.738,8.738,8.6907,8.6399,8.6027,8.5757,8.5249,8.485,8.4614,8.4614,8.4614,8.4614,8.4614,8.4614,8.4614,8.4614,8.4614,8.4614,4.8126,4.7938,4.7788,4.5963,4.7314,4.9837,5.345,0.0,5.8506,0.0,6.415,6.3938,6.6963,6.5361,6.5219,6.7942,6.5575,0.0,7.3447,6.544,0.0,0.0,6.5229,6.2719,6.9354,0.0,0.0,0.0,5.5682,5.3796,5.4496,5.367,5.3258,5.3288,5.3952,5.5329,5.7487,6.3318,6.6667,6.8314,7.1934,7.6687,8.1226,7.7968,7.8897,8.1862,8.1459,8.1346,8.1482,8.1795,8.1021,8.0034,8.0722,8.0918,8.0976,8.1261,8.184,8.203,8.0435,7.9548,7.8045,7.3667,7.2427,7.1265,0.0,0.0,6.7045,0.0,0.0,0.0,0.0,0.0,0.0,0.0,0.0,0.0,0.0,0.0,0.0,0.0,0.0,0.0,0.0,0.0,0.0,0.0,6.6882,6.9994,7.0906,7.7608,8.1896,8.3065,8.603,8.7737,8.7955,8.7928,8.7556,8.6873,8.6941,8.6941,8.6907,8.6873,8.6467,8.5817,8.5784,8.5317,8.4614,8.4614,8.4614,8.4614,8.4614,8.4614,8.4647,8.4614,8.4614,8.4614,4.9411,4.9284,4.986,5.0331,5.1964,5.3699,0.0,0.0,0.0,0.0,6.547,6.7257,6.8399,7.012,6.9988,6.7005,6.7714,0.0,0.0,0.0,0.0,7.5106,7.1536,6.9432,6.9426,6.6408,0.0,6.197,0.0,5.6517,5.6217,5.4673,5.3952,5.3982,5.464,5.5748,5.7487,6.3318,6.8226,7.1999,7.1179,7.3744,7.7907,7.6392,7.8978,8.3233,8.1926,8.1469,8.1414,8.102,8.1121,8.1414,8.1345,8.1498,8.1734,8.182,8.1948,8.2046,8.182,8.1652,8.1168,7.9676,7.6804,7.3924,7.2366,6.9563,0.0,0.0,0.0,0.0,0.0,0.0,0.0,0.0,0.0,0.0,0.0,0.0,0.0,0.0,0.0,0.0,0.0,0.0,0.0,0.0,6.4247,6.7324,7.1764,7.358,7.7437,8.3926,8.3021,8.398,8.715,8.6534,8.6164,8.6095,8.7177,8.7448,8.6907,8.6332,8.596,8.5784,8.5182,8.4783,8.4614,8.4614,8.4614,8.4614,8.4614,8.4979,8.5418,8.4817,8.4614,8.4681,5.1185,5.084,5.1505,5.2845,5.6227,5.8663,5.8396,6.0415,0.0,6.6282,6.7929,0.0,7.0667,7.2292,7.2204,6.9453,6.8388,0.0,7.0875,0.0,0.0,7.5485,7.3496,7.1632,7.0343,6.9213,0.0,6.4451,0.0,5.8702,5.8615,5.5899,5.464,5.467,5.5354,5.5909,5.6752,6.3787,6.9939,7.4858,7.3359,7.5542,0.0,7.6901,7.8946,8.3044,8.1907,8.1523,8.1378,8.0575,8.0502,8.0723,8.0985,8.1171,8.1411,8.1704,8.1792,8.185,8.2141,8.2424,8.2614,8.2567,8.064,7.8629,7.8027,7.5688,7.3549,0.0,7.3115,7.254,0.0,0.0,0.0,0.0,0.0,0.0,0.0,0.0,0.0,0.0,0.0,0.0,0.0,0.0,0.0,0.0,6.2522,6.4588,6.8446,7.1847,7.5325,7.8878,8.143,8.2997,8.3616,8.3583,8.3937,8.4735,8.5878,8.6442,8.6433,8.6332,8.5926,8.5249,8.4783,8.4614,8.4614,8.4614,8.4614,8.4614,8.5012,8.5587,8.623,8.579,8.5594,8.5662,5.3032,5.2456,5.2983,5.4654,5.9526,6.3017,0.0,6.3282,0.0,7.0856,0.0,7.0579,7.2463,7.2834,7.2889,7.2816,0.0,6.8455,7.4502,6.7954,6.7587,7.599,7.3514,7.2025,7.2072,7.1466,0.0,0.0,0.0,6.0958,6.1372,5.7364,5.5448,5.5448,5.6072,5.6604,5.7542,6.4603,7.1121,7.6705,7.6399,7.8827,8.2225,7.8303,7.9017,8.2034,8.1511,8.1333,8.1204,8.0462,7.9739,7.932,8.0171,8.0455,8.0575,8.1171,8.1349,8.1437,8.1821,8.2432,8.3015,8.3337,8.3424,8.3351,8.3115,8.2505,8.1976,8.2032,8.0978,7.954,7.7748,0.0,0.0,0.0,0.0,0.0,0.0,0.0,0.0,0.0,0.0,0.0,0.0,0.0,0.0,0.0,6.1571,6.2628,6.4487,7.0918,7.3974,7.2751,8.0165,8.2751,7.9879,8.0676,8.2001,8.3754,8.4133,8.4851,8.5817,8.6366,8.5865,8.4614,8.4614,8.4647,8.4749,8.4749,8.4817,8.4952,8.5655,8.6399,8.7042,8.7042,8.711,8.7177,5.4209,5.3862,5.4904,5.8296,5.979,6.1985,6.6423,6.9476,7.0708,6.9156,7.097,7.1923,7.0455,7.2561,7.3297,7.1365,7.0581,0.0,0.0,0.0,0.0,7.6407,7.6198,7.5732,7.5161,7.4672,7.3976,0.0,0.0,6.4425,6.3849,5.9021,5.6765,5.6765,5.6885,6.0516,6.647,6.5818,6.977,7.6427,7.5884,7.665,7.8157,7.8451,8.0037,8.1906,8.0475,8.0126,8.0401,8.0793,8.0475,7.9931,8.012,8.0152,8.0244,8.0575,8.0696,8.0816,8.144,8.2109,8.2723,8.3015,8.3103,8.3234,8.3756,8.3326,8.2855,8.3149,8.3009,8.225,8.0382,0.0,0.0,0.0,0.0,0.0,0.0,0.0,0.0,0.0,0.0,0.0,0.0,0.0,0.0,0.0,6.1571,6.3858,6.859,6.7571,6.9947,7.6694,7.6568,7.8271,8.2264,8.2236,8.3568,8.6248,8.4665,8.4545,8.5784,8.5249,8.485,8.4614,8.4614,8.4979,8.5587,8.5587,8.596,8.6507,8.667,8.7177,8.782,8.782,8.8192,8.8632,5.6986,0.0,0.0,0.0,0.0,0.0,0.0,7.1842,7.4203,7.1718,7.333,7.4321,7.3227,7.4222,7.4499,7.33,7.2205,7.2349,7.4158,7.34,7.4317,7.7555,7.7675,0.0,7.5685,7.6365,7.5437,7.2773,0.0,6.5669,6.4495,5.9443,5.7094,5.718,5.8961,6.2795,6.8037,6.9579,7.3127,7.7791,7.8364,7.933,8.0329,7.9395,7.988,8.0926,7.9921,7.9322,7.91,7.9793,7.9978,7.9815,7.9815,7.9815,7.9876,8.0213,8.0273,8.0394,8.0876,8.1513,8.2154,8.2452,8.266,8.291,8.3236,8.3159,8.3044,8.322,8.3662,8.3095,7.9903,7.6247,0.0,0.0,0.0,0.0,0.0,0.0,0.0,0.0,0.0,0.0,0.0,0.0,0.0,6.1613,6.1413,6.2871,6.6558,6.689,6.9375,7.4682,7.6277,7.8356,8.1054,8.1486,8.2618,8.4463,8.3847,8.41,8.5182,8.5594,8.5587,8.5249,8.5628,8.6027,8.6366,8.6366,8.6805,8.7482,8.7482,8.7922,8.8564,8.8564,8.8795,8.9066,0.0,5.9292,0.0,0.0,6.4423,6.8007,6.8644,7.2969,7.5812,7.4706,7.5499,7.6181,7.6261,7.5897,7.5527,7.5271,7.3864,7.3689,7.5387,7.4473,7.5093,7.7832,7.8177,7.7608,7.6131,7.7708,7.6816,0.0,0.0,6.7332,6.5154,6.0831,5.8863,5.913,6.2218,6.5673,6.9387,7.3704,7.7181,8.0008,8.146,8.2509,8.2926,8.0358,7.9574,7.97,7.9413,7.8748,7.8087,7.8848,7.9195,7.932,7.9634,7.9666,7.9697,8.026,8.0416,8.0478,8.0752,8.1389,8.1997,8.2271,8.245,8.2599,8.2982,8.2998,8.3011,8.3293,8.3982,8.3414,7.9929,7.8339,0.0,0.0,0.0,0.0,0.0,0.0,0.0,0.0,0.0,0.0,0.0,0.0,0.0,6.2487,6.1567,6.2095,6.4526,6.6677,6.9078,7.1773,7.5798,7.8352,7.9329,8.0366,8.1769,8.3403,8.3421,8.3985,8.5121,8.6196,8.6433,8.6088,8.6691,8.7057,8.7226,8.7395,8.7774,8.8226,8.8226,8.8564,8.91,8.91,8.91,8.91,6.4058,0.0,0.0,0.0,0.0,6.9498,7.4615,7.4336,7.408,7.5536,7.5628,7.5689,7.6066,7.6049,7.5728,7.4934,7.6036,7.5898,7.3811,7.5692,7.6493,7.5635,7.7317,7.8322,7.8383,7.9434,7.9612,0.0,0.0,7.1811,6.7441,6.5289,6.4601,6.5276,6.7332,7.1162,7.6014,7.6574,7.9064,8.2694,8.3513,8.3005,8.1672,8.0803,7.97,7.8596,7.834,7.8117,7.8116,7.8836,7.8713,7.8435,7.9669,7.9858,7.9856,8.1062,8.1443,8.1506,8.1853,8.2491,8.3067,8.3098,8.2681,8.2646,8.4247,8.3632,8.3076,8.4274,8.4312,8.4012,8.3548,8.1446,7.8269,0.0,0.0,0.0,0.0,0.0,0.0,0.0,0.0,0.0,0.0,6.3179,0.0,6.364,6.2503,6.3383,6.7208,6.5401,6.6592,7.1657,7.2327,7.4665,7.9007,8.0366,8.3157,8.7439,8.4955,8.4774,8.667,8.6129,8.623,8.6805,8.7145,8.7627,8.8334,8.8986,8.9126,8.8998,8.8998,8.9066,8.91,8.91,8.91,8.91,6.8396,6.7712,6.7625,6.9579,7.1065,7.2703,7.4783,7.6277,7.7348,7.7864,7.762,7.7434,7.7358,7.7786,7.7747,7.7019,7.7398,7.7223,7.619,7.6955,7.7536,7.781,7.896,8.0159,8.1312,8.1263,8.112,0.0,0.0,7.1246,6.8943,6.6675,6.7253,7.0381,7.314,7.6013,7.8917,8.0766,8.2746,8.4531,8.3375,8.2764,8.2307,8.0173,7.8975,7.8469,7.8166,7.8026,7.8152,7.9095,7.9337,7.9414,7.9944,8.0164,8.0292,8.0834,8.0994,8.1058,8.1411,8.1857,8.2143,8.1759,8.1888,8.2205,8.2525,8.297,8.3441,8.398,8.4791,8.5139,8.4225,8.3534,8.2054,7.88,0.0,0.0,0.0,0.0,0.0,0.0,0.0,0.0,0.0,0.0,0.0,0.0,6.352,0.0,0.0,0.0,6.9761,7.4779,7.5354,7.8424,8.4349,8.2442,8.3221,8.667,8.554,8.5432,8.6264,8.6839,8.7516,8.8254,8.8496,8.8693,8.8861,8.9166,8.9184,8.91,8.91,8.91,8.91,8.91,8.91,8.91,7.2782,7.1866,7.1177,7.203,7.4501,7.6135,7.5325,7.7738,7.9394,7.8647,7.8783,7.8767,7.8311,7.8618,7.8623,7.7885,7.7988,7.7779,7.7103,7.7507,7.8064,7.8743,7.988,0.0,8.2603,8.2596,8.256,8.2609,7.7352,7.3903,7.2196,7.0185,7.1372,7.5281,7.8393,8.0358,8.1574,8.3936,8.4978,8.4937,8.3458,8.2744,8.2344,8.0237,7.9131,7.8685,7.8526,7.8406,7.8496,7.9409,7.995,8.026,8.0368,8.0491,8.0656,8.0974,8.1069,8.1102,8.1364,8.1592,8.169,8.1299,8.1597,8.1984,8.1917,8.2749,8.3797,8.4749,8.5571,8.6027,8.5686,8.5744,8.5012,8.2515,0.0,0.0,0.0,0.0,0.0,0.0,0.0,0.0,7.7753,0.0,0.0,0.0,0.0,0.0,0.0,0.0,0.0,0.0,0.0,0.0,8.5287,8.2238,8.2611,8.6433,8.623,8.623,8.6467,8.7753,8.8654,8.9212,8.9407,8.9379,8.9212,8.9212,8.9156,8.91,8.91,8.91,8.91,8.91,8.91,8.91,7.706,7.7894,7.874,7.9858,8.0094,7.9472,7.7561,7.8456,7.8708,7.7041,7.8372,7.9223,7.8485,7.8093,7.7526,7.6615,7.7738,7.7493,7.5175,7.7182,7.8078,7.7075,7.9261,8.0846,8.1499,8.3195,8.4212,8.457,0.0,8.1844,7.7962,7.7278,7.8064,8.0149,8.2762,8.4139,8.4603,8.536,8.4874,8.3684,8.4368,8.3265,8.1148,8.1442,8.0521,7.9144,7.947,7.9383,7.9201,7.9878,8.0335,8.0645,8.0978,8.0844,8.08,8.1886,8.2174,8.2174,8.2206,8.2174,8.2242,8.2578,8.2208,8.2061,8.3444,8.3483,8.4086,8.7196,8.6717,8.642,8.8772,8.8396,8.658,8.3134,8.3413,0.0,0.0,0.0,0.0,0.0,7.2765,7.1781,7.6456,7.2059,0.0,0.0,0.0,0.0,0.0,0.0,0.0,7.1749,6.9365,0.0,7.9039,7.836,8.1322,8.7955,8.7245,8.7279,8.7989,8.8734,8.924,8.949,8.949,8.949,8.949,8.949,8.9323,8.91,8.91,8.91,8.91,8.91,8.91,8.91,7.4493,7.7046,7.9009,7.7747,7.9284,8.037,7.9542,8.021,8.0422,7.9455,7.9663,7.9736,7.9299,7.9328,7.9115,7.8343,7.7997,7.7809,7.7811,7.7622,7.7965,7.9084,7.9158,7.9627,8.0541,8.1744,8.2562,8.2894,8.1832,8.0696,7.9466,7.9238,8.0863,8.3949,8.48,8.5364,8.5722,8.5218,8.4776,8.424,8.3065,8.2439,8.2099,8.0998,8.0522,8.0451,8.0351,8.0198,8.0187,8.0627,8.0843,8.0946,8.1049,8.1185,8.1353,8.1672,8.1768,8.1768,8.1768,8.2003,8.2104,8.1731,8.1985,8.2427,8.2646,8.3346,8.4442,8.6118,8.642,8.6851,8.8393,8.8312,8.7316,8.5064,8.6101,8.5949,8.2542,0.0,0.0,0.0,7.6934,7.6131,0.0,7.6734,0.0,0.0,0.0,0.0,0.0,0.0,0.0,0.0,7.9101,0.0,8.5833,8.284,8.3543,8.7989,8.7753,8.8023,8.8761,8.9166,8.9295,8.924,8.9407,8.9379,8.9212,8.9212,8.9156,8.91,8.91,8.91,8.91,8.91,8.91,8.91,7.6085,7.8385,8.0241,7.919,8.0354,8.1192,8.0372,8.0761,8.0687,7.9553,7.9685,7.9911,7.9949,7.9918,7.9635,7.8975,7.8188,7.8062,7.8849,7.8093,7.8282,7.9846,7.9697,8.0013,8.1041,8.2176,8.2867,8.3049,8.2349,8.2011,8.2044,8.2305,8.3522,8.5511,8.5511,8.556,8.565,8.4718,8.418,8.3838,8.2565,8.2129,8.2202,8.1412,8.109,8.1109,8.12,8.1045,8.0836,8.1028,8.1113,8.1079,8.091,8.1117,8.1392,8.1392,8.1392,8.1529,8.2042,8.2345,8.258,8.275,8.3278,8.3799,8.3864,8.4475,8.5426,8.6831,8.732,8.7813,8.8905,8.9248,8.8938,8.7616,8.8636,8.8912,8.6858,0.0,8.3479,0.0,0.0,0.0,0.0,8.0573,7.9228,0.0,0.0,0.0,0.0,0.0,7.7629,8.1007,8.1793,8.3655,8.673,8.4182,8.4612,8.7989,8.8371,8.8855,8.944,8.9462,8.9407,8.924,8.9323,8.924,8.91,8.91,8.91,8.91,8.91,8.91,8.91,8.91,8.91,8.91,8.044,8.1219,8.2057,8.293,8.2671,8.1814,8.033,8.0333,7.9899,7.803,7.8941,7.9949,8.0554,8.0016,7.938,7.8752,7.8339,7.8244,7.8689,7.8627,7.8943,7.9663,8.0484,8.1369,8.2352,8.3647,8.4437,8.4626,8.493,8.5082,8.5082,8.58,8.5737,8.5051,8.5117,8.4935,8.4567,8.3977,8.3319,8.2703,8.2671,8.2266,8.1761,8.2397,8.2066,8.1298,8.1954,8.1731,8.1148,8.1079,8.1079,8.101,8.0597,8.0701,8.1044,8.1044,8.1079,8.1358,8.2584,8.3015,8.3443,8.5012,8.5511,8.579,8.6497,8.6436,8.6818,8.8834,8.8993,8.9082,9.0152,9.0797,9.0966,9.0459,9.0831,9.0904,8.9973,8.7161,8.484,8.3854,8.0598,7.9936,8.3721,8.3691,8.332,0.0,0.0,0.0,0.0,0.0,7.5235,7.8652,7.9268,8.0794,8.3297,8.3292,8.4891,8.8146,8.9073,8.9689,8.9963,8.9662,8.949,8.9462,8.9212,8.91,8.91,8.91,8.91,8.91,8.91,8.91,8.91,8.91,8.91,8.91,7.7177,7.9433,8.1,7.9486,8.0578,8.1482,8.0916,8.0889,8.0894,8.065,8.0935,8.0999,8.0645,8.0223,7.9801,7.9382,7.8526,7.8498,7.9648,7.9017,7.9125,8.0299,7.9605,7.9163,7.9094,8.0225,8.183,8.394,8.4031,8.4061,8.4061,8.4224,8.4103,8.3697,8.4219,8.423,8.3951,8.3758,8.3443,8.3034,8.2174,8.2111,8.2397,8.2069,8.2086,8.2289,8.1875,8.1632,8.1392,8.084,8.0632,8.0562,8.0147,8.0111,8.0182,8.0182,8.0632,8.1082,8.1121,8.2081,8.3212,8.3573,8.4633,8.5729,8.6223,8.6436,8.7029,8.8594,8.8593,8.9081,9.1431,9.0628,9.0121,9.1614,9.1102,8.9498,8.6784,8.5706,8.3957,8.0599,8.1679,8.3054,8.4005,8.6236,8.6578,0.0,0.0,8.3186,8.3806,8.2331,8.2987,8.6388,8.5549,8.5862,8.7627,8.7088,8.7691,8.9465,8.947,8.9655,8.9929,8.9628,8.9379,8.9184,8.9128,8.91,8.91,8.91,8.91,8.91,8.91,8.91,8.91,8.91,8.91,8.91,7.915,8.0865,8.212,8.1118,8.1682,8.2308,8.2287,8.2128,8.1816,8.1219,8.1539,8.157,8.0912,8.0515,8.0373,8.0482,7.9249,7.8881,7.9816,7.9507,7.9682,8.0585,8.0206,8.0017,8.0143,8.0394,8.1277,8.2794,8.2439,8.2533,8.3009,8.3333,8.3276,8.2997,8.3508,8.3575,8.3227,8.3064,8.297,8.294,8.2366,8.2331,8.2671,8.2309,8.2164,8.2141,8.1734,8.1495,8.1289,8.091,8.0667,8.0457,8.0041,7.99,7.983,7.9475,8.0107,8.0944,8.1535,8.2818,8.4315,8.5542,8.6064,8.6492,8.7334,8.7691,8.8025,8.8774,8.9283,8.9956,9.1151,9.1271,9.1406,9.2257,9.0462,8.8161,8.6014,8.4366,8.2971,8.1935,8.3763,8.5697,8.7218,8.8728,8.8982,8.7505,8.5683,8.5264,8.6811,8.5121,8.5614,8.9004,8.8328,8.8125,8.8564,8.867,8.9164,9.0146,9.0461,9.0596,9.0521,9.0091,8.9799,8.9496,8.9212,8.91,8.91,8.91,8.91,8.91,8.91,8.91,8.91,8.91,8.91,8.91,8.3241,8.3504,8.3824,8.4277,8.3834,8.3453,8.36,8.3339,8.2611,8.131,8.1729,8.1886,8.1238,8.0929,8.1012,8.1774,8.0338,7.9521,7.9891,8.0226,8.0494,8.0761,8.1345,8.192,8.2428,8.1793,8.1475,8.1538,8.0967,8.1125,8.2045,8.262,8.2717,8.2395,8.278,8.2812,8.2587,8.2366,8.243,8.2713,8.2713,8.267,8.2642,8.2575,8.2141,8.1597,8.1529,8.1323,8.1113,8.1044,8.0771,8.0422,7.9971,7.983,7.9688,7.9076,7.9612,8.074,8.2215,8.3671,8.5449,8.8123,8.7916,8.7445,8.8785,8.91,8.9134,8.9269,9.0256,9.1,9.0628,9.2015,9.2933,9.1874,8.9203,8.6862,8.5782,8.3407,8.2644,8.4949,8.6105,8.7835,9.0677,9.0391,9.0357,9.1068,8.7812,8.7094,9.003,8.6806,8.6152,8.9004,8.8897,8.8525,8.8072,8.9061,8.9847,9.0475,9.1335,9.1565,9.1187,9.0662,9.0234,8.9881,8.9379,8.9128,8.91,8.91,8.91,8.91,8.91,8.91,8.91,8.91,8.91,8.91,8.518,8.4352,8.3557,8.3636,8.3541,8.3437,8.3192,8.3162,8.3226,8.3578,8.2795,8.1994,8.1579,8.1477,8.1847,8.2783,8.1584,8.0943,8.1254,8.1658,8.1778,8.1547,8.1877,8.182,8.1345,8.096,8.0735,8.0671,8.0931,8.1092,8.1283,8.1378,8.128,8.0955,8.1555,8.1971,8.2231,8.2769,8.289,8.2718,8.2718,8.2548,8.2239,8.1904,8.17,8.1563,8.1255,8.1148,8.1044,8.0701,8.0562,8.0387,7.9683,7.947,7.947,7.9327,7.9647,8.0041,8.0326,8.1878,8.4027,8.6729,8.7238,8.7445,8.8785,8.91,8.9303,8.9918,9.0222,9.0729,9.1851,9.1846,9.1001,8.8927,8.7387,8.5529,8.2793,8.3664,8.473,8.5168,8.7265,8.8869,8.9376,8.9342,8.9579,9.0324,8.9201,8.8971,9.0126,8.8999,8.856,8.9072,8.7888,8.7592,8.8341,8.9362,9.0146,9.0733,9.0889,9.0942,9.0865,9.0555,9.0091,8.9545,8.9462,8.9295,8.91,8.91,8.91,8.91,8.91,8.91,8.91,8.91,8.91,8.91,8.6318,8.5829,8.5276,8.5145,8.5123,8.5027,8.4805,8.4591,8.4594,8.4917,8.4251,8.3702,8.3508,8.3475,8.3671,8.4123,8.2949,8.2247,8.2381,8.2073,8.1813,8.167,8.1742,8.133,8.0277,8.0246,8.006,7.9687,8.0082,8.0563,8.1105,8.1105,8.1095,8.1171,8.1684,8.1807,8.1606,8.2352,8.2475,8.2107,8.234,8.2206,8.1836,8.1666,8.1495,8.1289,8.1182,8.1113,8.1079,8.0875,8.0527,8.0111,7.9789,7.9398,7.9076,7.9076,7.947,8.0151,8.1299,8.1504,8.2287,8.6123,8.6396,8.6305,8.8586,8.91,8.9201,8.9545,8.9918,9.0425,9.1073,9.1609,9.1561,9.0475,8.8058,8.5812,8.4378,8.4771,8.5201,8.5201,8.8213,9.0256,9.0256,8.9918,8.9985,9.0729,9.0121,8.985,9.0188,8.9884,8.9596,8.9329,8.8651,8.8749,8.9678,9.0028,9.0388,9.0812,9.097,9.1083,9.1057,9.0733,9.0307,8.9771,8.9572,8.9351,8.91,8.91,8.91,8.91,8.91,8.91,8.91,8.91,8.91,8.91,8.7177,8.7058,8.6875,8.6696,8.6617,8.6582,8.6428,8.6127,8.5974,8.5974,8.5449,8.5106,8.5106,8.5106,8.5231,8.5542,8.4027,8.3245,8.3541,8.2179,8.1392,8.1461,8.1392,8.0767,7.9485,7.9904,7.9865,7.9339,7.9813,8.0461,8.1224,8.1224,8.1305,8.1495,8.1731,8.156,8.1148,8.1594,8.1666,8.1495,8.1833,8.1765,8.1495,8.1495,8.1323,8.1113,8.1113,8.1113,8.1079,8.101,8.0562,8.0006,7.983,7.9398,7.9005,7.9332,8.0086,8.1063,8.205,8.1196,8.1063,8.5415,8.5476,8.5289,8.841,8.91,8.9168,8.9309,8.9816,9.0324,9.0662,9.1508,9.1962,9.145,8.8375,8.6123,8.6347,8.5558,8.5316,8.6273,8.8961,9.0797,9.0797,9.029,9.0256,9.1,9.0357,9.0019,9.0188,9.011,8.9962,8.9826,8.9737,9.0064,9.0786,9.0654,9.0654,9.0812,9.1135,9.1274,9.1161,9.0917,9.0521,9.0071,8.9771,8.9468,8.9184,8.9128,8.91,8.91,8.91,8.91,8.91,8.91,8.91,8.91,8.7922,8.7458,8.7076,8.705,8.7083,8.7054,8.7031,8.7001,8.7001,8.7001,8.588,8.5106,8.5106,8.5106,8.5603,8.6819,8.4602,8.3638,8.4886,8.2218,8.0736,8.1148,8.0771,8.0217,7.9409,8.0086,8.044,8.0374,8.11,8.1508,8.1539,8.1539,8.143,8.1148,8.0771,8.0806,8.1079,8.0771,8.0806,8.1148,8.1182,8.1182,8.1148,8.1148,8.1148,8.1113,8.1113,8.1113,8.1044,8.0667,8.0527,8.0352,7.9647,7.9398,7.9582,8.0825,8.2391,8.3152,8.0783,8.0287,8.1159,8.3995,8.46,8.5289,8.841,8.91,8.9275,8.9985,9.0154,9.0628,9.1986,9.1778,9.0703,8.8571,8.6563,8.5615,8.654,8.5207,8.5601,8.9387,8.9517,8.9269,8.9269,8.9235,8.9478,9.0222,8.9579,8.9478,9.0154,8.9798,8.9915,9.068,9.0441,9.0468,9.0812,9.1048,9.1048,9.0812,9.1135,9.1135,9.0839,9.0812,9.0627,9.0368,9.0071,8.9771,8.9434,8.9184,8.91,8.91,8.91,8.91,8.91,8.91,8.91,8.91,8.8666,8.8503,8.8324,8.8324,8.8324,8.8324,8.8324,8.7654,8.7386,8.8238,8.7179,8.6639,8.7507,8.6852,8.6549,8.7061,8.441,8.2919,8.3444,8.1371,8.0076,8.0036,7.9895,7.9576,7.9041,7.9541,7.993,8.0111,8.0667,8.1048,8.1289,8.1289,8.1082,8.0736,8.0562,8.0317,8.0036,8.0076,8.0107,8.0072,8.0527,8.0736,8.0771,8.101,8.1113,8.1113,8.1113,8.091,8.0701,8.0562,8.0212,7.9754,7.947,7.9976,8.0929,8.2558,8.3641,8.4027,8.2789,8.2524,8.2954,8.4187,8.5133,8.6332,8.8614,8.91,8.9201,8.9444,8.9512,8.9681,9.0256,9.0493,9.0311,8.9451,8.8765,8.8405,8.8822,8.7924,8.7773,8.9348,8.9241,8.91,8.91,8.91,8.9235,8.9478,8.9269,8.9207,8.9478,8.9687,9.0044,9.0521,9.0601,9.0865,9.1273,9.1256,9.1213,9.1109,9.1031,9.0917,9.0786,9.0627,9.0494,9.0395,9.0099,8.9799,8.949,8.9379,8.924,8.91,8.91,8.91,8.91,8.91,8.91,8.91,8.91,8.91,8.91,8.91,8.91,8.91,8.91,8.8324,8.8065,8.8988,8.8295,8.8094,8.8988,8.8267,8.7503,8.6968,8.46,8.2887,8.2387,8.0714,7.9647,7.9398,7.9255,7.9076,7.8825,7.9184,7.9576,7.99,8.0287,8.0632,8.091,8.091,8.0701,8.0317,8.0212,7.986,7.9398,7.9511,7.9505,7.9434,7.9966,8.0282,8.0527,8.0806,8.091,8.091,8.091,8.0667,8.0317,8.0212,7.9824,7.9363,7.9255,8.0579,8.2526,8.425,8.532,8.5784,8.5009,8.5196,8.5506,8.5196,8.5813,8.6965,8.87,8.91,8.91,8.91,8.91,8.914,8.9376,8.9681,9.0019,9.0459,9.0154,8.9951,9.0188,8.9579,8.91,8.91,8.91,8.91,8.91,8.91,8.91,8.91,8.91,8.9128,8.9212,8.9634,8.9963,9.0261,9.0601,9.0944,9.1196,9.1187,9.1083,9.1004,9.0865,9.0707,9.0548,9.0521,9.0414,9.0261,9.0071,8.9799,8.949,8.9407,8.9268,8.91,8.91,8.91,8.91,8.91,8.91,8.91,8.91,8.91,8.91,8.91,8.91,8.91,8.91,8.91,8.91,8.91,8.91,8.91,8.91,8.9072,8.8381,8.6633,8.5258,8.3802,8.2119,8.0396,7.9434,7.9434,7.9041,7.8825,7.8825,7.922,7.9576,7.9935,8.0287,8.0492,8.0527,8.0492,8.0252,7.9865,7.9541,7.9398,7.9363,7.8969,7.9041,7.9428,7.9398,7.9824,8.0492,8.0492,8.0492,8.0492,8.0492,8.0217,7.983,7.9505,7.9398,7.9327,7.8969,8.1207,8.4346,8.6027,8.7766,8.8728,8.6994,8.7795,8.87,8.6965,8.6513,8.6994,8.8728,8.91,8.91,8.91,8.91,8.9309,9.0053,8.9579,8.9607,9.1034,9.0053,8.9342,9.0087,8.9545,8.91,8.91,8.91,8.91,8.91,8.91,8.91,8.91,8.91,8.9212,8.949,8.949,8.9662,8.9963,9.0494,9.0654,9.0388,9.0654,9.0654,9.0422,9.0654,9.0521,9.0017,9.0548,9.0494,8.999,8.999,8.9799,8.9462,8.9212,8.91,8.91,8.91,8.91,8.91,8.91,8.91,8.91,8.91,8.91,8.91,8.91,8.91,8.91,8.91,8.91,8.91,8.91,8.91,8.91,8.91,8.7176,8.5662,8.5133,8.3672,8.2953,8.338,8.2921,8.2624,8.2624,8.1343,8.0618,8.0618,8.0752,8.0994,8.1371,8.0287,8.0466,8.1881,8.064,7.9865,7.9541,7.9434,7.922,7.8969,7.8861,7.8861,7.9005,7.9291,7.9541,7.9754,7.9971,8.0076,8.0076,8.0076,7.983,7.9541,7.9434,7.922,7.9404,8.172,8.3152,8.4568,8.747,8.87,8.8988,8.8467,8.87,8.87,8.6965,8.7441,8.8467,8.8988,8.91,8.91,8.91,8.91,8.9168,8.9376,8.9269,8.9269,8.9681,8.9404,8.9201,8.9376,8.9269,8.91,8.91,8.91,8.91,8.91,8.9462,8.96,8.9379,8.9379,8.9407,8.949,8.949,8.9579,8.9662,9.0044,9.0288,9.0422,9.0899,9.1004,9.068,9.0574,9.0449,9.0288,9.001,8.9901,8.9963,8.9744,8.9572,8.949,8.9407,8.9268,8.91,8.91,8.91,8.91,8.91,8.91,8.91,8.91,8.91,8.91,8.91,8.91,8.91,8.91,8.91,8.91,8.91,8.91,8.91,8.91,8.7445,8.606,8.5351,8.3737,8.3119,8.3963,8.3995,8.4314,8.4977,8.3963,8.312,8.2458,8.2425,8.2624,8.2986,8.1268,8.1093,8.2254,8.0536,7.9505,7.9148,7.9148,7.9041,7.8789,7.8789,7.8789,7.8825,7.9041,7.9255,7.9398,7.9647,7.9718,7.9718,7.9718,7.947,7.9148,7.9148,7.9475,8.0335,8.312,8.4473,8.5537,8.8295,8.91,8.91,8.91,8.91,8.8841,8.7795,8.8319,8.91,8.91,8.91,8.91,8.91,8.91,8.91,8.91,8.91,8.91,8.91,8.91,8.91,8.91,8.91,8.91,8.91,8.91,8.9184,8.9407,8.9517,8.9572,8.949,8.949,8.949,8.949,8.9379,8.9379,8.949,8.9717,8.9881,9.0037,9.0529,9.0741,9.0627,9.0502,9.0253,9.0037,8.9901,8.9799,8.9634,8.9517,8.9434,8.9323,8.9323,8.924,8.91,8.91,8.91,8.91,8.91,8.91,8.91,8.91,8.91,8.91,8.91,8.91,8.91,8.91,8.91,8.91,8.91,8.91,8.91,8.91,8.8959,8.8233,8.6633,8.5102,8.4283,8.4442,8.4473,8.5133,8.6663,8.6723,8.5996,8.4505,8.4155,8.4219,8.4663,8.2689,8.185,8.2119,8.0221,7.9148,7.8789,7.8789,7.8789,7.8789,7.8789,7.8789,7.8789,7.8789,7.9005,7.9327,7.9327,7.9327,7.9363,7.9541,7.9363,7.9046,7.9225,8.0335,8.1922,8.3673,8.5289,8.6842,8.8581,8.91,8.91,8.91,8.91,8.91,8.91,8.91,8.91,8.91,8.91,8.91,8.91,8.91,8.91,8.91,8.91,8.91,8.91,8.91,8.91,8.91,8.91,8.91,8.91,8.91,8.9295,8.9758,8.9407,8.9268,8.9628,8.9545,8.949,8.9517,8.924,8.9212,8.9434,8.949,8.949,8.949,8.9799,9.0071,9.0307,9.0368,9.0099,8.9545,9.0064,8.9874,8.9128,8.9351,8.9323,8.91,8.91,8.91,8.91,8.91,8.91,8.91,8.91,8.91,8.91,8.91,8.91,8.91,8.91,8.91,8.91,8.91,8.91,8.91,8.91,8.91,8.91,8.91,8.7882,8.6902,8.651,8.6179,8.6543,8.7916,8.8003,8.8147,8.8524,8.8524,8.8381,8.8003,8.5351,8.4695,8.6057,8.1652,8.0894,8.351,8.037,7.8897,7.8789,7.8789,7.8789,7.8789,7.8789,7.8789,7.8789,7.8789,7.8861,7.8933,7.8933,7.8933,7.9112,8.0475,8.0894,8.1035,8.2393,8.312,8.3737,8.5411,8.6209,8.6842,8.8581,8.91,8.91,8.91,8.91,8.91,8.91,8.91,8.91,8.91,8.91,8.91,8.91,8.91,8.91,8.91,8.91,8.91,8.91,8.91,8.91,8.91,8.91,8.91,8.91,8.91,8.9128,8.9268,8.9351,8.9819,9.082,9.001,8.96,8.9881,8.9413,8.9128,8.9184,8.9379,8.949,8.949,8.9545,8.9662,8.9683,8.9963,9.0017,8.9881,8.9771,8.9572,8.9407,8.924,8.9128,8.91,8.91,8.91,8.91,8.91,8.91,8.91,8.91,8.91,8.91,8.91,8.91,8.91,8.91,8.91,8.91,8.91,8.91,8.91,8.91,8.91,8.91,8.91,8.8262,8.7766,8.7766,8.7766,8.8147,8.9044,8.91,8.91,8.91,8.91,8.91,8.91,8.6513,8.6027,8.7766,8.4187,8.3382,8.5165,8.2526,8.1275,8.1275,8.1275,8.1275,8.1241,8.0405,8.0051,8.0051,8.0051,8.0051,8.0125,8.0967,8.1275,8.1381,8.2325,8.2626,8.2758,8.3705,8.4537,8.5351,8.6209,8.7083,8.7911,8.8813,8.91,8.91,8.91,8.91,8.91,8.91,8.91,8.91,8.91,8.91,8.91,8.91,8.91,8.91,8.91,8.91,8.91,8.91,8.91,8.91,8.91,8.91,8.91,8.91,8.91,8.91,8.91,8.971,9.0199,9.0449,9.0118,8.9874,8.9771,8.9434,8.9212,8.91,8.924,8.9295,8.9295,8.9295,8.9295,8.9295,8.9634,8.9771,8.9771,8.9572,8.9434,8.9295,8.9156,8.91,8.91,8.91,8.91,8.91,8.91,8.91,8.91,8.91,8.91,8.91,8.91,8.91,8.91,8.91,8.91,8.91,8.91,8.91,8.91,8.91,8.91,8.91,8.91,8.91,8.91,8.91,8.91,8.91,8.91,8.91,8.91,8.91,8.91,8.91,8.91,8.7675,8.7645,8.91,8.7054,8.6209,8.645,8.4757,8.3995,8.3995,8.3995,8.3995,8.3899,8.2458,8.1821,8.1821,8.1821,8.1821,8.199,8.3446,8.3995,8.4059,8.4346,8.4631,8.4883,8.4883,8.5782,8.6932,8.6932,8.794,8.91,8.91,8.91,8.91,8.91,8.91,8.91,8.91,8.91,8.91,8.91,8.91,8.91,8.91,8.91,8.91,8.91,8.91,8.91,8.91,8.91,8.91,8.91,8.91,8.91,8.91,8.91,8.91,8.9156,8.9983,9.028,8.9683,8.9956,9.001,8.9655,8.949,8.9351,8.9156,8.91,8.91,8.91,8.91,8.91,8.91,8.9323,8.9434,8.949,8.949,8.9379,8.9156,8.91,8.91,8.91,8.91,8.91,8.91,8.91,8.91,8.91,8.91,8.91,8.91,8.91,8.91,8.91,8.91,8.91,8.91,8.91,8.91,8.91,8.91,8.91,8.91,8.91,8.91,8.91,8.91,8.91,8.91,8.91,8.91,8.91,8.91,8.91,8.91,8.91,8.8869,8.8841,8.91,8.5874,8.5102,8.645,8.4757,8.3995,8.3995,8.3995,8.3995,8.3995,8.3737,8.3641,8.3641,8.3641,8.3641,8.3673,8.3899,8.3995,8.4187,8.566,8.7113,8.841,8.841,8.8552,8.8756,8.8756,8.8931,8.91,8.91,8.91,8.91,8.91,8.91,8.91,8.91,8.91,8.91,8.91,8.91,8.91,8.91,8.91,8.91,8.91,8.91,8.91,8.91,8.91,8.91,8.91,8.91,8.91,8.91,8.91,8.9184,8.9407,8.9379,8.96,9.0226,8.9655,8.9572,9.0226,8.9545,8.924,8.9434,8.9212,8.91,8.91,8.91,8.91,8.91,8.9128,8.9268,8.949,8.949,8.9462,8.9434,8.9184,8.91,8.91,8.91,8.91,8.91,8.91,8.91,8.91,8.91,8.91,8.91,8.91,8.91,8.91,8.91,8.91,8.91,8.91,8.91,8.91,8.91,8.91,8.91,8.91,8.91,8.91,8.91,8.91,8.91,8.91,8.91,8.91,8.91,8.91,8.91,8.91,8.91,8.91,8.91,8.7591,8.7235,8.794,8.7205,8.6846,8.6846,8.6846,8.6846,8.6786,8.5813,8.5413,8.5413,8.5413,8.5413,8.5506,8.6483,8.6846,8.6935,8.7708,8.8438,8.91,8.91,8.91,8.91,8.91,8.91,8.91,8.91,8.91,8.91,8.91,8.91,8.91,8.91,8.91,8.91,8.91,8.91,8.91,8.91,8.91,8.91,8.91,8.91,8.91,8.91,8.91,8.91,8.91,8.91,8.91,8.91,8.91,8.9128,8.9268,8.9295,8.9407,8.9655,8.9765,8.9765,8.9683,8.9634,8.9524,8.9268,8.9156,8.91,8.91,8.91,8.91,8.91,8.91,8.9156,8.9268,8.9268,8.9268,8.9268,8.9128,8.91,8.91,8.91,8.91,8.91,8.91,8.91,8.91,8.91,8.91,8.91]}]]